<?xml version="1.0" encoding="UTF-8" standalone="yes"?>
<gpx
 xmlns="http://www.topografix.com/GPX/1/1"
 creator="OziExplorer Version 3956f - http://www.oziexplorer.com"
 version="1.1"
 xmlns:xsi="http://www.w3.org/2001/XMLSchema-instance"
 xsi:schemaLocation="http://www.topografix.com/GPX/1/1 http://www.topografix.com/GPX/1/1/gpx.xsd">
<metadata>
 <time>2021-03-13T16:12:29Z</time>
 <bounds minlat="30.892300" minlon="34.847324" maxlat="30.991228" maxlon="34.985722"/>
</metadata>
<wpt lat="30.9275863" lon="34.9307239">
 <time>2021-03-13T15:49:59.424Z</time>
 <name>1-TATSPIT</name>
</wpt>
<wpt lat="30.8932161" lon="34.9161756">
 <time>2021-03-13T15:51:16.657Z</time>
 <name>2-TATSPIT2</name>
</wpt>
<wpt lat="30.9641284" lon="34.9650133">
 <time>2021-03-13T15:53:23.517Z</time>
 <name>3-TATSPIT3</name>
</wpt>
<trk>
 <name>MahtGadol_New_42 km.</name>
 <desc>MahtGadol_New_42 km.</desc>
<trkseg>
<trkpt lat="30.9893200" lon="34.9126000">
<ele>453.649994</ele>
<time>2021-03-13T18:12:29.961Z</time>
</trkpt>
<trkpt lat="30.9898700" lon="34.9127200">
<ele>456.520020</ele>
<time>2021-03-13T18:12:29.961Z</time>
</trkpt>
<trkpt lat="30.9899600" lon="34.9123100">
<ele>452.869995</ele>
<time>2021-03-13T18:12:29.961Z</time>
</trkpt>
<trkpt lat="30.9899700" lon="34.9122300">
<ele>452.269989</ele>
<time>2021-03-13T18:12:29.962Z</time>
</trkpt>
<trkpt lat="30.9899773" lon="34.9121912">
<ele>452.320007</ele>
<time>2021-03-13T18:12:29.962Z</time>
</trkpt>
<trkpt lat="30.9899819" lon="34.9121725">
<ele>455.039978</ele>
<time>2021-03-13T18:12:29.962Z</time>
</trkpt>
<trkpt lat="30.9901995" lon="34.9118640">
<ele>455.680023</ele>
<time>2021-03-13T18:12:29.962Z</time>
</trkpt>
<trkpt lat="30.9902386" lon="34.9118130">
<ele>456.369995</ele>
<time>2021-03-13T18:12:29.962Z</time>
</trkpt>
<trkpt lat="30.9902593" lon="34.9117728">
<ele>456.820007</ele>
<time>2021-03-13T18:12:29.962Z</time>
</trkpt>
<trkpt lat="30.9903007" lon="34.9116924">
<ele>457.809998</ele>
<time>2021-03-13T18:12:29.962Z</time>
</trkpt>
<trkpt lat="30.9902900" lon="34.9116500">
<ele>458.320007</ele>
<time>2021-03-13T18:12:29.962Z</time>
</trkpt>
<trkpt lat="30.9902900" lon="34.9116000">
<ele>458.470001</ele>
<time>2021-03-13T18:12:29.962Z</time>
</trkpt>
<trkpt lat="30.9902900" lon="34.9115500">
<ele>458.630005</ele>
<time>2021-03-13T18:12:29.962Z</time>
</trkpt>
<trkpt lat="30.9902800" lon="34.9115200">
<ele>458.559998</ele>
<time>2021-03-13T18:12:29.962Z</time>
</trkpt>
<trkpt lat="30.9902500" lon="34.9114300">
<ele>458.450012</ele>
<time>2021-03-13T18:12:29.962Z</time>
</trkpt>
<trkpt lat="30.9902000" lon="34.9113600">
<ele>458.130005</ele>
<time>2021-03-13T18:12:29.962Z</time>
</trkpt>
<trkpt lat="30.9901900" lon="34.9113400">
<ele>458.149994</ele>
<time>2021-03-13T18:12:29.962Z</time>
</trkpt>
<trkpt lat="30.9901700" lon="34.9112400">
<ele>458.639984</ele>
<time>2021-03-13T18:12:29.962Z</time>
</trkpt>
<trkpt lat="30.9901600" lon="34.9111700">
<ele>459.000000</ele>
<time>2021-03-13T18:12:29.962Z</time>
</trkpt>
<trkpt lat="30.9901500" lon="34.9110900">
<ele>458.989990</ele>
<time>2021-03-13T18:12:29.962Z</time>
</trkpt>
<trkpt lat="30.9901400" lon="34.9110300">
<ele>458.139984</ele>
<time>2021-03-13T18:12:29.962Z</time>
</trkpt>
<trkpt lat="30.9901400" lon="34.9109600">
<ele>457.380005</ele>
<time>2021-03-13T18:12:29.962Z</time>
</trkpt>
<trkpt lat="30.9901500" lon="34.9108300">
<ele>455.959991</ele>
<time>2021-03-13T18:12:29.962Z</time>
</trkpt>
<trkpt lat="30.9902100" lon="34.9106500">
<ele>453.679993</ele>
<time>2021-03-13T18:12:29.962Z</time>
</trkpt>
<trkpt lat="30.9902400" lon="34.9105700">
<ele>452.469971</ele>
<time>2021-03-13T18:12:29.962Z</time>
</trkpt>
<trkpt lat="30.9902700" lon="34.9104500">
<ele>452.440002</ele>
<time>2021-03-13T18:12:29.962Z</time>
</trkpt>
<trkpt lat="30.9902800" lon="34.9103500">
<ele>452.739990</ele>
<time>2021-03-13T18:12:29.963Z</time>
</trkpt>
<trkpt lat="30.9902900" lon="34.9102000">
<ele>453.499969</ele>
<time>2021-03-13T18:12:29.963Z</time>
</trkpt>
<trkpt lat="30.9902900" lon="34.9099600">
<ele>454.760010</ele>
<time>2021-03-13T18:12:29.963Z</time>
</trkpt>
<trkpt lat="30.9902900" lon="34.9098800">
<ele>454.459991</ele>
<time>2021-03-13T18:12:29.963Z</time>
</trkpt>
<trkpt lat="30.9902900" lon="34.9098100">
<ele>454.200012</ele>
<time>2021-03-13T18:12:29.963Z</time>
</trkpt>
<trkpt lat="30.9903000" lon="34.9097700">
<ele>453.950012</ele>
<time>2021-03-13T18:12:29.963Z</time>
</trkpt>
<trkpt lat="30.9902900" lon="34.9098000">
<ele>454.160004</ele>
<time>2021-03-13T18:12:29.963Z</time>
</trkpt>
<trkpt lat="30.9902900" lon="34.9098000">
<ele>454.160004</ele>
<time>2021-03-13T18:12:29.963Z</time>
</trkpt>
<trkpt lat="30.9903000" lon="34.9097700">
<ele>453.950012</ele>
<time>2021-03-13T18:12:29.963Z</time>
</trkpt>
<trkpt lat="30.9882300" lon="34.9084400">
<ele>463.959991</ele>
<time>2021-03-13T18:12:29.963Z</time>
</trkpt>
<trkpt lat="30.9875000" lon="34.9078700">
<ele>454.339996</ele>
<time>2021-03-13T18:12:29.963Z</time>
</trkpt>
<trkpt lat="30.9869700" lon="34.9072800">
<ele>456.279968</ele>
<time>2021-03-13T18:12:29.963Z</time>
</trkpt>
<trkpt lat="30.9867600" lon="34.9068900">
<ele>457.000000</ele>
<time>2021-03-13T18:12:29.963Z</time>
</trkpt>
<trkpt lat="30.9866500" lon="34.9067900">
<ele>457.560028</ele>
<time>2021-03-13T18:12:29.963Z</time>
</trkpt>
<trkpt lat="30.9865200" lon="34.9065800">
<ele>457.390015</ele>
<time>2021-03-13T18:12:29.963Z</time>
</trkpt>
<trkpt lat="30.9864000" lon="34.9065000">
<ele>457.349976</ele>
<time>2021-03-13T18:12:29.963Z</time>
</trkpt>
<trkpt lat="30.9863100" lon="34.9064100">
<ele>456.000000</ele>
<time>2021-03-13T18:12:29.963Z</time>
</trkpt>
<trkpt lat="30.9862200" lon="34.9063200">
<ele>454.170013</ele>
<time>2021-03-13T18:12:29.963Z</time>
</trkpt>
<trkpt lat="30.9860900" lon="34.9062300">
<ele>451.980011</ele>
<time>2021-03-13T18:12:29.963Z</time>
</trkpt>
<trkpt lat="30.9859900" lon="34.9062000">
<ele>452.369995</ele>
<time>2021-03-13T18:12:29.963Z</time>
</trkpt>
<trkpt lat="30.9858900" lon="34.9061800">
<ele>452.890015</ele>
<time>2021-03-13T18:12:29.963Z</time>
</trkpt>
<trkpt lat="30.9858900" lon="34.9061800">
<ele>452.890015</ele>
<time>2021-03-13T18:12:29.963Z</time>
</trkpt>
<trkpt lat="30.9858900" lon="34.9061800">
<ele>452.890015</ele>
<time>2021-03-13T18:12:29.963Z</time>
</trkpt>
<trkpt lat="30.9858800" lon="34.9061800">
<ele>452.949982</ele>
<time>2021-03-13T18:12:29.963Z</time>
</trkpt>
<trkpt lat="30.9857600" lon="34.9061500">
<ele>452.949982</ele>
<time>2021-03-13T18:12:29.963Z</time>
</trkpt>
<trkpt lat="30.9856900" lon="34.9061500">
<ele>452.769989</ele>
<time>2021-03-13T18:12:29.964Z</time>
</trkpt>
<trkpt lat="30.9855400" lon="34.9061700">
<ele>452.769989</ele>
<time>2021-03-13T18:12:29.964Z</time>
</trkpt>
<trkpt lat="30.9854300" lon="34.9061700">
<ele>453.700012</ele>
<time>2021-03-13T18:12:29.964Z</time>
</trkpt>
<trkpt lat="30.9853400" lon="34.9062000">
<ele>454.540009</ele>
<time>2021-03-13T18:12:29.964Z</time>
</trkpt>
<trkpt lat="30.9853000" lon="34.9062100">
<ele>454.850006</ele>
<time>2021-03-13T18:12:29.964Z</time>
</trkpt>
<trkpt lat="30.9852400" lon="34.9062100">
<ele>455.330017</ele>
<time>2021-03-13T18:12:29.964Z</time>
</trkpt>
<trkpt lat="30.9852400" lon="34.9062100">
<ele>455.330017</ele>
<time>2021-03-13T18:12:29.964Z</time>
</trkpt>
<trkpt lat="30.9853900" lon="34.9066400">
<ele>460.229980</ele>
<time>2021-03-13T18:12:29.964Z</time>
</trkpt>
<trkpt lat="30.9855200" lon="34.9072400">
<ele>469.000000</ele>
<time>2021-03-13T18:12:29.964Z</time>
</trkpt>
<trkpt lat="30.9865200" lon="34.9085600">
<ele>464.679993</ele>
<time>2021-03-13T18:12:29.964Z</time>
</trkpt>
<trkpt lat="30.9868300" lon="34.9087500">
<ele>462.350006</ele>
<time>2021-03-13T18:12:29.964Z</time>
</trkpt>
<trkpt lat="30.9870400" lon="34.9090400">
<ele>462.359985</ele>
<time>2021-03-13T18:12:29.964Z</time>
</trkpt>
<trkpt lat="30.9870000" lon="34.9090800">
<ele>464.470001</ele>
<time>2021-03-13T18:12:29.964Z</time>
</trkpt>
<trkpt lat="30.9870000" lon="34.9090800">
<ele>464.470001</ele>
<time>2021-03-13T18:12:29.964Z</time>
</trkpt>
<trkpt lat="30.9870000" lon="34.9090800">
<ele>464.470001</ele>
<time>2021-03-13T18:12:29.964Z</time>
</trkpt>
<trkpt lat="30.9867700" lon="34.9092900">
<ele>469.500000</ele>
<time>2021-03-13T18:12:29.964Z</time>
</trkpt>
<trkpt lat="30.9865500" lon="34.9093000">
<ele>467.790009</ele>
<time>2021-03-13T18:12:29.964Z</time>
</trkpt>
<trkpt lat="30.9863500" lon="34.9092100">
<ele>464.750000</ele>
<time>2021-03-13T18:12:29.964Z</time>
</trkpt>
<trkpt lat="30.9852100" lon="34.9086800">
<ele>450.179993</ele>
<time>2021-03-13T18:12:29.964Z</time>
</trkpt>
<trkpt lat="30.9849800" lon="34.9087400">
<ele>451.149994</ele>
<time>2021-03-13T18:12:29.964Z</time>
</trkpt>
<trkpt lat="30.9846700" lon="34.9088700">
<ele>450.299988</ele>
<time>2021-03-13T18:12:29.964Z</time>
</trkpt>
<trkpt lat="30.9839100" lon="34.9093600">
<ele>452.070007</ele>
<time>2021-03-13T18:12:29.964Z</time>
</trkpt>
<trkpt lat="30.9838400" lon="34.9094200">
<ele>451.690002</ele>
<time>2021-03-13T18:12:29.964Z</time>
</trkpt>
<trkpt lat="30.9834000" lon="34.9100200">
<ele>451.679993</ele>
<time>2021-03-13T18:12:29.964Z</time>
</trkpt>
<trkpt lat="30.9830300" lon="34.9104300">
<ele>449.800018</ele>
<time>2021-03-13T18:12:29.965Z</time>
</trkpt>
<trkpt lat="30.9830300" lon="34.9104300">
<ele>449.800018</ele>
<time>2021-03-13T18:12:29.965Z</time>
</trkpt>
<trkpt lat="30.9830300" lon="34.9104300">
<ele>449.800018</ele>
<time>2021-03-13T18:12:29.965Z</time>
</trkpt>
<trkpt lat="30.9826100" lon="34.9109100">
<ele>448.700012</ele>
<time>2021-03-13T18:12:29.965Z</time>
</trkpt>
<trkpt lat="30.9825300" lon="34.9109500">
<ele>449.000031</ele>
<time>2021-03-13T18:12:29.965Z</time>
</trkpt>
<trkpt lat="30.9823700" lon="34.9109900">
<ele>450.450012</ele>
<time>2021-03-13T18:12:29.965Z</time>
</trkpt>
<trkpt lat="30.9822800" lon="34.9111100">
<ele>450.830017</ele>
<time>2021-03-13T18:12:29.965Z</time>
</trkpt>
<trkpt lat="30.9820600" lon="34.9111400">
<ele>450.360016</ele>
<time>2021-03-13T18:12:29.965Z</time>
</trkpt>
<trkpt lat="30.9813800" lon="34.9111200">
<ele>449.900024</ele>
<time>2021-03-13T18:12:29.965Z</time>
</trkpt>
<trkpt lat="30.9812100" lon="34.9110800">
<ele>454.080017</ele>
<time>2021-03-13T18:12:29.965Z</time>
</trkpt>
<trkpt lat="30.9811300" lon="34.9110400">
<ele>456.490021</ele>
<time>2021-03-13T18:12:29.965Z</time>
</trkpt>
<trkpt lat="30.9802600" lon="34.9108000">
<ele>458.020020</ele>
<time>2021-03-13T18:12:29.965Z</time>
</trkpt>
<trkpt lat="30.9801600" lon="34.9108000">
<ele>458.330017</ele>
<time>2021-03-13T18:12:29.965Z</time>
</trkpt>
<trkpt lat="30.9797100" lon="34.9108600">
<ele>459.669983</ele>
<time>2021-03-13T18:12:29.965Z</time>
</trkpt>
<trkpt lat="30.9791200" lon="34.9111300">
<ele>461.190002</ele>
<time>2021-03-13T18:12:29.965Z</time>
</trkpt>
<trkpt lat="30.9788700" lon="34.9113000">
<ele>460.980011</ele>
<time>2021-03-13T18:12:29.965Z</time>
</trkpt>
<trkpt lat="30.9786200" lon="34.9119000">
<ele>455.690002</ele>
<time>2021-03-13T18:12:29.965Z</time>
</trkpt>
<trkpt lat="30.9783000" lon="34.9122900">
<ele>454.699982</ele>
<time>2021-03-13T18:12:29.965Z</time>
</trkpt>
<trkpt lat="30.9782500" lon="34.9123600">
<ele>457.430023</ele>
<time>2021-03-13T18:12:29.965Z</time>
</trkpt>
<trkpt lat="30.9782100" lon="34.9124000">
<ele>458.930023</ele>
<time>2021-03-13T18:12:29.965Z</time>
</trkpt>
<trkpt lat="30.9781400" lon="34.9124200">
<ele>460.479980</ele>
<time>2021-03-13T18:12:29.965Z</time>
</trkpt>
<trkpt lat="30.9780200" lon="34.9124100">
<ele>463.239990</ele>
<time>2021-03-13T18:12:29.965Z</time>
</trkpt>
<trkpt lat="30.9777700" lon="34.9123100">
<ele>470.530029</ele>
<time>2021-03-13T18:12:29.965Z</time>
</trkpt>
<trkpt lat="30.9773900" lon="34.9122500">
<ele>481.769989</ele>
<time>2021-03-13T18:12:29.965Z</time>
</trkpt>
<trkpt lat="30.9770600" lon="34.9121300">
<ele>482.430023</ele>
<time>2021-03-13T18:12:29.965Z</time>
</trkpt>
<trkpt lat="30.9769300" lon="34.9120800">
<ele>480.420013</ele>
<time>2021-03-13T18:12:29.966Z</time>
</trkpt>
<trkpt lat="30.9766200" lon="34.9118800">
<ele>476.910004</ele>
<time>2021-03-13T18:12:29.966Z</time>
</trkpt>
<trkpt lat="30.9761300" lon="34.9116900">
<ele>482.760010</ele>
<time>2021-03-13T18:12:29.966Z</time>
</trkpt>
<trkpt lat="30.9759500" lon="34.9116200">
<ele>481.360016</ele>
<time>2021-03-13T18:12:29.966Z</time>
</trkpt>
<trkpt lat="30.9759200" lon="34.9114800">
<ele>481.400024</ele>
<time>2021-03-13T18:12:29.966Z</time>
</trkpt>
<trkpt lat="30.9758800" lon="34.9113500">
<ele>481.100006</ele>
<time>2021-03-13T18:12:29.966Z</time>
</trkpt>
<trkpt lat="30.9758400" lon="34.9112800">
<ele>480.619995</ele>
<time>2021-03-13T18:12:29.966Z</time>
</trkpt>
<trkpt lat="30.9757400" lon="34.9111400">
<ele>479.430023</ele>
<time>2021-03-13T18:12:29.966Z</time>
</trkpt>
<trkpt lat="30.9757400" lon="34.9111400">
<ele>479.430023</ele>
<time>2021-03-13T18:12:29.966Z</time>
</trkpt>
<trkpt lat="30.9757400" lon="34.9111400">
<ele>479.430023</ele>
<time>2021-03-13T18:12:29.966Z</time>
</trkpt>
<trkpt lat="30.9756900" lon="34.9110800">
<ele>478.360016</ele>
<time>2021-03-13T18:12:29.966Z</time>
</trkpt>
<trkpt lat="30.9755300" lon="34.9109000">
<ele>474.819977</ele>
<time>2021-03-13T18:12:29.966Z</time>
</trkpt>
<trkpt lat="30.9753300" lon="34.9107400">
<ele>471.890015</ele>
<time>2021-03-13T18:12:29.966Z</time>
</trkpt>
<trkpt lat="30.9751200" lon="34.9106000">
<ele>471.090027</ele>
<time>2021-03-13T18:12:29.966Z</time>
</trkpt>
<trkpt lat="30.9750400" lon="34.9105400">
<ele>472.010010</ele>
<time>2021-03-13T18:12:29.966Z</time>
</trkpt>
<trkpt lat="30.9747600" lon="34.9103200">
<ele>467.159973</ele>
<time>2021-03-13T18:12:29.966Z</time>
</trkpt>
<trkpt lat="30.9746300" lon="34.9102700">
<ele>464.979980</ele>
<time>2021-03-13T18:12:29.966Z</time>
</trkpt>
<trkpt lat="30.9745400" lon="34.9101900">
<ele>463.720001</ele>
<time>2021-03-13T18:12:29.966Z</time>
</trkpt>
<trkpt lat="30.9744800" lon="34.9099400">
<ele>463.170013</ele>
<time>2021-03-13T18:12:29.966Z</time>
</trkpt>
<trkpt lat="30.9743600" lon="34.9100000">
<ele>462.610016</ele>
<time>2021-03-13T18:12:29.966Z</time>
</trkpt>
<trkpt lat="30.9740600" lon="34.9101300">
<ele>464.419983</ele>
<time>2021-03-13T18:12:29.966Z</time>
</trkpt>
<trkpt lat="30.9735100" lon="34.9105000">
<ele>470.470001</ele>
<time>2021-03-13T18:12:29.966Z</time>
</trkpt>
<trkpt lat="30.9734400" lon="34.9104600">
<ele>471.479980</ele>
<time>2021-03-13T18:12:29.966Z</time>
</trkpt>
<trkpt lat="30.9733500" lon="34.9102900">
<ele>474.269989</ele>
<time>2021-03-13T18:12:29.966Z</time>
</trkpt>
<trkpt lat="30.9731000" lon="34.9097300">
<ele>479.780029</ele>
<time>2021-03-13T18:12:29.966Z</time>
</trkpt>
<trkpt lat="30.9728600" lon="34.9093100">
<ele>481.339996</ele>
<time>2021-03-13T18:12:29.966Z</time>
</trkpt>
<trkpt lat="30.9725200" lon="34.9085100">
<ele>481.759979</ele>
<time>2021-03-13T18:12:29.967Z</time>
</trkpt>
<trkpt lat="30.9723200" lon="34.9082500">
<ele>484.089996</ele>
<time>2021-03-13T18:12:29.967Z</time>
</trkpt>
<trkpt lat="30.9721800" lon="34.9081100">
<ele>486.559998</ele>
<time>2021-03-13T18:12:29.967Z</time>
</trkpt>
<trkpt lat="30.9716300" lon="34.9076200">
<ele>489.110016</ele>
<time>2021-03-13T18:12:29.967Z</time>
</trkpt>
<trkpt lat="30.9708600" lon="34.9069100">
<ele>484.970001</ele>
<time>2021-03-13T18:12:29.967Z</time>
</trkpt>
<trkpt lat="30.9703800" lon="34.9066100">
<ele>486.010010</ele>
<time>2021-03-13T18:12:29.967Z</time>
</trkpt>
<trkpt lat="30.9702900" lon="34.9065300">
<ele>485.510010</ele>
<time>2021-03-13T18:12:29.967Z</time>
</trkpt>
<trkpt lat="30.9696800" lon="34.9059200">
<ele>477.779999</ele>
<time>2021-03-13T18:12:29.967Z</time>
</trkpt>
<trkpt lat="30.9692900" lon="34.9056000">
<ele>470.790009</ele>
<time>2021-03-13T18:12:29.967Z</time>
</trkpt>
<trkpt lat="30.9691700" lon="34.9054600">
<ele>468.359985</ele>
<time>2021-03-13T18:12:29.967Z</time>
</trkpt>
<trkpt lat="30.9687900" lon="34.9050900">
<ele>472.169983</ele>
<time>2021-03-13T18:12:29.967Z</time>
</trkpt>
<trkpt lat="30.9683200" lon="34.9047000">
<ele>477.800018</ele>
<time>2021-03-13T18:12:29.967Z</time>
</trkpt>
<trkpt lat="30.9681100" lon="34.9045700">
<ele>475.840027</ele>
<time>2021-03-13T18:12:29.967Z</time>
</trkpt>
<trkpt lat="30.9678600" lon="34.9044400">
<ele>475.049988</ele>
<time>2021-03-13T18:12:29.967Z</time>
</trkpt>
<trkpt lat="30.9678000" lon="34.9044200">
<ele>475.419983</ele>
<time>2021-03-13T18:12:29.967Z</time>
</trkpt>
<trkpt lat="30.9676700" lon="34.9044600">
<ele>476.260010</ele>
<time>2021-03-13T18:12:29.967Z</time>
</trkpt>
<trkpt lat="30.9674100" lon="34.9046200">
<ele>477.110016</ele>
<time>2021-03-13T18:12:29.967Z</time>
</trkpt>
<trkpt lat="30.9674100" lon="34.9046200">
<ele>477.110016</ele>
<time>2021-03-13T18:12:29.967Z</time>
</trkpt>
<trkpt lat="30.9669400" lon="34.9048000">
<ele>476.209991</ele>
<time>2021-03-13T18:12:29.967Z</time>
</trkpt>
<trkpt lat="30.9666600" lon="34.9050000">
<ele>483.139984</ele>
<time>2021-03-13T18:12:29.967Z</time>
</trkpt>
<trkpt lat="30.9664000" lon="34.9053600">
<ele>489.899994</ele>
<time>2021-03-13T18:12:29.967Z</time>
</trkpt>
<trkpt lat="30.9658000" lon="34.9056900">
<ele>487.579987</ele>
<time>2021-03-13T18:12:29.967Z</time>
</trkpt>
<trkpt lat="30.9655900" lon="34.9059200">
<ele>483.230011</ele>
<time>2021-03-13T18:12:29.967Z</time>
</trkpt>
<trkpt lat="30.9649700" lon="34.9064500">
<ele>483.230011</ele>
<time>2021-03-13T18:12:29.967Z</time>
</trkpt>
<trkpt lat="30.9649000" lon="34.9065900">
<ele>481.470001</ele>
<time>2021-03-13T18:12:29.967Z</time>
</trkpt>
<trkpt lat="30.9645800" lon="34.9068900">
<ele>478.899994</ele>
<time>2021-03-13T18:12:29.968Z</time>
</trkpt>
<trkpt lat="30.9644100" lon="34.9072100">
<ele>479.380005</ele>
<time>2021-03-13T18:12:29.968Z</time>
</trkpt>
<trkpt lat="30.9643600" lon="34.9075400">
<ele>478.100006</ele>
<time>2021-03-13T18:12:29.968Z</time>
</trkpt>
<trkpt lat="30.9643100" lon="34.9075800">
<ele>477.460022</ele>
<time>2021-03-13T18:12:29.968Z</time>
</trkpt>
<trkpt lat="30.9638200" lon="34.9074700">
<ele>473.899994</ele>
<time>2021-03-13T18:12:29.968Z</time>
</trkpt>
<trkpt lat="30.9633900" lon="34.9074800">
<ele>479.730011</ele>
<time>2021-03-13T18:12:29.968Z</time>
</trkpt>
<trkpt lat="30.9627300" lon="34.9070900">
<ele>482.399994</ele>
<time>2021-03-13T18:12:29.968Z</time>
</trkpt>
<trkpt lat="30.9623700" lon="34.9070100">
<ele>487.189972</ele>
<time>2021-03-13T18:12:29.968Z</time>
</trkpt>
<trkpt lat="30.9621600" lon="34.9070600">
<ele>490.359985</ele>
<time>2021-03-13T18:12:29.968Z</time>
</trkpt>
<trkpt lat="30.9620700" lon="34.9072000">
<ele>491.019989</ele>
<time>2021-03-13T18:12:29.968Z</time>
</trkpt>
<trkpt lat="30.9619200" lon="34.9073300">
<ele>490.699982</ele>
<time>2021-03-13T18:12:29.968Z</time>
</trkpt>
<trkpt lat="30.9615900" lon="34.9072900">
<ele>491.139984</ele>
<time>2021-03-13T18:12:29.968Z</time>
</trkpt>
<trkpt lat="30.9606800" lon="34.9075400">
<ele>485.179993</ele>
<time>2021-03-13T18:12:29.968Z</time>
</trkpt>
<trkpt lat="30.9601600" lon="34.9077500">
<ele>486.580017</ele>
<time>2021-03-13T18:12:29.968Z</time>
</trkpt>
<trkpt lat="30.9589400" lon="34.9080100">
<ele>499.239990</ele>
<time>2021-03-13T18:12:29.968Z</time>
</trkpt>
<trkpt lat="30.9585800" lon="34.9081500">
<ele>508.429993</ele>
<time>2021-03-13T18:12:29.968Z</time>
</trkpt>
<trkpt lat="30.9581600" lon="34.9082100">
<ele>511.460022</ele>
<time>2021-03-13T18:12:29.968Z</time>
</trkpt>
<trkpt lat="30.9577900" lon="34.9083300">
<ele>509.069977</ele>
<time>2021-03-13T18:12:29.968Z</time>
</trkpt>
<trkpt lat="30.9572300" lon="34.9083800">
<ele>513.280029</ele>
<time>2021-03-13T18:12:29.968Z</time>
</trkpt>
<trkpt lat="30.9567400" lon="34.9083400">
<ele>521.830017</ele>
<time>2021-03-13T18:12:29.968Z</time>
</trkpt>
<trkpt lat="30.9563700" lon="34.9083800">
<ele>526.119995</ele>
<time>2021-03-13T18:12:29.968Z</time>
</trkpt>
<trkpt lat="30.9561200" lon="34.9083200">
<ele>528.179993</ele>
<time>2021-03-13T18:12:29.968Z</time>
</trkpt>
<trkpt lat="30.9553300" lon="34.9083500">
<ele>538.710022</ele>
<time>2021-03-13T18:12:29.968Z</time>
</trkpt>
<trkpt lat="30.9550500" lon="34.9084800">
<ele>544.200012</ele>
<time>2021-03-13T18:12:29.968Z</time>
</trkpt>
<trkpt lat="30.9549100" lon="34.9086100">
<ele>546.340027</ele>
<time>2021-03-13T18:12:29.968Z</time>
</trkpt>
<trkpt lat="30.9546600" lon="34.9086600">
<ele>546.210022</ele>
<time>2021-03-13T18:12:29.968Z</time>
</trkpt>
<trkpt lat="30.9544100" lon="34.9087600">
<ele>548.549988</ele>
<time>2021-03-13T18:12:29.969Z</time>
</trkpt>
<trkpt lat="30.9538500" lon="34.9086600">
<ele>556.640015</ele>
<time>2021-03-13T18:12:29.969Z</time>
</trkpt>
<trkpt lat="30.9533800" lon="34.9087800">
<ele>551.270020</ele>
<time>2021-03-13T18:12:29.969Z</time>
</trkpt>
<trkpt lat="30.9530700" lon="34.9090200">
<ele>544.609985</ele>
<time>2021-03-13T18:12:29.969Z</time>
</trkpt>
<trkpt lat="30.9526200" lon="34.9092200">
<ele>543.080017</ele>
<time>2021-03-13T18:12:29.969Z</time>
</trkpt>
<trkpt lat="30.9521300" lon="34.9092500">
<ele>529.380005</ele>
<time>2021-03-13T18:12:29.969Z</time>
</trkpt>
<trkpt lat="30.9515200" lon="34.9094000">
<ele>518.690002</ele>
<time>2021-03-13T18:12:29.969Z</time>
</trkpt>
<trkpt lat="30.9508100" lon="34.9092400">
<ele>545.440002</ele>
<time>2021-03-13T18:12:29.969Z</time>
</trkpt>
<trkpt lat="30.9506800" lon="34.9092600">
<ele>547.779968</ele>
<time>2021-03-13T18:12:29.969Z</time>
</trkpt>
<trkpt lat="30.9505300" lon="34.9093600">
<ele>547.059998</ele>
<time>2021-03-13T18:12:29.969Z</time>
</trkpt>
<trkpt lat="30.9498400" lon="34.9094500">
<ele>552.380005</ele>
<time>2021-03-13T18:12:29.969Z</time>
</trkpt>
<trkpt lat="30.9494700" lon="34.9096400">
<ele>557.959961</ele>
<time>2021-03-13T18:12:29.969Z</time>
</trkpt>
<trkpt lat="30.9494300" lon="34.9097300">
<ele>559.130005</ele>
<time>2021-03-13T18:12:29.969Z</time>
</trkpt>
<trkpt lat="30.9494300" lon="34.9097300">
<ele>559.130005</ele>
<time>2021-03-13T18:12:29.969Z</time>
</trkpt>
<trkpt lat="30.9494300" lon="34.9097300">
<ele>559.130005</ele>
<time>2021-03-13T18:12:29.969Z</time>
</trkpt>
<trkpt lat="30.9492200" lon="34.9102200">
<ele>562.700012</ele>
<time>2021-03-13T18:12:29.969Z</time>
</trkpt>
<trkpt lat="30.9489900" lon="34.9104900">
<ele>564.000000</ele>
<time>2021-03-13T18:12:29.969Z</time>
</trkpt>
<trkpt lat="30.9484900" lon="34.9107600">
<ele>563.059998</ele>
<time>2021-03-13T18:12:29.969Z</time>
</trkpt>
<trkpt lat="30.9474800" lon="34.9110600">
<ele>552.570007</ele>
<time>2021-03-13T18:12:29.969Z</time>
</trkpt>
<trkpt lat="30.9472000" lon="34.9113200">
<ele>549.419983</ele>
<time>2021-03-13T18:12:29.969Z</time>
</trkpt>
<trkpt lat="30.9470300" lon="34.9113700">
<ele>553.510010</ele>
<time>2021-03-13T18:12:29.969Z</time>
</trkpt>
<trkpt lat="30.9466600" lon="34.9116300">
<ele>564.739990</ele>
<time>2021-03-13T18:12:29.969Z</time>
</trkpt>
<trkpt lat="30.9459300" lon="34.9117500">
<ele>567.219971</ele>
<time>2021-03-13T18:12:29.969Z</time>
</trkpt>
<trkpt lat="30.9456100" lon="34.9119100">
<ele>573.380005</ele>
<time>2021-03-13T18:12:29.969Z</time>
</trkpt>
<trkpt lat="30.9453900" lon="34.9120000">
<ele>578.820007</ele>
<time>2021-03-13T18:12:29.969Z</time>
</trkpt>
<trkpt lat="30.9452000" lon="34.9119500">
<ele>580.070007</ele>
<time>2021-03-13T18:12:29.969Z</time>
</trkpt>
<trkpt lat="30.9450300" lon="34.9117200">
<ele>576.770020</ele>
<time>2021-03-13T18:12:29.970Z</time>
</trkpt>
<trkpt lat="30.9445800" lon="34.9112200">
<ele>566.260010</ele>
<time>2021-03-13T18:12:29.970Z</time>
</trkpt>
<trkpt lat="30.9443700" lon="34.9110900">
<ele>565.539978</ele>
<time>2021-03-13T18:12:29.970Z</time>
</trkpt>
<trkpt lat="30.9441900" lon="34.9113000">
<ele>569.160034</ele>
<time>2021-03-13T18:12:29.970Z</time>
</trkpt>
<trkpt lat="30.9440500" lon="34.9116300">
<ele>571.289978</ele>
<time>2021-03-13T18:12:29.970Z</time>
</trkpt>
<trkpt lat="30.9439100" lon="34.9118100">
<ele>572.849976</ele>
<time>2021-03-13T18:12:29.970Z</time>
</trkpt>
<trkpt lat="30.9437600" lon="34.9123800">
<ele>575.869995</ele>
<time>2021-03-13T18:12:29.970Z</time>
</trkpt>
<trkpt lat="30.9435300" lon="34.9126900">
<ele>571.239990</ele>
<time>2021-03-13T18:12:29.970Z</time>
</trkpt>
<trkpt lat="30.9424900" lon="34.9134300">
<ele>568.000000</ele>
<time>2021-03-13T18:12:29.970Z</time>
</trkpt>
<trkpt lat="30.9418500" lon="34.9142300">
<ele>564.260010</ele>
<time>2021-03-13T18:12:29.970Z</time>
</trkpt>
<trkpt lat="30.9412800" lon="34.9148000">
<ele>556.669983</ele>
<time>2021-03-13T18:12:29.970Z</time>
</trkpt>
<trkpt lat="30.9411600" lon="34.9150000">
<ele>555.529968</ele>
<time>2021-03-13T18:12:29.970Z</time>
</trkpt>
<trkpt lat="30.9409200" lon="34.9151500">
<ele>557.200012</ele>
<time>2021-03-13T18:12:29.970Z</time>
</trkpt>
<trkpt lat="30.9407500" lon="34.9153000">
<ele>557.690002</ele>
<time>2021-03-13T18:12:29.970Z</time>
</trkpt>
<trkpt lat="30.9404500" lon="34.9157300">
<ele>559.739990</ele>
<time>2021-03-13T18:12:29.970Z</time>
</trkpt>
<trkpt lat="30.9399600" lon="34.9162500">
<ele>568.720032</ele>
<time>2021-03-13T18:12:29.970Z</time>
</trkpt>
<trkpt lat="30.9398800" lon="34.9164800">
<ele>571.510010</ele>
<time>2021-03-13T18:12:29.970Z</time>
</trkpt>
<trkpt lat="30.9397700" lon="34.9164900">
<ele>572.400024</ele>
<time>2021-03-13T18:12:29.970Z</time>
</trkpt>
<trkpt lat="30.9394100" lon="34.9169400">
<ele>574.380005</ele>
<time>2021-03-13T18:12:29.970Z</time>
</trkpt>
<trkpt lat="30.9384800" lon="34.9177100">
<ele>557.880005</ele>
<time>2021-03-13T18:12:29.970Z</time>
</trkpt>
<trkpt lat="30.9383400" lon="34.9179200">
<ele>557.720032</ele>
<time>2021-03-13T18:12:29.970Z</time>
</trkpt>
<trkpt lat="30.9380500" lon="34.9182000">
<ele>559.250000</ele>
<time>2021-03-13T18:12:29.970Z</time>
</trkpt>
<trkpt lat="30.9377600" lon="34.9186800">
<ele>569.469971</ele>
<time>2021-03-13T18:12:29.970Z</time>
</trkpt>
<trkpt lat="30.9375800" lon="34.9193400">
<ele>573.719971</ele>
<time>2021-03-13T18:12:29.970Z</time>
</trkpt>
<trkpt lat="30.9373300" lon="34.9197700">
<ele>573.500000</ele>
<time>2021-03-13T18:12:29.970Z</time>
</trkpt>
<trkpt lat="30.9370100" lon="34.9201100">
<ele>572.119995</ele>
<time>2021-03-13T18:12:29.970Z</time>
</trkpt>
<trkpt lat="30.9367800" lon="34.9202100">
<ele>572.369995</ele>
<time>2021-03-13T18:12:29.971Z</time>
</trkpt>
<trkpt lat="30.9362200" lon="34.9206800">
<ele>574.320007</ele>
<time>2021-03-13T18:12:29.971Z</time>
</trkpt>
<trkpt lat="30.9359400" lon="34.9209900">
<ele>577.600037</ele>
<time>2021-03-13T18:12:29.971Z</time>
</trkpt>
<trkpt lat="30.9354300" lon="34.9212400">
<ele>580.799988</ele>
<time>2021-03-13T18:12:29.971Z</time>
</trkpt>
<trkpt lat="30.9349200" lon="34.9216300">
<ele>583.429993</ele>
<time>2021-03-13T18:12:29.971Z</time>
</trkpt>
<trkpt lat="30.9346600" lon="34.9215500">
<ele>575.200012</ele>
<time>2021-03-13T18:12:29.971Z</time>
</trkpt>
<trkpt lat="30.9344500" lon="34.9217200">
<ele>575.440002</ele>
<time>2021-03-13T18:12:29.971Z</time>
</trkpt>
<trkpt lat="30.9335700" lon="34.9218200">
<ele>573.469971</ele>
<time>2021-03-13T18:12:29.971Z</time>
</trkpt>
<trkpt lat="30.9329900" lon="34.9220200">
<ele>577.840027</ele>
<time>2021-03-13T18:12:29.971Z</time>
</trkpt>
<trkpt lat="30.9325800" lon="34.9223900">
<ele>584.210022</ele>
<time>2021-03-13T18:12:29.971Z</time>
</trkpt>
<trkpt lat="30.9322300" lon="34.9224700">
<ele>577.020020</ele>
<time>2021-03-13T18:12:29.971Z</time>
</trkpt>
<trkpt lat="30.9313600" lon="34.9228500">
<ele>581.080017</ele>
<time>2021-03-13T18:12:29.971Z</time>
</trkpt>
<trkpt lat="30.9310200" lon="34.9229400">
<ele>585.260010</ele>
<time>2021-03-13T18:12:29.971Z</time>
</trkpt>
<trkpt lat="30.9308100" lon="34.9228700">
<ele>587.190002</ele>
<time>2021-03-13T18:12:29.971Z</time>
</trkpt>
<trkpt lat="30.9306900" lon="34.9230500">
<ele>590.419983</ele>
<time>2021-03-13T18:12:29.971Z</time>
</trkpt>
<trkpt lat="30.9303800" lon="34.9232600">
<ele>591.320007</ele>
<time>2021-03-13T18:12:29.971Z</time>
</trkpt>
<trkpt lat="30.9302900" lon="34.9232800">
<ele>590.400024</ele>
<time>2021-03-13T18:12:29.971Z</time>
</trkpt>
<trkpt lat="30.9300700" lon="34.9233200">
<ele>585.750000</ele>
<time>2021-03-13T18:12:29.971Z</time>
</trkpt>
<trkpt lat="30.9299500" lon="34.9232800">
<ele>584.179993</ele>
<time>2021-03-13T18:12:29.971Z</time>
</trkpt>
<trkpt lat="30.9298300" lon="34.9233000">
<ele>583.880005</ele>
<time>2021-03-13T18:12:29.971Z</time>
</trkpt>
<trkpt lat="30.9297900" lon="34.9233700">
<ele>583.570007</ele>
<time>2021-03-13T18:12:29.971Z</time>
</trkpt>
<trkpt lat="30.9292400" lon="34.9237200">
<ele>585.600037</ele>
<time>2021-03-13T18:12:29.971Z</time>
</trkpt>
<trkpt lat="30.9291800" lon="34.9238200">
<ele>585.820007</ele>
<time>2021-03-13T18:12:29.971Z</time>
</trkpt>
<trkpt lat="30.9290600" lon="34.9243600">
<ele>589.790039</ele>
<time>2021-03-13T18:12:29.971Z</time>
</trkpt>
<trkpt lat="30.9289500" lon="34.9251200">
<ele>595.419983</ele>
<time>2021-03-13T18:12:29.971Z</time>
</trkpt>
<trkpt lat="30.9286900" lon="34.9255100">
<ele>591.020020</ele>
<time>2021-03-13T18:12:29.971Z</time>
</trkpt>
<trkpt lat="30.9286200" lon="34.9256900">
<ele>589.799988</ele>
<time>2021-03-13T18:12:29.972Z</time>
</trkpt>
<trkpt lat="30.9282700" lon="34.9260000">
<ele>588.980042</ele>
<time>2021-03-13T18:12:29.972Z</time>
</trkpt>
<trkpt lat="30.9282400" lon="34.9261000">
<ele>589.549988</ele>
<time>2021-03-13T18:12:29.972Z</time>
</trkpt>
<trkpt lat="30.9282800" lon="34.9263300">
<ele>592.900024</ele>
<time>2021-03-13T18:12:29.972Z</time>
</trkpt>
<trkpt lat="30.9281300" lon="34.9273400">
<ele>605.229980</ele>
<time>2021-03-13T18:12:29.972Z</time>
</trkpt>
<trkpt lat="30.9281000" lon="34.9280900">
<ele>607.869995</ele>
<time>2021-03-13T18:12:29.972Z</time>
</trkpt>
<trkpt lat="30.9278900" lon="34.9290100">
<ele>613.760010</ele>
<time>2021-03-13T18:12:29.972Z</time>
</trkpt>
<trkpt lat="30.9277700" lon="34.9293500">
<ele>615.590027</ele>
<time>2021-03-13T18:12:29.972Z</time>
</trkpt>
<trkpt lat="30.9277500" lon="34.9298800">
<ele>619.059998</ele>
<time>2021-03-13T18:12:29.972Z</time>
</trkpt>
<trkpt lat="30.9275900" lon="34.9307300">
<ele>628.609985</ele>
<time>2021-03-13T18:12:29.972Z</time>
</trkpt>
<trkpt lat="30.9275900" lon="34.9307300">
<ele>628.609985</ele>
<time>2021-03-13T18:12:29.972Z</time>
</trkpt>
<trkpt lat="30.9275900" lon="34.9307300">
<ele>628.609985</ele>
<time>2021-03-13T18:12:29.972Z</time>
</trkpt>
<trkpt lat="30.9277500" lon="34.9298800">
<ele>619.059998</ele>
<time>2021-03-13T18:12:29.972Z</time>
</trkpt>
<trkpt lat="30.9277700" lon="34.9293500">
<ele>615.590027</ele>
<time>2021-03-13T18:12:29.972Z</time>
</trkpt>
<trkpt lat="30.9278900" lon="34.9290100">
<ele>613.760010</ele>
<time>2021-03-13T18:12:29.972Z</time>
</trkpt>
<trkpt lat="30.9281000" lon="34.9280900">
<ele>607.869995</ele>
<time>2021-03-13T18:12:29.972Z</time>
</trkpt>
<trkpt lat="30.9281300" lon="34.9273400">
<ele>605.229980</ele>
<time>2021-03-13T18:12:29.972Z</time>
</trkpt>
<trkpt lat="30.9282800" lon="34.9263300">
<ele>592.900024</ele>
<time>2021-03-13T18:12:29.972Z</time>
</trkpt>
<trkpt lat="30.9282400" lon="34.9261000">
<ele>589.549988</ele>
<time>2021-03-13T18:12:29.972Z</time>
</trkpt>
<trkpt lat="30.9282700" lon="34.9260000">
<ele>588.980042</ele>
<time>2021-03-13T18:12:29.973Z</time>
</trkpt>
<trkpt lat="30.9286200" lon="34.9256900">
<ele>589.799988</ele>
<time>2021-03-13T18:12:29.973Z</time>
</trkpt>
<trkpt lat="30.9286900" lon="34.9255100">
<ele>591.020020</ele>
<time>2021-03-13T18:12:29.973Z</time>
</trkpt>
<trkpt lat="30.9289500" lon="34.9251200">
<ele>595.419983</ele>
<time>2021-03-13T18:12:29.973Z</time>
</trkpt>
<trkpt lat="30.9290600" lon="34.9243600">
<ele>589.790039</ele>
<time>2021-03-13T18:12:29.973Z</time>
</trkpt>
<trkpt lat="30.9291800" lon="34.9238200">
<ele>585.820007</ele>
<time>2021-03-13T18:12:29.973Z</time>
</trkpt>
<trkpt lat="30.9292400" lon="34.9237200">
<ele>585.600037</ele>
<time>2021-03-13T18:12:29.973Z</time>
</trkpt>
<trkpt lat="30.9297900" lon="34.9233700">
<ele>583.570007</ele>
<time>2021-03-13T18:12:29.973Z</time>
</trkpt>
<trkpt lat="30.9298300" lon="34.9233000">
<ele>583.880005</ele>
<time>2021-03-13T18:12:29.973Z</time>
</trkpt>
<trkpt lat="30.9299500" lon="34.9232800">
<ele>584.179993</ele>
<time>2021-03-13T18:12:29.973Z</time>
</trkpt>
<trkpt lat="30.9300700" lon="34.9233200">
<ele>585.750000</ele>
<time>2021-03-13T18:12:29.973Z</time>
</trkpt>
<trkpt lat="30.9302900" lon="34.9232800">
<ele>590.400024</ele>
<time>2021-03-13T18:12:29.973Z</time>
</trkpt>
<trkpt lat="30.9303800" lon="34.9232600">
<ele>591.320007</ele>
<time>2021-03-13T18:12:29.973Z</time>
</trkpt>
<trkpt lat="30.9306900" lon="34.9230500">
<ele>590.419983</ele>
<time>2021-03-13T18:12:29.973Z</time>
</trkpt>
<trkpt lat="30.9308100" lon="34.9228700">
<ele>587.190002</ele>
<time>2021-03-13T18:12:29.973Z</time>
</trkpt>
<trkpt lat="30.9305800" lon="34.9227800">
<ele>588.659973</ele>
<time>2021-03-13T18:12:29.973Z</time>
</trkpt>
<trkpt lat="30.9301200" lon="34.9227800">
<ele>590.669983</ele>
<time>2021-03-13T18:12:29.973Z</time>
</trkpt>
<trkpt lat="30.9295800" lon="34.9224500">
<ele>607.839966</ele>
<time>2021-03-13T18:12:29.973Z</time>
</trkpt>
<trkpt lat="30.9293400" lon="34.9224200">
<ele>609.599976</ele>
<time>2021-03-13T18:12:29.973Z</time>
</trkpt>
<trkpt lat="30.9291100" lon="34.9222900">
<ele>611.679993</ele>
<time>2021-03-13T18:12:29.973Z</time>
</trkpt>
<trkpt lat="30.9288200" lon="34.9220600">
<ele>616.429993</ele>
<time>2021-03-13T18:12:29.973Z</time>
</trkpt>
<trkpt lat="30.9285100" lon="34.9219000">
<ele>623.080017</ele>
<time>2021-03-13T18:12:29.973Z</time>
</trkpt>
<trkpt lat="30.9284800" lon="34.9218000">
<ele>624.150024</ele>
<time>2021-03-13T18:12:29.973Z</time>
</trkpt>
<trkpt lat="30.9284800" lon="34.9218000">
<ele>624.150024</ele>
<time>2021-03-13T18:12:29.973Z</time>
</trkpt>
<trkpt lat="30.9284800" lon="34.9218000">
<ele>624.150024</ele>
<time>2021-03-13T18:12:29.974Z</time>
</trkpt>
<trkpt lat="30.9283400" lon="34.9213700">
<ele>628.999939</ele>
<time>2021-03-13T18:12:29.974Z</time>
</trkpt>
<trkpt lat="30.9279800" lon="34.9211500">
<ele>623.270020</ele>
<time>2021-03-13T18:12:29.974Z</time>
</trkpt>
<trkpt lat="30.9279200" lon="34.9210600">
<ele>621.869995</ele>
<time>2021-03-13T18:12:29.974Z</time>
</trkpt>
<trkpt lat="30.9278800" lon="34.9209600">
<ele>620.780029</ele>
<time>2021-03-13T18:12:29.974Z</time>
</trkpt>
<trkpt lat="30.9279500" lon="34.9208100">
<ele>621.640015</ele>
<time>2021-03-13T18:12:29.974Z</time>
</trkpt>
<trkpt lat="30.9280300" lon="34.9202000">
<ele>623.820007</ele>
<time>2021-03-13T18:12:29.974Z</time>
</trkpt>
<trkpt lat="30.9278400" lon="34.9196900">
<ele>619.070007</ele>
<time>2021-03-13T18:12:29.974Z</time>
</trkpt>
<trkpt lat="30.9279100" lon="34.9192000">
<ele>619.280029</ele>
<time>2021-03-13T18:12:29.974Z</time>
</trkpt>
<trkpt lat="30.9278900" lon="34.9190500">
<ele>619.229980</ele>
<time>2021-03-13T18:12:29.974Z</time>
</trkpt>
<trkpt lat="30.9276200" lon="34.9188100">
<ele>611.950012</ele>
<time>2021-03-13T18:12:29.974Z</time>
</trkpt>
<trkpt lat="30.9275100" lon="34.9184900">
<ele>607.830017</ele>
<time>2021-03-13T18:12:29.974Z</time>
</trkpt>
<trkpt lat="30.9275900" lon="34.9181300">
<ele>612.549988</ele>
<time>2021-03-13T18:12:29.974Z</time>
</trkpt>
<trkpt lat="30.9275100" lon="34.9176700">
<ele>608.859985</ele>
<time>2021-03-13T18:12:29.974Z</time>
</trkpt>
<trkpt lat="30.9276000" lon="34.9172700">
<ele>606.250000</ele>
<time>2021-03-13T18:12:29.974Z</time>
</trkpt>
<trkpt lat="30.9276100" lon="34.9170000">
<ele>604.489990</ele>
<time>2021-03-13T18:12:29.974Z</time>
</trkpt>
<trkpt lat="30.9275000" lon="34.9163700">
<ele>596.000000</ele>
<time>2021-03-13T18:12:29.974Z</time>
</trkpt>
<trkpt lat="30.9273000" lon="34.9158600">
<ele>592.219971</ele>
<time>2021-03-13T18:12:29.974Z</time>
</trkpt>
<trkpt lat="30.9272300" lon="34.9158200">
<ele>591.010010</ele>
<time>2021-03-13T18:12:29.974Z</time>
</trkpt>
<trkpt lat="30.9271800" lon="34.9158600">
<ele>591.659973</ele>
<time>2021-03-13T18:12:29.974Z</time>
</trkpt>
<trkpt lat="30.9271300" lon="34.9161000">
<ele>592.329956</ele>
<time>2021-03-13T18:12:29.974Z</time>
</trkpt>
<trkpt lat="30.9271000" lon="34.9162300">
<ele>592.010010</ele>
<time>2021-03-13T18:12:29.974Z</time>
</trkpt>
<trkpt lat="30.9271400" lon="34.9166200">
<ele>589.140015</ele>
<time>2021-03-13T18:12:29.975Z</time>
</trkpt>
<trkpt lat="30.9271100" lon="34.9168600">
<ele>588.600037</ele>
<time>2021-03-13T18:12:29.975Z</time>
</trkpt>
<trkpt lat="30.9270300" lon="34.9170200">
<ele>588.389954</ele>
<time>2021-03-13T18:12:29.975Z</time>
</trkpt>
<trkpt lat="30.9267000" lon="34.9173300">
<ele>587.169983</ele>
<time>2021-03-13T18:12:29.975Z</time>
</trkpt>
<trkpt lat="30.9262800" lon="34.9174000">
<ele>596.840027</ele>
<time>2021-03-13T18:12:29.975Z</time>
</trkpt>
<trkpt lat="30.9260200" lon="34.9172300">
<ele>604.969971</ele>
<time>2021-03-13T18:12:29.975Z</time>
</trkpt>
<trkpt lat="30.9257200" lon="34.9171500">
<ele>607.869995</ele>
<time>2021-03-13T18:12:29.975Z</time>
</trkpt>
<trkpt lat="30.9255900" lon="34.9168900">
<ele>608.540039</ele>
<time>2021-03-13T18:12:29.975Z</time>
</trkpt>
<trkpt lat="30.9255400" lon="34.9168200">
<ele>608.700012</ele>
<time>2021-03-13T18:12:29.975Z</time>
</trkpt>
<trkpt lat="30.9254800" lon="34.9168300">
<ele>607.849976</ele>
<time>2021-03-13T18:12:29.975Z</time>
</trkpt>
<trkpt lat="30.9250900" lon="34.9170000">
<ele>599.609985</ele>
<time>2021-03-13T18:12:29.975Z</time>
</trkpt>
<trkpt lat="30.9249700" lon="34.9171300">
<ele>597.219971</ele>
<time>2021-03-13T18:12:29.975Z</time>
</trkpt>
<trkpt lat="30.9248300" lon="34.9173800">
<ele>597.520020</ele>
<time>2021-03-13T18:12:29.975Z</time>
</trkpt>
<trkpt lat="30.9243600" lon="34.9176900">
<ele>599.500000</ele>
<time>2021-03-13T18:12:29.975Z</time>
</trkpt>
<trkpt lat="30.9241200" lon="34.9180200">
<ele>603.299988</ele>
<time>2021-03-13T18:12:29.975Z</time>
</trkpt>
<trkpt lat="30.9239800" lon="34.9180900">
<ele>607.340027</ele>
<time>2021-03-13T18:12:29.975Z</time>
</trkpt>
<trkpt lat="30.9237200" lon="34.9180400">
<ele>614.109985</ele>
<time>2021-03-13T18:12:29.975Z</time>
</trkpt>
<trkpt lat="30.9233500" lon="34.9176800">
<ele>614.469971</ele>
<time>2021-03-13T18:12:29.976Z</time>
</trkpt>
<trkpt lat="30.9233700" lon="34.9173600">
<ele>610.419983</ele>
<time>2021-03-13T18:12:29.976Z</time>
</trkpt>
<trkpt lat="30.9233800" lon="34.9170800">
<ele>608.739990</ele>
<time>2021-03-13T18:12:29.976Z</time>
</trkpt>
<trkpt lat="30.9233500" lon="34.9168300">
<ele>608.510010</ele>
<time>2021-03-13T18:12:29.976Z</time>
</trkpt>
<trkpt lat="30.9231200" lon="34.9164100">
<ele>610.320007</ele>
<time>2021-03-13T18:12:29.976Z</time>
</trkpt>
<trkpt lat="30.9228500" lon="34.9163900">
<ele>612.479980</ele>
<time>2021-03-13T18:12:29.976Z</time>
</trkpt>
<trkpt lat="30.9227000" lon="34.9165300">
<ele>613.140015</ele>
<time>2021-03-13T18:12:29.976Z</time>
</trkpt>
<trkpt lat="30.9224100" lon="34.9168800">
<ele>613.590027</ele>
<time>2021-03-13T18:12:29.976Z</time>
</trkpt>
<trkpt lat="30.9223100" lon="34.9171900">
<ele>615.640015</ele>
<time>2021-03-13T18:12:29.976Z</time>
</trkpt>
<trkpt lat="30.9221800" lon="34.9173200">
<ele>616.649963</ele>
<time>2021-03-13T18:12:29.976Z</time>
</trkpt>
<trkpt lat="30.9211900" lon="34.9178100">
<ele>614.580017</ele>
<time>2021-03-13T18:12:29.976Z</time>
</trkpt>
<trkpt lat="30.9209100" lon="34.9177600">
<ele>613.279968</ele>
<time>2021-03-13T18:12:29.976Z</time>
</trkpt>
<trkpt lat="30.9207700" lon="34.9176300">
<ele>612.669983</ele>
<time>2021-03-13T18:12:29.976Z</time>
</trkpt>
<trkpt lat="30.9206300" lon="34.9176200">
<ele>611.950012</ele>
<time>2021-03-13T18:12:29.976Z</time>
</trkpt>
<trkpt lat="30.9203500" lon="34.9177300">
<ele>609.690002</ele>
<time>2021-03-13T18:12:29.976Z</time>
</trkpt>
<trkpt lat="30.9203100" lon="34.9178000">
<ele>609.549988</ele>
<time>2021-03-13T18:12:29.976Z</time>
</trkpt>
<trkpt lat="30.9200200" lon="34.9179500">
<ele>610.460022</ele>
<time>2021-03-13T18:12:29.976Z</time>
</trkpt>
<trkpt lat="30.9196800" lon="34.9182500">
<ele>616.659973</ele>
<time>2021-03-13T18:12:29.976Z</time>
</trkpt>
<trkpt lat="30.9195100" lon="34.9181600">
<ele>620.440002</ele>
<time>2021-03-13T18:12:29.976Z</time>
</trkpt>
<trkpt lat="30.9194600" lon="34.9181900">
<ele>621.640015</ele>
<time>2021-03-13T18:12:29.976Z</time>
</trkpt>
<trkpt lat="30.9192000" lon="34.9181100">
<ele>624.470032</ele>
<time>2021-03-13T18:12:29.977Z</time>
</trkpt>
<trkpt lat="30.9190200" lon="34.9179900">
<ele>623.289978</ele>
<time>2021-03-13T18:12:29.977Z</time>
</trkpt>
<trkpt lat="30.9186400" lon="34.9178600">
<ele>620.950012</ele>
<time>2021-03-13T18:12:29.977Z</time>
</trkpt>
<trkpt lat="30.9180000" lon="34.9173600">
<ele>639.899963</ele>
<time>2021-03-13T18:12:29.977Z</time>
</trkpt>
<trkpt lat="30.9176500" lon="34.9171800">
<ele>638.179993</ele>
<time>2021-03-13T18:12:29.977Z</time>
</trkpt>
<trkpt lat="30.9173100" lon="34.9171300">
<ele>633.059998</ele>
<time>2021-03-13T18:12:29.977Z</time>
</trkpt>
<trkpt lat="30.9169300" lon="34.9172100">
<ele>626.660034</ele>
<time>2021-03-13T18:12:29.977Z</time>
</trkpt>
<trkpt lat="30.9168900" lon="34.9172100">
<ele>626.090027</ele>
<time>2021-03-13T18:12:29.977Z</time>
</trkpt>
<trkpt lat="30.9168900" lon="34.9172100">
<ele>626.090027</ele>
<time>2021-03-13T18:12:29.977Z</time>
</trkpt>
<trkpt lat="30.9168900" lon="34.9172100">
<ele>626.090027</ele>
<time>2021-03-13T18:12:29.977Z</time>
</trkpt>
<trkpt lat="30.9165000" lon="34.9172200">
<ele>623.589966</ele>
<time>2021-03-13T18:12:29.977Z</time>
</trkpt>
<trkpt lat="30.9162100" lon="34.9171700">
<ele>624.580017</ele>
<time>2021-03-13T18:12:29.977Z</time>
</trkpt>
<trkpt lat="30.9159400" lon="34.9168700">
<ele>626.649963</ele>
<time>2021-03-13T18:12:29.977Z</time>
</trkpt>
<trkpt lat="30.9157800" lon="34.9165200">
<ele>631.640015</ele>
<time>2021-03-13T18:12:29.977Z</time>
</trkpt>
<trkpt lat="30.9154100" lon="34.9160700">
<ele>635.250000</ele>
<time>2021-03-13T18:12:29.977Z</time>
</trkpt>
<trkpt lat="30.9151000" lon="34.9159600">
<ele>635.619995</ele>
<time>2021-03-13T18:12:29.977Z</time>
</trkpt>
<trkpt lat="30.9149800" lon="34.9159700">
<ele>635.190002</ele>
<time>2021-03-13T18:12:29.977Z</time>
</trkpt>
<trkpt lat="30.9146500" lon="34.9157900">
<ele>640.320007</ele>
<time>2021-03-13T18:12:29.977Z</time>
</trkpt>
<trkpt lat="30.9146300" lon="34.9158600">
<ele>639.199951</ele>
<time>2021-03-13T18:12:29.977Z</time>
</trkpt>
<trkpt lat="30.9144300" lon="34.9157900">
<ele>642.860046</ele>
<time>2021-03-13T18:12:29.977Z</time>
</trkpt>
<trkpt lat="30.9142900" lon="34.9156400">
<ele>644.460022</ele>
<time>2021-03-13T18:12:29.977Z</time>
</trkpt>
<trkpt lat="30.9141100" lon="34.9155400">
<ele>644.510010</ele>
<time>2021-03-13T18:12:29.977Z</time>
</trkpt>
<trkpt lat="30.9139900" lon="34.9152800">
<ele>648.699951</ele>
<time>2021-03-13T18:12:29.977Z</time>
</trkpt>
<trkpt lat="30.9135500" lon="34.9151200">
<ele>648.160034</ele>
<time>2021-03-13T18:12:29.977Z</time>
</trkpt>
<trkpt lat="30.9132600" lon="34.9151700">
<ele>642.320007</ele>
<time>2021-03-13T18:12:29.978Z</time>
</trkpt>
<trkpt lat="30.9130400" lon="34.9153300">
<ele>636.470032</ele>
<time>2021-03-13T18:12:29.978Z</time>
</trkpt>
<trkpt lat="30.9125100" lon="34.9152300">
<ele>633.230042</ele>
<time>2021-03-13T18:12:29.978Z</time>
</trkpt>
<trkpt lat="30.9121200" lon="34.9152700">
<ele>635.940002</ele>
<time>2021-03-13T18:12:29.978Z</time>
</trkpt>
<trkpt lat="30.9118800" lon="34.9153400">
<ele>634.679993</ele>
<time>2021-03-13T18:12:29.978Z</time>
</trkpt>
<trkpt lat="30.9116000" lon="34.9156200">
<ele>633.380005</ele>
<time>2021-03-13T18:12:29.978Z</time>
</trkpt>
<trkpt lat="30.9115200" lon="34.9158400">
<ele>633.919983</ele>
<time>2021-03-13T18:12:29.978Z</time>
</trkpt>
<trkpt lat="30.9109800" lon="34.9167500">
<ele>636.760010</ele>
<time>2021-03-13T18:12:29.978Z</time>
</trkpt>
<trkpt lat="30.9107300" lon="34.9169600">
<ele>638.590027</ele>
<time>2021-03-13T18:12:29.978Z</time>
</trkpt>
<trkpt lat="30.9099000" lon="34.9174100">
<ele>654.110046</ele>
<time>2021-03-13T18:12:29.978Z</time>
</trkpt>
<trkpt lat="30.9096800" lon="34.9174300">
<ele>657.920044</ele>
<time>2021-03-13T18:12:29.978Z</time>
</trkpt>
<trkpt lat="30.9094900" lon="34.9173600">
<ele>663.029968</ele>
<time>2021-03-13T18:12:29.978Z</time>
</trkpt>
<trkpt lat="30.9093600" lon="34.9172700">
<ele>665.470032</ele>
<time>2021-03-13T18:12:29.978Z</time>
</trkpt>
<trkpt lat="30.9091200" lon="34.9169600">
<ele>667.539978</ele>
<time>2021-03-13T18:12:29.978Z</time>
</trkpt>
<trkpt lat="30.9090300" lon="34.9165400">
<ele>663.660034</ele>
<time>2021-03-13T18:12:29.978Z</time>
</trkpt>
<trkpt lat="30.9088400" lon="34.9162700">
<ele>657.500061</ele>
<time>2021-03-13T18:12:29.978Z</time>
</trkpt>
<trkpt lat="30.9085800" lon="34.9156200">
<ele>654.710022</ele>
<time>2021-03-13T18:12:29.978Z</time>
</trkpt>
<trkpt lat="30.9081300" lon="34.9152200">
<ele>647.799988</ele>
<time>2021-03-13T18:12:29.978Z</time>
</trkpt>
<trkpt lat="30.9080000" lon="34.9151400">
<ele>646.609985</ele>
<time>2021-03-13T18:12:29.978Z</time>
</trkpt>
<trkpt lat="30.9076500" lon="34.9150800">
<ele>648.900024</ele>
<time>2021-03-13T18:12:29.978Z</time>
</trkpt>
<trkpt lat="30.9075700" lon="34.9150500">
<ele>650.339966</ele>
<time>2021-03-13T18:12:29.978Z</time>
</trkpt>
<trkpt lat="30.9073600" lon="34.9148200">
<ele>654.290039</ele>
<time>2021-03-13T18:12:29.978Z</time>
</trkpt>
<trkpt lat="30.9070400" lon="34.9146100">
<ele>653.229980</ele>
<time>2021-03-13T18:12:29.979Z</time>
</trkpt>
<trkpt lat="30.9059200" lon="34.9141900">
<ele>663.859985</ele>
<time>2021-03-13T18:12:29.979Z</time>
</trkpt>
<trkpt lat="30.9053800" lon="34.9137300">
<ele>665.919983</ele>
<time>2021-03-13T18:12:29.979Z</time>
</trkpt>
<trkpt lat="30.9053200" lon="34.9136600">
<ele>667.140015</ele>
<time>2021-03-13T18:12:29.979Z</time>
</trkpt>
<trkpt lat="30.9045400" lon="34.9128400">
<ele>668.280029</ele>
<time>2021-03-13T18:12:29.979Z</time>
</trkpt>
<trkpt lat="30.9041400" lon="34.9122500">
<ele>671.039978</ele>
<time>2021-03-13T18:12:29.979Z</time>
</trkpt>
<trkpt lat="30.9040300" lon="34.9121700">
<ele>670.630005</ele>
<time>2021-03-13T18:12:29.979Z</time>
</trkpt>
<trkpt lat="30.9040300" lon="34.9121700">
<ele>670.630005</ele>
<time>2021-03-13T18:12:29.979Z</time>
</trkpt>
<trkpt lat="30.9040300" lon="34.9121700">
<ele>670.630005</ele>
<time>2021-03-13T18:12:29.979Z</time>
</trkpt>
<trkpt lat="30.9035500" lon="34.9118400">
<ele>670.940002</ele>
<time>2021-03-13T18:12:29.979Z</time>
</trkpt>
<trkpt lat="30.9029700" lon="34.9117500">
<ele>679.939941</ele>
<time>2021-03-13T18:12:29.979Z</time>
</trkpt>
<trkpt lat="30.9025500" lon="34.9113900">
<ele>675.619995</ele>
<time>2021-03-13T18:12:29.979Z</time>
</trkpt>
<trkpt lat="30.9024600" lon="34.9111900">
<ele>673.320007</ele>
<time>2021-03-13T18:12:29.979Z</time>
</trkpt>
<trkpt lat="30.9018800" lon="34.9106200">
<ele>666.640015</ele>
<time>2021-03-13T18:12:29.979Z</time>
</trkpt>
<trkpt lat="30.9017300" lon="34.9103600">
<ele>663.570007</ele>
<time>2021-03-13T18:12:29.979Z</time>
</trkpt>
<trkpt lat="30.9016600" lon="34.9101400">
<ele>660.400024</ele>
<time>2021-03-13T18:12:29.979Z</time>
</trkpt>
<trkpt lat="30.9013100" lon="34.9097000">
<ele>653.869995</ele>
<time>2021-03-13T18:12:29.979Z</time>
</trkpt>
<trkpt lat="30.9011800" lon="34.9096100">
<ele>651.739990</ele>
<time>2021-03-13T18:12:29.979Z</time>
</trkpt>
<trkpt lat="30.9008600" lon="34.9090700">
<ele>652.549988</ele>
<time>2021-03-13T18:12:29.979Z</time>
</trkpt>
<trkpt lat="30.9002800" lon="34.9083500">
<ele>655.119995</ele>
<time>2021-03-13T18:12:29.979Z</time>
</trkpt>
<trkpt lat="30.9000800" lon="34.9079800">
<ele>653.900024</ele>
<time>2021-03-13T18:12:29.979Z</time>
</trkpt>
<trkpt lat="30.8999800" lon="34.9075700">
<ele>650.869995</ele>
<time>2021-03-13T18:12:29.979Z</time>
</trkpt>
<trkpt lat="30.8995900" lon="34.9068300">
<ele>648.350037</ele>
<time>2021-03-13T18:12:29.979Z</time>
</trkpt>
<trkpt lat="30.8991900" lon="34.9063100">
<ele>650.969971</ele>
<time>2021-03-13T18:12:29.979Z</time>
</trkpt>
<trkpt lat="30.8989300" lon="34.9060800">
<ele>649.700012</ele>
<time>2021-03-13T18:12:29.979Z</time>
</trkpt>
<trkpt lat="30.8986900" lon="34.9055300">
<ele>643.179993</ele>
<time>2021-03-13T18:12:29.980Z</time>
</trkpt>
<trkpt lat="30.8986900" lon="34.9055300">
<ele>643.179993</ele>
<time>2021-03-13T18:12:29.980Z</time>
</trkpt>
<trkpt lat="30.8986900" lon="34.9055300">
<ele>643.179993</ele>
<time>2021-03-13T18:12:29.980Z</time>
</trkpt>
<trkpt lat="30.8986200" lon="34.9053700">
<ele>638.400024</ele>
<time>2021-03-13T18:12:29.980Z</time>
</trkpt>
<trkpt lat="30.8985100" lon="34.9052000">
<ele>634.080017</ele>
<time>2021-03-13T18:12:29.980Z</time>
</trkpt>
<trkpt lat="30.8984400" lon="34.9050700">
<ele>631.949951</ele>
<time>2021-03-13T18:12:29.980Z</time>
</trkpt>
<trkpt lat="30.8981400" lon="34.9047400">
<ele>626.669983</ele>
<time>2021-03-13T18:12:29.980Z</time>
</trkpt>
<trkpt lat="30.8979000" lon="34.9045700">
<ele>625.839966</ele>
<time>2021-03-13T18:12:29.980Z</time>
</trkpt>
<trkpt lat="30.8976300" lon="34.9047300">
<ele>631.130005</ele>
<time>2021-03-13T18:12:29.980Z</time>
</trkpt>
<trkpt lat="30.8975200" lon="34.9048200">
<ele>633.310059</ele>
<time>2021-03-13T18:12:29.980Z</time>
</trkpt>
<trkpt lat="30.8969700" lon="34.9054100">
<ele>638.770020</ele>
<time>2021-03-13T18:12:29.980Z</time>
</trkpt>
<trkpt lat="30.8968600" lon="34.9055100">
<ele>640.809998</ele>
<time>2021-03-13T18:12:29.980Z</time>
</trkpt>
<trkpt lat="30.8966800" lon="34.9056000">
<ele>641.539978</ele>
<time>2021-03-13T18:12:29.980Z</time>
</trkpt>
<trkpt lat="30.8964100" lon="34.9058300">
<ele>637.500000</ele>
<time>2021-03-13T18:12:29.980Z</time>
</trkpt>
<trkpt lat="30.8962200" lon="34.9059200">
<ele>642.200012</ele>
<time>2021-03-13T18:12:29.980Z</time>
</trkpt>
<trkpt lat="30.8960200" lon="34.9061000">
<ele>646.580017</ele>
<time>2021-03-13T18:12:29.980Z</time>
</trkpt>
<trkpt lat="30.8958800" lon="34.9061600">
<ele>648.400024</ele>
<time>2021-03-13T18:12:29.980Z</time>
</trkpt>
<trkpt lat="30.8957100" lon="34.9062000">
<ele>649.739990</ele>
<time>2021-03-13T18:12:29.980Z</time>
</trkpt>
<trkpt lat="30.8956000" lon="34.9062500">
<ele>650.419983</ele>
<time>2021-03-13T18:12:29.980Z</time>
</trkpt>
<trkpt lat="30.8953000" lon="34.9065100">
<ele>648.190002</ele>
<time>2021-03-13T18:12:29.980Z</time>
</trkpt>
<trkpt lat="30.8952000" lon="34.9065700">
<ele>646.929993</ele>
<time>2021-03-13T18:12:29.980Z</time>
</trkpt>
<trkpt lat="30.8951000" lon="34.9066000">
<ele>644.960022</ele>
<time>2021-03-13T18:12:29.980Z</time>
</trkpt>
<trkpt lat="30.8950300" lon="34.9066000">
<ele>643.559998</ele>
<time>2021-03-13T18:12:29.980Z</time>
</trkpt>
<trkpt lat="30.8948100" lon="34.9064500">
<ele>641.619995</ele>
<time>2021-03-13T18:12:29.980Z</time>
</trkpt>
<trkpt lat="30.8947500" lon="34.9064400">
<ele>640.529968</ele>
<time>2021-03-13T18:12:29.980Z</time>
</trkpt>
<trkpt lat="30.8946800" lon="34.9064600">
<ele>640.490051</ele>
<time>2021-03-13T18:12:29.981Z</time>
</trkpt>
<trkpt lat="30.8943300" lon="34.9066300">
<ele>642.580017</ele>
<time>2021-03-13T18:12:29.981Z</time>
</trkpt>
<trkpt lat="30.8937100" lon="34.9067600">
<ele>644.480042</ele>
<time>2021-03-13T18:12:29.981Z</time>
</trkpt>
<trkpt lat="30.8935600" lon="34.9068200">
<ele>644.820007</ele>
<time>2021-03-13T18:12:29.981Z</time>
</trkpt>
<trkpt lat="30.8931400" lon="34.9070700">
<ele>650.549988</ele>
<time>2021-03-13T18:12:29.981Z</time>
</trkpt>
<trkpt lat="30.8930400" lon="34.9071900">
<ele>652.620056</ele>
<time>2021-03-13T18:12:29.981Z</time>
</trkpt>
<trkpt lat="30.8928900" lon="34.9074400">
<ele>654.609985</ele>
<time>2021-03-13T18:12:29.981Z</time>
</trkpt>
<trkpt lat="30.8927500" lon="34.9077800">
<ele>658.219971</ele>
<time>2021-03-13T18:12:29.981Z</time>
</trkpt>
<trkpt lat="30.8926500" lon="34.9082300">
<ele>662.309998</ele>
<time>2021-03-13T18:12:29.981Z</time>
</trkpt>
<trkpt lat="30.8926400" lon="34.9083500">
<ele>663.010010</ele>
<time>2021-03-13T18:12:29.981Z</time>
</trkpt>
<trkpt lat="30.8926400" lon="34.9084200">
<ele>663.010010</ele>
<time>2021-03-13T18:12:29.981Z</time>
</trkpt>
<trkpt lat="30.8926700" lon="34.9086700">
<ele>663.350037</ele>
<time>2021-03-13T18:12:29.981Z</time>
</trkpt>
<trkpt lat="30.8926500" lon="34.9089500">
<ele>663.499939</ele>
<time>2021-03-13T18:12:29.981Z</time>
</trkpt>
<trkpt lat="30.8926500" lon="34.9091000">
<ele>663.209961</ele>
<time>2021-03-13T18:12:29.981Z</time>
</trkpt>
<trkpt lat="30.8926800" lon="34.9092700">
<ele>663.429993</ele>
<time>2021-03-13T18:12:29.981Z</time>
</trkpt>
<trkpt lat="30.8927700" lon="34.9095700">
<ele>664.420044</ele>
<time>2021-03-13T18:12:29.981Z</time>
</trkpt>
<trkpt lat="30.8928500" lon="34.9097000">
<ele>667.239990</ele>
<time>2021-03-13T18:12:29.981Z</time>
</trkpt>
<trkpt lat="30.8932400" lon="34.9102000">
<ele>668.369995</ele>
<time>2021-03-13T18:12:29.981Z</time>
</trkpt>
<trkpt lat="30.8933600" lon="34.9104000">
<ele>664.630005</ele>
<time>2021-03-13T18:12:29.981Z</time>
</trkpt>
<trkpt lat="30.8934100" lon="34.9105400">
<ele>663.150024</ele>
<time>2021-03-13T18:12:29.981Z</time>
</trkpt>
<trkpt lat="30.8934300" lon="34.9106700">
<ele>662.980042</ele>
<time>2021-03-13T18:12:29.981Z</time>
</trkpt>
<trkpt lat="30.8934400" lon="34.9109400">
<ele>661.609985</ele>
<time>2021-03-13T18:12:29.981Z</time>
</trkpt>
<trkpt lat="30.8934500" lon="34.9113100">
<ele>657.729980</ele>
<time>2021-03-13T18:12:29.981Z</time>
</trkpt>
<trkpt lat="30.8934700" lon="34.9114500">
<ele>656.890015</ele>
<time>2021-03-13T18:12:29.981Z</time>
</trkpt>
<trkpt lat="30.8935400" lon="34.9116200">
<ele>656.789978</ele>
<time>2021-03-13T18:12:29.981Z</time>
</trkpt>
<trkpt lat="30.8936700" lon="34.9118600">
<ele>656.619995</ele>
<time>2021-03-13T18:12:29.982Z</time>
</trkpt>
<trkpt lat="30.8937000" lon="34.9119900">
<ele>657.140015</ele>
<time>2021-03-13T18:12:29.982Z</time>
</trkpt>
<trkpt lat="30.8937000" lon="34.9121800">
<ele>658.039978</ele>
<time>2021-03-13T18:12:29.982Z</time>
</trkpt>
<trkpt lat="30.8936800" lon="34.9123100">
<ele>657.339966</ele>
<time>2021-03-13T18:12:29.982Z</time>
</trkpt>
<trkpt lat="30.8936300" lon="34.9124500">
<ele>655.600037</ele>
<time>2021-03-13T18:12:29.982Z</time>
</trkpt>
<trkpt lat="30.8935300" lon="34.9126500">
<ele>652.479980</ele>
<time>2021-03-13T18:12:29.982Z</time>
</trkpt>
<trkpt lat="30.8933300" lon="34.9130000">
<ele>642.459961</ele>
<time>2021-03-13T18:12:29.982Z</time>
</trkpt>
<trkpt lat="30.8932700" lon="34.9131700">
<ele>640.210022</ele>
<time>2021-03-13T18:12:29.982Z</time>
</trkpt>
<trkpt lat="30.8931800" lon="34.9135800">
<ele>636.239990</ele>
<time>2021-03-13T18:12:29.982Z</time>
</trkpt>
<trkpt lat="30.8931500" lon="34.9139000">
<ele>633.650024</ele>
<time>2021-03-13T18:12:29.982Z</time>
</trkpt>
<trkpt lat="30.8931500" lon="34.9141200">
<ele>632.590027</ele>
<time>2021-03-13T18:12:29.982Z</time>
</trkpt>
<trkpt lat="30.8931700" lon="34.9142200">
<ele>632.419983</ele>
<time>2021-03-13T18:12:29.982Z</time>
</trkpt>
<trkpt lat="30.8932500" lon="34.9144200">
<ele>633.250000</ele>
<time>2021-03-13T18:12:29.982Z</time>
</trkpt>
<trkpt lat="30.8932700" lon="34.9145900">
<ele>631.489990</ele>
<time>2021-03-13T18:12:29.982Z</time>
</trkpt>
<trkpt lat="30.8932600" lon="34.9147700">
<ele>628.700012</ele>
<time>2021-03-13T18:12:29.982Z</time>
</trkpt>
<trkpt lat="30.8932500" lon="34.9148900">
<ele>626.739990</ele>
<time>2021-03-13T18:12:29.982Z</time>
</trkpt>
<trkpt lat="30.8932500" lon="34.9148900">
<ele>626.739990</ele>
<time>2021-03-13T18:12:29.982Z</time>
</trkpt>
<trkpt lat="30.8932500" lon="34.9148900">
<ele>626.739990</ele>
<time>2021-03-13T18:12:29.982Z</time>
</trkpt>
<trkpt lat="30.8932400" lon="34.9149300">
<ele>626.090027</ele>
<time>2021-03-13T18:12:29.982Z</time>
</trkpt>
<trkpt lat="30.8931800" lon="34.9150600">
<ele>623.900024</ele>
<time>2021-03-13T18:12:29.982Z</time>
</trkpt>
<trkpt lat="30.8931100" lon="34.9152900">
<ele>619.250000</ele>
<time>2021-03-13T18:12:29.982Z</time>
</trkpt>
<trkpt lat="30.8928700" lon="34.9157700">
<ele>615.580017</ele>
<time>2021-03-13T18:12:29.982Z</time>
</trkpt>
<trkpt lat="30.8928400" lon="34.9159200">
<ele>615.380005</ele>
<time>2021-03-13T18:12:29.982Z</time>
</trkpt>
<trkpt lat="30.8928900" lon="34.9160500">
<ele>617.150024</ele>
<time>2021-03-13T18:12:29.982Z</time>
</trkpt>
<trkpt lat="30.8932100" lon="34.9161700">
<ele>617.609985</ele>
<time>2021-03-13T18:12:29.983Z</time>
</trkpt>
<trkpt lat="30.8932000" lon="34.9162600">
<ele>618.210022</ele>
<time>2021-03-13T18:12:29.983Z</time>
</trkpt>
<trkpt lat="30.8929500" lon="34.9165000">
<ele>622.059998</ele>
<time>2021-03-13T18:12:29.983Z</time>
</trkpt>
<trkpt lat="30.8927500" lon="34.9171300">
<ele>618.859985</ele>
<time>2021-03-13T18:12:29.983Z</time>
</trkpt>
<trkpt lat="30.8926400" lon="34.9177600">
<ele>611.660034</ele>
<time>2021-03-13T18:12:29.983Z</time>
</trkpt>
<trkpt lat="30.8924200" lon="34.9181200">
<ele>614.080017</ele>
<time>2021-03-13T18:12:29.983Z</time>
</trkpt>
<trkpt lat="30.8923100" lon="34.9185700">
<ele>619.410034</ele>
<time>2021-03-13T18:12:29.983Z</time>
</trkpt>
<trkpt lat="30.8923100" lon="34.9188300">
<ele>620.589966</ele>
<time>2021-03-13T18:12:29.983Z</time>
</trkpt>
<trkpt lat="30.8923000" lon="34.9189300">
<ele>620.669983</ele>
<time>2021-03-13T18:12:29.983Z</time>
</trkpt>
<trkpt lat="30.8924300" lon="34.9190800">
<ele>616.429993</ele>
<time>2021-03-13T18:12:29.983Z</time>
</trkpt>
<trkpt lat="30.8924800" lon="34.9192900">
<ele>610.760010</ele>
<time>2021-03-13T18:12:29.983Z</time>
</trkpt>
<trkpt lat="30.8925100" lon="34.9203200">
<ele>602.950012</ele>
<time>2021-03-13T18:12:29.983Z</time>
</trkpt>
<trkpt lat="30.8925500" lon="34.9211100">
<ele>604.380005</ele>
<time>2021-03-13T18:12:29.983Z</time>
</trkpt>
<trkpt lat="30.8926000" lon="34.9213600">
<ele>602.040039</ele>
<time>2021-03-13T18:12:29.983Z</time>
</trkpt>
<trkpt lat="30.8929300" lon="34.9218200">
<ele>587.809998</ele>
<time>2021-03-13T18:12:29.983Z</time>
</trkpt>
<trkpt lat="30.8929500" lon="34.9219100">
<ele>587.440002</ele>
<time>2021-03-13T18:12:29.983Z</time>
</trkpt>
<trkpt lat="30.8929100" lon="34.9220500">
<ele>587.320007</ele>
<time>2021-03-13T18:12:29.983Z</time>
</trkpt>
<trkpt lat="30.8928900" lon="34.9222500">
<ele>586.779968</ele>
<time>2021-03-13T18:12:29.983Z</time>
</trkpt>
<trkpt lat="30.8929200" lon="34.9222900">
<ele>586.380005</ele>
<time>2021-03-13T18:12:29.983Z</time>
</trkpt>
<trkpt lat="30.8932900" lon="34.9220500">
<ele>580.970032</ele>
<time>2021-03-13T18:12:29.983Z</time>
</trkpt>
<trkpt lat="30.8933800" lon="34.9220400">
<ele>577.899963</ele>
<time>2021-03-13T18:12:29.983Z</time>
</trkpt>
<trkpt lat="30.8935200" lon="34.9221400">
<ele>571.099976</ele>
<time>2021-03-13T18:12:29.983Z</time>
</trkpt>
<trkpt lat="30.8935600" lon="34.9223800">
<ele>566.179993</ele>
<time>2021-03-13T18:12:29.983Z</time>
</trkpt>
<trkpt lat="30.8936000" lon="34.9224200">
<ele>563.880005</ele>
<time>2021-03-13T18:12:29.983Z</time>
</trkpt>
<trkpt lat="30.8937400" lon="34.9223400">
<ele>561.359985</ele>
<time>2021-03-13T18:12:29.983Z</time>
</trkpt>
<trkpt lat="30.8939600" lon="34.9220400">
<ele>559.179993</ele>
<time>2021-03-13T18:12:29.984Z</time>
</trkpt>
<trkpt lat="30.8940500" lon="34.9220700">
<ele>556.790039</ele>
<time>2021-03-13T18:12:29.984Z</time>
</trkpt>
<trkpt lat="30.8941600" lon="34.9223900">
<ele>551.700012</ele>
<time>2021-03-13T18:12:29.984Z</time>
</trkpt>
<trkpt lat="30.8943400" lon="34.9229200">
<ele>544.850037</ele>
<time>2021-03-13T18:12:29.984Z</time>
</trkpt>
<trkpt lat="30.8944300" lon="34.9231000">
<ele>545.320007</ele>
<time>2021-03-13T18:12:29.984Z</time>
</trkpt>
<trkpt lat="30.8945900" lon="34.9231400">
<ele>544.940002</ele>
<time>2021-03-13T18:12:29.984Z</time>
</trkpt>
<trkpt lat="30.8949300" lon="34.9232300">
<ele>544.320007</ele>
<time>2021-03-13T18:12:29.984Z</time>
</trkpt>
<trkpt lat="30.8951400" lon="34.9233900">
<ele>542.589966</ele>
<time>2021-03-13T18:12:29.984Z</time>
</trkpt>
<trkpt lat="30.8953400" lon="34.9236900">
<ele>539.380005</ele>
<time>2021-03-13T18:12:29.984Z</time>
</trkpt>
<trkpt lat="30.8954500" lon="34.9237400">
<ele>535.739990</ele>
<time>2021-03-13T18:12:29.984Z</time>
</trkpt>
<trkpt lat="30.8955400" lon="34.9237200">
<ele>532.890015</ele>
<time>2021-03-13T18:12:29.984Z</time>
</trkpt>
<trkpt lat="30.8959300" lon="34.9233000">
<ele>525.330017</ele>
<time>2021-03-13T18:12:29.984Z</time>
</trkpt>
<trkpt lat="30.8960800" lon="34.9232600">
<ele>523.119995</ele>
<time>2021-03-13T18:12:29.984Z</time>
</trkpt>
<trkpt lat="30.8961800" lon="34.9233000">
<ele>523.000000</ele>
<time>2021-03-13T18:12:29.984Z</time>
</trkpt>
<trkpt lat="30.8964500" lon="34.9234900">
<ele>520.960022</ele>
<time>2021-03-13T18:12:29.984Z</time>
</trkpt>
<trkpt lat="30.8965400" lon="34.9235900">
<ele>519.179993</ele>
<time>2021-03-13T18:12:29.984Z</time>
</trkpt>
<trkpt lat="30.8966500" lon="34.9238900">
<ele>518.890015</ele>
<time>2021-03-13T18:12:29.984Z</time>
</trkpt>
<trkpt lat="30.8967800" lon="34.9240600">
<ele>521.549988</ele>
<time>2021-03-13T18:12:29.984Z</time>
</trkpt>
<trkpt lat="30.8970000" lon="34.9241900">
<ele>524.349976</ele>
<time>2021-03-13T18:12:29.984Z</time>
</trkpt>
<trkpt lat="30.8972400" lon="34.9243900">
<ele>524.830017</ele>
<time>2021-03-13T18:12:29.984Z</time>
</trkpt>
<trkpt lat="30.8975500" lon="34.9248500">
<ele>520.469971</ele>
<time>2021-03-13T18:12:29.984Z</time>
</trkpt>
<trkpt lat="30.8975500" lon="34.9248500">
<ele>520.469971</ele>
<time>2021-03-13T18:12:29.984Z</time>
</trkpt>
<trkpt lat="30.8975500" lon="34.9248500">
<ele>520.469971</ele>
<time>2021-03-13T18:12:29.984Z</time>
</trkpt>
<trkpt lat="30.8975600" lon="34.9248700">
<ele>520.169983</ele>
<time>2021-03-13T18:12:29.984Z</time>
</trkpt>
<trkpt lat="30.8979400" lon="34.9251400">
<ele>520.790039</ele>
<time>2021-03-13T18:12:29.985Z</time>
</trkpt>
<trkpt lat="30.8986100" lon="34.9257000">
<ele>510.459991</ele>
<time>2021-03-13T18:12:29.985Z</time>
</trkpt>
<trkpt lat="30.8986700" lon="34.9257900">
<ele>507.919983</ele>
<time>2021-03-13T18:12:29.985Z</time>
</trkpt>
<trkpt lat="30.8987300" lon="34.9261100">
<ele>505.429993</ele>
<time>2021-03-13T18:12:29.985Z</time>
</trkpt>
<trkpt lat="30.8988900" lon="34.9263600">
<ele>500.200012</ele>
<time>2021-03-13T18:12:29.985Z</time>
</trkpt>
<trkpt lat="30.8990600" lon="34.9265000">
<ele>498.640015</ele>
<time>2021-03-13T18:12:29.985Z</time>
</trkpt>
<trkpt lat="30.8994800" lon="34.9267700">
<ele>494.139984</ele>
<time>2021-03-13T18:12:29.985Z</time>
</trkpt>
<trkpt lat="30.8997300" lon="34.9270500">
<ele>497.899994</ele>
<time>2021-03-13T18:12:29.985Z</time>
</trkpt>
<trkpt lat="30.8998700" lon="34.9271400">
<ele>500.480011</ele>
<time>2021-03-13T18:12:29.985Z</time>
</trkpt>
<trkpt lat="30.8999700" lon="34.9273000">
<ele>501.549988</ele>
<time>2021-03-13T18:12:29.985Z</time>
</trkpt>
<trkpt lat="30.9004300" lon="34.9277600">
<ele>498.260010</ele>
<time>2021-03-13T18:12:29.985Z</time>
</trkpt>
<trkpt lat="30.9008900" lon="34.9282200">
<ele>492.509979</ele>
<time>2021-03-13T18:12:29.985Z</time>
</trkpt>
<trkpt lat="30.9011700" lon="34.9284000">
<ele>492.639984</ele>
<time>2021-03-13T18:12:29.985Z</time>
</trkpt>
<trkpt lat="30.9014400" lon="34.9287500">
<ele>493.130005</ele>
<time>2021-03-13T18:12:29.985Z</time>
</trkpt>
<trkpt lat="30.9015200" lon="34.9289000">
<ele>492.500000</ele>
<time>2021-03-13T18:12:29.985Z</time>
</trkpt>
<trkpt lat="30.9019100" lon="34.9291600">
<ele>493.809998</ele>
<time>2021-03-13T18:12:29.985Z</time>
</trkpt>
<trkpt lat="30.9023100" lon="34.9294200">
<ele>486.480011</ele>
<time>2021-03-13T18:12:29.985Z</time>
</trkpt>
<trkpt lat="30.9027000" lon="34.9296800">
<ele>475.360016</ele>
<time>2021-03-13T18:12:29.985Z</time>
</trkpt>
<trkpt lat="30.9032400" lon="34.9300000">
<ele>475.649994</ele>
<time>2021-03-13T18:12:29.985Z</time>
</trkpt>
<trkpt lat="30.9037800" lon="34.9303100">
<ele>484.899994</ele>
<time>2021-03-13T18:12:29.985Z</time>
</trkpt>
<trkpt lat="30.9040900" lon="34.9307300">
<ele>481.020020</ele>
<time>2021-03-13T18:12:29.985Z</time>
</trkpt>
<trkpt lat="30.9044700" lon="34.9315700">
<ele>467.539978</ele>
<time>2021-03-13T18:12:29.985Z</time>
</trkpt>
<trkpt lat="30.9048400" lon="34.9322100">
<ele>467.059998</ele>
<time>2021-03-13T18:12:29.985Z</time>
</trkpt>
<trkpt lat="30.9052000" lon="34.9328500">
<ele>467.159973</ele>
<time>2021-03-13T18:12:29.985Z</time>
</trkpt>
<trkpt lat="30.9054700" lon="34.9334100">
<ele>463.609985</ele>
<time>2021-03-13T18:12:29.986Z</time>
</trkpt>
<trkpt lat="30.9057300" lon="34.9339600">
<ele>468.329987</ele>
<time>2021-03-13T18:12:29.986Z</time>
</trkpt>
<trkpt lat="30.9061600" lon="34.9347400">
<ele>463.519989</ele>
<time>2021-03-13T18:12:29.986Z</time>
</trkpt>
<trkpt lat="30.9064500" lon="34.9351800">
<ele>457.760010</ele>
<time>2021-03-13T18:12:29.986Z</time>
</trkpt>
<trkpt lat="30.9067300" lon="34.9356200">
<ele>457.779968</ele>
<time>2021-03-13T18:12:29.986Z</time>
</trkpt>
<trkpt lat="30.9067500" lon="34.9359000">
<ele>460.609985</ele>
<time>2021-03-13T18:12:29.986Z</time>
</trkpt>
<trkpt lat="30.9067800" lon="34.9359700">
<ele>461.419983</ele>
<time>2021-03-13T18:12:29.986Z</time>
</trkpt>
<trkpt lat="30.9067800" lon="34.9359700">
<ele>461.419983</ele>
<time>2021-03-13T18:12:29.986Z</time>
</trkpt>
<trkpt lat="30.9067800" lon="34.9359700">
<ele>461.419983</ele>
<time>2021-03-13T18:12:29.986Z</time>
</trkpt>
<trkpt lat="30.9070300" lon="34.9364800">
<ele>460.589996</ele>
<time>2021-03-13T18:12:29.986Z</time>
</trkpt>
<trkpt lat="30.9072700" lon="34.9369900">
<ele>455.019989</ele>
<time>2021-03-13T18:12:29.986Z</time>
</trkpt>
<trkpt lat="30.9075200" lon="34.9375000">
<ele>462.000000</ele>
<time>2021-03-13T18:12:29.986Z</time>
</trkpt>
<trkpt lat="30.9077600" lon="34.9380100">
<ele>455.829987</ele>
<time>2021-03-13T18:12:29.986Z</time>
</trkpt>
<trkpt lat="30.9080600" lon="34.9385500">
<ele>448.709991</ele>
<time>2021-03-13T18:12:29.986Z</time>
</trkpt>
<trkpt lat="30.9083400" lon="34.9389800">
<ele>450.690002</ele>
<time>2021-03-13T18:12:29.986Z</time>
</trkpt>
<trkpt lat="30.9086200" lon="34.9394200">
<ele>450.960022</ele>
<time>2021-03-13T18:12:29.986Z</time>
</trkpt>
<trkpt lat="30.9089000" lon="34.9398500">
<ele>453.220001</ele>
<time>2021-03-13T18:12:29.986Z</time>
</trkpt>
<trkpt lat="30.9092700" lon="34.9407000">
<ele>445.759979</ele>
<time>2021-03-13T18:12:29.986Z</time>
</trkpt>
<trkpt lat="30.9095800" lon="34.9412100">
<ele>436.289978</ele>
<time>2021-03-13T18:12:29.986Z</time>
</trkpt>
<trkpt lat="30.9097300" lon="34.9416000">
<ele>438.649994</ele>
<time>2021-03-13T18:12:29.986Z</time>
</trkpt>
<trkpt lat="30.9100200" lon="34.9419700">
<ele>435.410004</ele>
<time>2021-03-13T18:12:29.987Z</time>
</trkpt>
<trkpt lat="30.9102600" lon="34.9424800">
<ele>442.600006</ele>
<time>2021-03-13T18:12:29.987Z</time>
</trkpt>
<trkpt lat="30.9105300" lon="34.9429500">
<ele>440.619995</ele>
<time>2021-03-13T18:12:29.987Z</time>
</trkpt>
<trkpt lat="30.9107900" lon="34.9434200">
<ele>439.889984</ele>
<time>2021-03-13T18:12:29.987Z</time>
</trkpt>
<trkpt lat="30.9110000" lon="34.9439400">
<ele>439.779999</ele>
<time>2021-03-13T18:12:29.987Z</time>
</trkpt>
<trkpt lat="30.9112000" lon="34.9444600">
<ele>440.640015</ele>
<time>2021-03-13T18:12:29.987Z</time>
</trkpt>
<trkpt lat="30.9114000" lon="34.9452100">
<ele>438.770020</ele>
<time>2021-03-13T18:12:29.987Z</time>
</trkpt>
<trkpt lat="30.9115900" lon="34.9459600">
<ele>438.320007</ele>
<time>2021-03-13T18:12:29.987Z</time>
</trkpt>
<trkpt lat="30.9118000" lon="34.9467700">
<ele>437.069977</ele>
<time>2021-03-13T18:12:29.987Z</time>
</trkpt>
<trkpt lat="30.9119900" lon="34.9473800">
<ele>434.709991</ele>
<time>2021-03-13T18:12:29.987Z</time>
</trkpt>
<trkpt lat="30.9121900" lon="34.9479800">
<ele>427.959991</ele>
<time>2021-03-13T18:12:29.987Z</time>
</trkpt>
<trkpt lat="30.9124200" lon="34.9489500">
<ele>417.750031</ele>
<time>2021-03-13T18:12:29.987Z</time>
</trkpt>
<trkpt lat="30.9126400" lon="34.9496900">
<ele>421.940002</ele>
<time>2021-03-13T18:12:29.987Z</time>
</trkpt>
<trkpt lat="30.9128500" lon="34.9504200">
<ele>427.049988</ele>
<time>2021-03-13T18:12:29.987Z</time>
</trkpt>
<trkpt lat="30.9130100" lon="34.9510900">
<ele>432.940002</ele>
<time>2021-03-13T18:12:29.987Z</time>
</trkpt>
<trkpt lat="30.9131800" lon="34.9517600">
<ele>434.119995</ele>
<time>2021-03-13T18:12:29.987Z</time>
</trkpt>
<trkpt lat="30.9133400" lon="34.9524300">
<ele>435.119995</ele>
<time>2021-03-13T18:12:29.987Z</time>
</trkpt>
<trkpt lat="30.9134400" lon="34.9528700">
<ele>437.019989</ele>
<time>2021-03-13T18:12:29.987Z</time>
</trkpt>
<trkpt lat="30.9136900" lon="34.9534200">
<ele>433.750000</ele>
<time>2021-03-13T18:12:29.987Z</time>
</trkpt>
<trkpt lat="30.9139400" lon="34.9539700">
<ele>434.149994</ele>
<time>2021-03-13T18:12:29.987Z</time>
</trkpt>
<trkpt lat="30.9142000" lon="34.9545200">
<ele>431.119995</ele>
<time>2021-03-13T18:12:29.987Z</time>
</trkpt>
<trkpt lat="30.9144500" lon="34.9550700">
<ele>428.750031</ele>
<time>2021-03-13T18:12:29.987Z</time>
</trkpt>
<trkpt lat="30.9147000" lon="34.9556200">
<ele>427.460022</ele>
<time>2021-03-13T18:12:29.987Z</time>
</trkpt>
<trkpt lat="30.9148000" lon="34.9559400">
<ele>429.540009</ele>
<time>2021-03-13T18:12:29.987Z</time>
</trkpt>
<trkpt lat="30.9150500" lon="34.9564100">
<ele>429.090027</ele>
<time>2021-03-13T18:12:29.987Z</time>
</trkpt>
<trkpt lat="30.9153000" lon="34.9568700">
<ele>427.970001</ele>
<time>2021-03-13T18:12:29.988Z</time>
</trkpt>
<trkpt lat="30.9154400" lon="34.9572400">
<ele>427.989990</ele>
<time>2021-03-13T18:12:29.988Z</time>
</trkpt>
<trkpt lat="30.9154100" lon="34.9574800">
<ele>429.550018</ele>
<time>2021-03-13T18:12:29.988Z</time>
</trkpt>
<trkpt lat="30.9154800" lon="34.9576500">
<ele>430.720001</ele>
<time>2021-03-13T18:12:29.988Z</time>
</trkpt>
<trkpt lat="30.9157700" lon="34.9578400">
<ele>437.980011</ele>
<time>2021-03-13T18:12:29.988Z</time>
</trkpt>
<trkpt lat="30.9162000" lon="34.9586600">
<ele>440.329987</ele>
<time>2021-03-13T18:12:29.988Z</time>
</trkpt>
<trkpt lat="30.9162800" lon="34.9589500">
<ele>435.949982</ele>
<time>2021-03-13T18:12:29.988Z</time>
</trkpt>
<trkpt lat="30.9162800" lon="34.9592400">
<ele>431.160004</ele>
<time>2021-03-13T18:12:29.988Z</time>
</trkpt>
<trkpt lat="30.9163600" lon="34.9594600">
<ele>428.700012</ele>
<time>2021-03-13T18:12:29.988Z</time>
</trkpt>
<trkpt lat="30.9165700" lon="34.9597800">
<ele>428.679993</ele>
<time>2021-03-13T18:12:29.988Z</time>
</trkpt>
<trkpt lat="30.9167700" lon="34.9602800">
<ele>430.100006</ele>
<time>2021-03-13T18:12:29.988Z</time>
</trkpt>
<trkpt lat="30.9169600" lon="34.9607800">
<ele>431.429993</ele>
<time>2021-03-13T18:12:29.988Z</time>
</trkpt>
<trkpt lat="30.9171600" lon="34.9612800">
<ele>428.150024</ele>
<time>2021-03-13T18:12:29.988Z</time>
</trkpt>
<trkpt lat="30.9173500" lon="34.9617800">
<ele>425.859985</ele>
<time>2021-03-13T18:12:29.988Z</time>
</trkpt>
<trkpt lat="30.9174800" lon="34.9623300">
<ele>420.549988</ele>
<time>2021-03-13T18:12:29.988Z</time>
</trkpt>
<trkpt lat="30.9175800" lon="34.9630000">
<ele>419.100006</ele>
<time>2021-03-13T18:12:29.988Z</time>
</trkpt>
<trkpt lat="30.9176700" lon="34.9636800">
<ele>425.070007</ele>
<time>2021-03-13T18:12:29.988Z</time>
</trkpt>
<trkpt lat="30.9177700" lon="34.9643500">
<ele>427.949982</ele>
<time>2021-03-13T18:12:29.988Z</time>
</trkpt>
<trkpt lat="30.9179100" lon="34.9647100">
<ele>429.540009</ele>
<time>2021-03-13T18:12:29.988Z</time>
</trkpt>
<trkpt lat="30.9182400" lon="34.9653200">
<ele>421.660004</ele>
<time>2021-03-13T18:12:29.988Z</time>
</trkpt>
<trkpt lat="30.9185200" lon="34.9659700">
<ele>428.669983</ele>
<time>2021-03-13T18:12:29.988Z</time>
</trkpt>
<trkpt lat="30.9187900" lon="34.9666200">
<ele>429.059998</ele>
<time>2021-03-13T18:12:29.988Z</time>
</trkpt>
<trkpt lat="30.9187900" lon="34.9666200">
<ele>429.059998</ele>
<time>2021-03-13T18:12:29.988Z</time>
</trkpt>
<trkpt lat="30.9187900" lon="34.9666200">
<ele>429.059998</ele>
<time>2021-03-13T18:12:29.989Z</time>
</trkpt>
<trkpt lat="30.9188500" lon="34.9667600">
<ele>428.910004</ele>
<time>2021-03-13T18:12:29.989Z</time>
</trkpt>
<trkpt lat="30.9190800" lon="34.9673800">
<ele>429.390015</ele>
<time>2021-03-13T18:12:29.989Z</time>
</trkpt>
<trkpt lat="30.9193000" lon="34.9680100">
<ele>429.690002</ele>
<time>2021-03-13T18:12:29.989Z</time>
</trkpt>
<trkpt lat="30.9195300" lon="34.9686300">
<ele>419.679993</ele>
<time>2021-03-13T18:12:29.989Z</time>
</trkpt>
<trkpt lat="30.9196200" lon="34.9694200">
<ele>414.459991</ele>
<time>2021-03-13T18:12:29.989Z</time>
</trkpt>
<trkpt lat="30.9198400" lon="34.9699200">
<ele>414.169983</ele>
<time>2021-03-13T18:12:29.989Z</time>
</trkpt>
<trkpt lat="30.9200000" lon="34.9704400">
<ele>414.580017</ele>
<time>2021-03-13T18:12:29.989Z</time>
</trkpt>
<trkpt lat="30.9201500" lon="34.9709600">
<ele>416.019989</ele>
<time>2021-03-13T18:12:29.989Z</time>
</trkpt>
<trkpt lat="30.9202900" lon="34.9711500">
<ele>411.370026</ele>
<time>2021-03-13T18:12:29.989Z</time>
</trkpt>
<trkpt lat="30.9205600" lon="34.9713100">
<ele>402.500000</ele>
<time>2021-03-13T18:12:29.989Z</time>
</trkpt>
<trkpt lat="30.9210000" lon="34.9718100">
<ele>401.319977</ele>
<time>2021-03-13T18:12:29.989Z</time>
</trkpt>
<trkpt lat="30.9214300" lon="34.9723100">
<ele>398.300018</ele>
<time>2021-03-13T18:12:29.989Z</time>
</trkpt>
<trkpt lat="30.9216400" lon="34.9729000">
<ele>397.849976</ele>
<time>2021-03-13T18:12:29.989Z</time>
</trkpt>
<trkpt lat="30.9219200" lon="34.9733700">
<ele>398.940002</ele>
<time>2021-03-13T18:12:29.989Z</time>
</trkpt>
<trkpt lat="30.9223200" lon="34.9737700">
<ele>396.219971</ele>
<time>2021-03-13T18:12:29.989Z</time>
</trkpt>
<trkpt lat="30.9225100" lon="34.9738300">
<ele>395.850006</ele>
<time>2021-03-13T18:12:29.989Z</time>
</trkpt>
<trkpt lat="30.9226200" lon="34.9738600">
<ele>396.720001</ele>
<time>2021-03-13T18:12:29.989Z</time>
</trkpt>
<trkpt lat="30.9228900" lon="34.9739500">
<ele>399.529999</ele>
<time>2021-03-13T18:12:29.989Z</time>
</trkpt>
<trkpt lat="30.9233400" lon="34.9742000">
<ele>399.170013</ele>
<time>2021-03-13T18:12:29.989Z</time>
</trkpt>
<trkpt lat="30.9237800" lon="34.9744400">
<ele>398.690002</ele>
<time>2021-03-13T18:12:29.989Z</time>
</trkpt>
<trkpt lat="30.9241100" lon="34.9747800">
<ele>397.110016</ele>
<time>2021-03-13T18:12:29.989Z</time>
</trkpt>
<trkpt lat="30.9247900" lon="34.9752500">
<ele>395.709991</ele>
<time>2021-03-13T18:12:29.989Z</time>
</trkpt>
<trkpt lat="30.9252900" lon="34.9754900">
<ele>391.049988</ele>
<time>2021-03-13T18:12:29.989Z</time>
</trkpt>
<trkpt lat="30.9256900" lon="34.9758000">
<ele>383.160004</ele>
<time>2021-03-13T18:12:29.989Z</time>
</trkpt>
<trkpt lat="30.9262900" lon="34.9761000">
<ele>387.630005</ele>
<time>2021-03-13T18:12:29.989Z</time>
</trkpt>
<trkpt lat="30.9268200" lon="34.9764400">
<ele>384.260010</ele>
<time>2021-03-13T18:12:29.989Z</time>
</trkpt>
<trkpt lat="30.9273400" lon="34.9767700">
<ele>381.429993</ele>
<time>2021-03-13T18:12:29.989Z</time>
</trkpt>
<trkpt lat="30.9276500" lon="34.9770200">
<ele>380.850006</ele>
<time>2021-03-13T18:12:29.989Z</time>
</trkpt>
<trkpt lat="30.9282500" lon="34.9776500">
<ele>384.619995</ele>
<time>2021-03-13T18:12:29.989Z</time>
</trkpt>
<trkpt lat="30.9286500" lon="34.9779300">
<ele>384.119995</ele>
<time>2021-03-13T18:12:29.989Z</time>
</trkpt>
<trkpt lat="30.9290400" lon="34.9782200">
<ele>385.179993</ele>
<time>2021-03-13T18:12:29.989Z</time>
</trkpt>
<trkpt lat="30.9294400" lon="34.9785000">
<ele>386.360016</ele>
<time>2021-03-13T18:12:29.989Z</time>
</trkpt>
<trkpt lat="30.9298300" lon="34.9787800">
<ele>376.640015</ele>
<time>2021-03-13T18:12:29.989Z</time>
</trkpt>
<trkpt lat="30.9300400" lon="34.9788900">
<ele>373.720001</ele>
<time>2021-03-13T18:12:29.989Z</time>
</trkpt>
<trkpt lat="30.9307200" lon="34.9790000">
<ele>379.329987</ele>
<time>2021-03-13T18:12:29.989Z</time>
</trkpt>
<trkpt lat="30.9311800" lon="34.9791800">
<ele>376.500000</ele>
<time>2021-03-13T18:12:29.989Z</time>
</trkpt>
<trkpt lat="30.9316400" lon="34.9793500">
<ele>375.690002</ele>
<time>2021-03-13T18:12:29.990Z</time>
</trkpt>
<trkpt lat="30.9320700" lon="34.9795100">
<ele>376.109985</ele>
<time>2021-03-13T18:12:29.990Z</time>
</trkpt>
<trkpt lat="30.9325600" lon="34.9798700">
<ele>375.779999</ele>
<time>2021-03-13T18:12:29.990Z</time>
</trkpt>
<trkpt lat="30.9330400" lon="34.9802300">
<ele>369.949982</ele>
<time>2021-03-13T18:12:29.990Z</time>
</trkpt>
<trkpt lat="30.9334300" lon="34.9804500">
<ele>370.050018</ele>
<time>2021-03-13T18:12:29.990Z</time>
</trkpt>
<trkpt lat="30.9341700" lon="34.9808800">
<ele>369.809998</ele>
<time>2021-03-13T18:12:29.990Z</time>
</trkpt>
<trkpt lat="30.9347900" lon="34.9814400">
<ele>371.560028</ele>
<time>2021-03-13T18:12:29.990Z</time>
</trkpt>
<trkpt lat="30.9352800" lon="34.9816700">
<ele>377.040009</ele>
<time>2021-03-13T18:12:29.990Z</time>
</trkpt>
<trkpt lat="30.9352800" lon="34.9816700">
<ele>377.040009</ele>
<time>2021-03-13T18:12:29.990Z</time>
</trkpt>
<trkpt lat="30.9352800" lon="34.9816700">
<ele>377.040009</ele>
<time>2021-03-13T18:12:29.990Z</time>
</trkpt>
<trkpt lat="30.9358700" lon="34.9819500">
<ele>366.529999</ele>
<time>2021-03-13T18:12:29.990Z</time>
</trkpt>
<trkpt lat="30.9366100" lon="34.9824400">
<ele>369.020020</ele>
<time>2021-03-13T18:12:29.990Z</time>
</trkpt>
<trkpt lat="30.9375700" lon="34.9827200">
<ele>361.360016</ele>
<time>2021-03-13T18:12:29.990Z</time>
</trkpt>
<trkpt lat="30.9378900" lon="34.9827300">
<ele>361.700012</ele>
<time>2021-03-13T18:12:29.990Z</time>
</trkpt>
<trkpt lat="30.9381000" lon="34.9828000">
<ele>361.150024</ele>
<time>2021-03-13T18:12:29.990Z</time>
</trkpt>
<trkpt lat="30.9399300" lon="34.9837500">
<ele>353.369995</ele>
<time>2021-03-13T18:12:29.990Z</time>
</trkpt>
<trkpt lat="30.9402200" lon="34.9839100">
<ele>353.830017</ele>
<time>2021-03-13T18:12:29.990Z</time>
</trkpt>
<trkpt lat="30.9409400" lon="34.9845200">
<ele>347.119995</ele>
<time>2021-03-13T18:12:29.990Z</time>
</trkpt>
<trkpt lat="30.9412100" lon="34.9852600">
<ele>344.660004</ele>
<time>2021-03-13T18:12:29.990Z</time>
</trkpt>
<trkpt lat="30.9413300" lon="34.9853900">
<ele>342.850006</ele>
<time>2021-03-13T18:12:29.990Z</time>
</trkpt>
<trkpt lat="30.9418200" lon="34.9857200">
<ele>341.100006</ele>
<time>2021-03-13T18:12:29.990Z</time>
</trkpt>
<trkpt lat="30.9433000" lon="34.9850200">
<ele>340.890015</ele>
<time>2021-03-13T18:12:29.990Z</time>
</trkpt>
<trkpt lat="30.9441400" lon="34.9848600">
<ele>339.260010</ele>
<time>2021-03-13T18:12:29.990Z</time>
</trkpt>
<trkpt lat="30.9453000" lon="34.9848000">
<ele>339.960022</ele>
<time>2021-03-13T18:12:29.990Z</time>
</trkpt>
<trkpt lat="30.9461700" lon="34.9846900">
<ele>341.720001</ele>
<time>2021-03-13T18:12:29.990Z</time>
</trkpt>
<trkpt lat="30.9463400" lon="34.9846200">
<ele>337.659973</ele>
<time>2021-03-13T18:12:29.990Z</time>
</trkpt>
<trkpt lat="30.9464400" lon="34.9846100">
<ele>336.549988</ele>
<time>2021-03-13T18:12:29.991Z</time>
</trkpt>
<trkpt lat="30.9466800" lon="34.9845300">
<ele>335.559998</ele>
<time>2021-03-13T18:12:29.991Z</time>
</trkpt>
<trkpt lat="30.9468300" lon="34.9844100">
<ele>338.479980</ele>
<time>2021-03-13T18:12:29.991Z</time>
</trkpt>
<trkpt lat="30.9469400" lon="34.9843100">
<ele>340.489990</ele>
<time>2021-03-13T18:12:29.991Z</time>
</trkpt>
<trkpt lat="30.9471500" lon="34.9839600">
<ele>345.160004</ele>
<time>2021-03-13T18:12:29.991Z</time>
</trkpt>
<trkpt lat="30.9473800" lon="34.9836500">
<ele>349.019989</ele>
<time>2021-03-13T18:12:29.991Z</time>
</trkpt>
<trkpt lat="30.9478400" lon="34.9831200">
<ele>351.619995</ele>
<time>2021-03-13T18:12:29.991Z</time>
</trkpt>
<trkpt lat="30.9480100" lon="34.9830500">
<ele>353.690002</ele>
<time>2021-03-13T18:12:29.991Z</time>
</trkpt>
<trkpt lat="30.9480900" lon="34.9829700">
<ele>354.210022</ele>
<time>2021-03-13T18:12:29.991Z</time>
</trkpt>
<trkpt lat="30.9481600" lon="34.9827300">
<ele>354.290009</ele>
<time>2021-03-13T18:12:29.991Z</time>
</trkpt>
<trkpt lat="30.9482800" lon="34.9825200">
<ele>352.739990</ele>
<time>2021-03-13T18:12:29.991Z</time>
</trkpt>
<trkpt lat="30.9486700" lon="34.9820900">
<ele>353.270020</ele>
<time>2021-03-13T18:12:29.991Z</time>
</trkpt>
<trkpt lat="30.9488200" lon="34.9819800">
<ele>356.400024</ele>
<time>2021-03-13T18:12:29.991Z</time>
</trkpt>
<trkpt lat="30.9488700" lon="34.9819200">
<ele>357.200012</ele>
<time>2021-03-13T18:12:29.991Z</time>
</trkpt>
<trkpt lat="30.9491300" lon="34.9817100">
<ele>363.009979</ele>
<time>2021-03-13T18:12:29.991Z</time>
</trkpt>
<trkpt lat="30.9492300" lon="34.9816800">
<ele>364.499969</ele>
<time>2021-03-13T18:12:29.992Z</time>
</trkpt>
<trkpt lat="30.9493200" lon="34.9816100">
<ele>364.490021</ele>
<time>2021-03-13T18:12:29.992Z</time>
</trkpt>
<trkpt lat="30.9495200" lon="34.9815000">
<ele>364.740021</ele>
<time>2021-03-13T18:12:29.992Z</time>
</trkpt>
<trkpt lat="30.9496200" lon="34.9814700">
<ele>365.139984</ele>
<time>2021-03-13T18:12:29.992Z</time>
</trkpt>
<trkpt lat="30.9499300" lon="34.9813500">
<ele>365.010010</ele>
<time>2021-03-13T18:12:29.992Z</time>
</trkpt>
<trkpt lat="30.9500900" lon="34.9812600">
<ele>362.570007</ele>
<time>2021-03-13T18:12:29.993Z</time>
</trkpt>
<trkpt lat="30.9502300" lon="34.9812100">
<ele>360.479980</ele>
<time>2021-03-13T18:12:29.993Z</time>
</trkpt>
<trkpt lat="30.9507300" lon="34.9809900">
<ele>361.190002</ele>
<time>2021-03-13T18:12:29.993Z</time>
</trkpt>
<trkpt lat="30.9508200" lon="34.9809300">
<ele>362.750000</ele>
<time>2021-03-13T18:12:29.993Z</time>
</trkpt>
<trkpt lat="30.9509000" lon="34.9809000">
<ele>363.660004</ele>
<time>2021-03-13T18:12:29.993Z</time>
</trkpt>
<trkpt lat="30.9509000" lon="34.9809000">
<ele>363.660004</ele>
<time>2021-03-13T18:12:29.993Z</time>
</trkpt>
<trkpt lat="30.9509000" lon="34.9809000">
<ele>363.660004</ele>
<time>2021-03-13T18:12:29.993Z</time>
</trkpt>
<trkpt lat="30.9510600" lon="34.9808400">
<ele>365.430023</ele>
<time>2021-03-13T18:12:29.993Z</time>
</trkpt>
<trkpt lat="30.9513500" lon="34.9808400">
<ele>365.929993</ele>
<time>2021-03-13T18:12:29.993Z</time>
</trkpt>
<trkpt lat="30.9514500" lon="34.9808800">
<ele>365.750000</ele>
<time>2021-03-13T18:12:29.993Z</time>
</trkpt>
<trkpt lat="30.9520100" lon="34.9810000">
<ele>362.180023</ele>
<time>2021-03-13T18:12:29.993Z</time>
</trkpt>
<trkpt lat="30.9522300" lon="34.9810100">
<ele>354.630005</ele>
<time>2021-03-13T18:12:29.993Z</time>
</trkpt>
<trkpt lat="30.9522900" lon="34.9810500">
<ele>352.529999</ele>
<time>2021-03-13T18:12:29.993Z</time>
</trkpt>
<trkpt lat="30.9526500" lon="34.9810500">
<ele>347.059998</ele>
<time>2021-03-13T18:12:29.993Z</time>
</trkpt>
<trkpt lat="30.9527200" lon="34.9810800">
<ele>346.109985</ele>
<time>2021-03-13T18:12:29.993Z</time>
</trkpt>
<trkpt lat="30.9527900" lon="34.9810900">
<ele>345.700012</ele>
<time>2021-03-13T18:12:29.993Z</time>
</trkpt>
<trkpt lat="30.9531900" lon="34.9811000">
<ele>354.529999</ele>
<time>2021-03-13T18:12:29.993Z</time>
</trkpt>
<trkpt lat="30.9532900" lon="34.9811300">
<ele>358.249969</ele>
<time>2021-03-13T18:12:29.993Z</time>
</trkpt>
<trkpt lat="30.9536900" lon="34.9811400">
<ele>362.329987</ele>
<time>2021-03-13T18:12:29.993Z</time>
</trkpt>
<trkpt lat="30.9537900" lon="34.9811700">
<ele>363.670013</ele>
<time>2021-03-13T18:12:29.993Z</time>
</trkpt>
<trkpt lat="30.9540800" lon="34.9811900">
<ele>366.389984</ele>
<time>2021-03-13T18:12:29.993Z</time>
</trkpt>
<trkpt lat="30.9541500" lon="34.9812100">
<ele>366.790009</ele>
<time>2021-03-13T18:12:29.993Z</time>
</trkpt>
<trkpt lat="30.9546200" lon="34.9812300">
<ele>380.550018</ele>
<time>2021-03-13T18:12:29.993Z</time>
</trkpt>
<trkpt lat="30.9547600" lon="34.9812600">
<ele>381.339996</ele>
<time>2021-03-13T18:12:29.994Z</time>
</trkpt>
<trkpt lat="30.9549000" lon="34.9812300">
<ele>383.480011</ele>
<time>2021-03-13T18:12:29.994Z</time>
</trkpt>
<trkpt lat="30.9550400" lon="34.9812600">
<ele>384.260010</ele>
<time>2021-03-13T18:12:29.994Z</time>
</trkpt>
<trkpt lat="30.9552100" lon="34.9812600">
<ele>383.690002</ele>
<time>2021-03-13T18:12:29.994Z</time>
</trkpt>
<trkpt lat="30.9552100" lon="34.9812600">
<ele>383.690002</ele>
<time>2021-03-13T18:12:29.994Z</time>
</trkpt>
<trkpt lat="30.9552100" lon="34.9812600">
<ele>383.690002</ele>
<time>2021-03-13T18:12:29.994Z</time>
</trkpt>
<trkpt lat="30.9556900" lon="34.9812700">
<ele>380.779999</ele>
<time>2021-03-13T18:12:29.994Z</time>
</trkpt>
<trkpt lat="30.9559000" lon="34.9813100">
<ele>380.120026</ele>
<time>2021-03-13T18:12:29.994Z</time>
</trkpt>
<trkpt lat="30.9559600" lon="34.9813400">
<ele>379.390015</ele>
<time>2021-03-13T18:12:29.994Z</time>
</trkpt>
<trkpt lat="30.9562100" lon="34.9813500">
<ele>378.040009</ele>
<time>2021-03-13T18:12:29.994Z</time>
</trkpt>
<trkpt lat="30.9563200" lon="34.9813900">
<ele>374.989990</ele>
<time>2021-03-13T18:12:29.994Z</time>
</trkpt>
<trkpt lat="30.9566800" lon="34.9813900">
<ele>378.360016</ele>
<time>2021-03-13T18:12:29.994Z</time>
</trkpt>
<trkpt lat="30.9568200" lon="34.9814300">
<ele>381.769989</ele>
<time>2021-03-13T18:12:29.994Z</time>
</trkpt>
<trkpt lat="30.9572100" lon="34.9814400">
<ele>388.489990</ele>
<time>2021-03-13T18:12:29.994Z</time>
</trkpt>
<trkpt lat="30.9573500" lon="34.9814800">
<ele>388.970001</ele>
<time>2021-03-13T18:12:29.994Z</time>
</trkpt>
<trkpt lat="30.9576100" lon="34.9814800">
<ele>390.630005</ele>
<time>2021-03-13T18:12:29.994Z</time>
</trkpt>
<trkpt lat="30.9577100" lon="34.9815200">
<ele>390.559998</ele>
<time>2021-03-13T18:12:29.994Z</time>
</trkpt>
<trkpt lat="30.9579300" lon="34.9815300">
<ele>391.250031</ele>
<time>2021-03-13T18:12:29.994Z</time>
</trkpt>
<trkpt lat="30.9580300" lon="34.9815600">
<ele>391.279999</ele>
<time>2021-03-13T18:12:29.994Z</time>
</trkpt>
<trkpt lat="30.9581700" lon="34.9815700">
<ele>392.600006</ele>
<time>2021-03-13T18:12:29.994Z</time>
</trkpt>
<trkpt lat="30.9582800" lon="34.9816100">
<ele>393.309998</ele>
<time>2021-03-13T18:12:29.995Z</time>
</trkpt>
<trkpt lat="30.9584600" lon="34.9816200">
<ele>395.950012</ele>
<time>2021-03-13T18:12:29.995Z</time>
</trkpt>
<trkpt lat="30.9587700" lon="34.9816900">
<ele>401.080017</ele>
<time>2021-03-13T18:12:29.995Z</time>
</trkpt>
<trkpt lat="30.9589900" lon="34.9817100">
<ele>405.930023</ele>
<time>2021-03-13T18:12:29.995Z</time>
</trkpt>
<trkpt lat="30.9591100" lon="34.9817900">
<ele>408.240021</ele>
<time>2021-03-13T18:12:29.995Z</time>
</trkpt>
<trkpt lat="30.9591700" lon="34.9818500">
<ele>409.380005</ele>
<time>2021-03-13T18:12:29.995Z</time>
</trkpt>
<trkpt lat="30.9592300" lon="34.9818800">
<ele>409.990021</ele>
<time>2021-03-13T18:12:29.995Z</time>
</trkpt>
<trkpt lat="30.9593800" lon="34.9820000">
<ele>411.889984</ele>
<time>2021-03-13T18:12:29.995Z</time>
</trkpt>
<trkpt lat="30.9595100" lon="34.9821400">
<ele>413.170013</ele>
<time>2021-03-13T18:12:29.995Z</time>
</trkpt>
<trkpt lat="30.9596800" lon="34.9823600">
<ele>413.699982</ele>
<time>2021-03-13T18:12:29.995Z</time>
</trkpt>
<trkpt lat="30.9598700" lon="34.9826600">
<ele>416.179993</ele>
<time>2021-03-13T18:12:29.995Z</time>
</trkpt>
<trkpt lat="30.9599700" lon="34.9827800">
<ele>416.989990</ele>
<time>2021-03-13T18:12:29.995Z</time>
</trkpt>
<trkpt lat="30.9600800" lon="34.9826600">
<ele>418.139984</ele>
<time>2021-03-13T18:12:29.995Z</time>
</trkpt>
<trkpt lat="30.9602800" lon="34.9824000">
<ele>420.929993</ele>
<time>2021-03-13T18:12:29.995Z</time>
</trkpt>
<trkpt lat="30.9604200" lon="34.9822800">
<ele>419.429993</ele>
<time>2021-03-13T18:12:29.995Z</time>
</trkpt>
<trkpt lat="30.9604900" lon="34.9822200">
<ele>418.210022</ele>
<time>2021-03-13T18:12:29.995Z</time>
</trkpt>
<trkpt lat="30.9605400" lon="34.9821800">
<ele>417.600006</ele>
<time>2021-03-13T18:12:29.995Z</time>
</trkpt>
<trkpt lat="30.9606000" lon="34.9821500">
<ele>417.899994</ele>
<time>2021-03-13T18:12:29.995Z</time>
</trkpt>
<trkpt lat="30.9607900" lon="34.9821200">
<ele>420.579987</ele>
<time>2021-03-13T18:12:29.995Z</time>
</trkpt>
<trkpt lat="30.9607900" lon="34.9821200">
<ele>420.579987</ele>
<time>2021-03-13T18:12:29.995Z</time>
</trkpt>
<trkpt lat="30.9607900" lon="34.9821200">
<ele>420.579987</ele>
<time>2021-03-13T18:12:29.995Z</time>
</trkpt>
<trkpt lat="30.9608800" lon="34.9821000">
<ele>421.119995</ele>
<time>2021-03-13T18:12:29.995Z</time>
</trkpt>
<trkpt lat="30.9609600" lon="34.9821800">
<ele>421.699982</ele>
<time>2021-03-13T18:12:29.995Z</time>
</trkpt>
<trkpt lat="30.9608000" lon="34.9824500">
<ele>422.110016</ele>
<time>2021-03-13T18:12:29.995Z</time>
</trkpt>
<trkpt lat="30.9607600" lon="34.9826100">
<ele>422.030029</ele>
<time>2021-03-13T18:12:29.996Z</time>
</trkpt>
<trkpt lat="30.9608300" lon="34.9827700">
<ele>421.040009</ele>
<time>2021-03-13T18:12:29.996Z</time>
</trkpt>
<trkpt lat="30.9609500" lon="34.9829600">
<ele>421.250000</ele>
<time>2021-03-13T18:12:29.996Z</time>
</trkpt>
<trkpt lat="30.9610300" lon="34.9831600">
<ele>421.670013</ele>
<time>2021-03-13T18:12:29.996Z</time>
</trkpt>
<trkpt lat="30.9610600" lon="34.9833800">
<ele>419.910004</ele>
<time>2021-03-13T18:12:29.996Z</time>
</trkpt>
<trkpt lat="30.9610500" lon="34.9836000">
<ele>418.940002</ele>
<time>2021-03-13T18:12:29.996Z</time>
</trkpt>
<trkpt lat="30.9610500" lon="34.9837800">
<ele>418.220032</ele>
<time>2021-03-13T18:12:29.996Z</time>
</trkpt>
<trkpt lat="30.9616300" lon="34.9830200">
<ele>428.140015</ele>
<time>2021-03-13T18:12:29.996Z</time>
</trkpt>
<trkpt lat="30.9617300" lon="34.9829100">
<ele>426.679993</ele>
<time>2021-03-13T18:12:29.996Z</time>
</trkpt>
<trkpt lat="30.9617300" lon="34.9829100">
<ele>426.679993</ele>
<time>2021-03-13T18:12:29.996Z</time>
</trkpt>
<trkpt lat="30.9617300" lon="34.9829100">
<ele>426.679993</ele>
<time>2021-03-13T18:12:29.996Z</time>
</trkpt>
<trkpt lat="30.9621100" lon="34.9825100">
<ele>424.250000</ele>
<time>2021-03-13T18:12:29.996Z</time>
</trkpt>
<trkpt lat="30.9624500" lon="34.9822500">
<ele>425.820007</ele>
<time>2021-03-13T18:12:29.996Z</time>
</trkpt>
<trkpt lat="30.9630900" lon="34.9819000">
<ele>429.000000</ele>
<time>2021-03-13T18:12:29.996Z</time>
</trkpt>
<trkpt lat="30.9639800" lon="34.9815400">
<ele>431.220001</ele>
<time>2021-03-13T18:12:29.996Z</time>
</trkpt>
<trkpt lat="30.9667600" lon="34.9807200">
<ele>457.799988</ele>
<time>2021-03-13T18:12:29.996Z</time>
</trkpt>
<trkpt lat="30.9669900" lon="34.9806400">
<ele>463.399994</ele>
<time>2021-03-13T18:12:29.996Z</time>
</trkpt>
<trkpt lat="30.9672200" lon="34.9805000">
<ele>468.149994</ele>
<time>2021-03-13T18:12:29.996Z</time>
</trkpt>
<trkpt lat="30.9676700" lon="34.9800400">
<ele>472.419983</ele>
<time>2021-03-13T18:12:29.996Z</time>
</trkpt>
<trkpt lat="30.9681000" lon="34.9797000">
<ele>483.630005</ele>
<time>2021-03-13T18:12:29.996Z</time>
</trkpt>
<trkpt lat="30.9685100" lon="34.9794400">
<ele>491.240021</ele>
<time>2021-03-13T18:12:29.996Z</time>
</trkpt>
<trkpt lat="30.9685700" lon="34.9793200">
<ele>493.180023</ele>
<time>2021-03-13T18:12:29.996Z</time>
</trkpt>
<trkpt lat="30.9686100" lon="34.9792000">
<ele>494.190002</ele>
<time>2021-03-13T18:12:29.996Z</time>
</trkpt>
<trkpt lat="30.9686200" lon="34.9790600">
<ele>494.019989</ele>
<time>2021-03-13T18:12:29.996Z</time>
</trkpt>
<trkpt lat="30.9685800" lon="34.9788100">
<ele>492.589996</ele>
<time>2021-03-13T18:12:29.996Z</time>
</trkpt>
<trkpt lat="30.9685700" lon="34.9787000">
<ele>493.309967</ele>
<time>2021-03-13T18:12:29.997Z</time>
</trkpt>
<trkpt lat="30.9686100" lon="34.9786100">
<ele>495.970001</ele>
<time>2021-03-13T18:12:29.997Z</time>
</trkpt>
<trkpt lat="30.9686900" lon="34.9785800">
<ele>500.220001</ele>
<time>2021-03-13T18:12:29.997Z</time>
</trkpt>
<trkpt lat="30.9687700" lon="34.9786000">
<ele>503.610016</ele>
<time>2021-03-13T18:12:29.997Z</time>
</trkpt>
<trkpt lat="30.9688500" lon="34.9786600">
<ele>506.799988</ele>
<time>2021-03-13T18:12:29.997Z</time>
</trkpt>
<trkpt lat="30.9689200" lon="34.9787800">
<ele>508.609985</ele>
<time>2021-03-13T18:12:29.997Z</time>
</trkpt>
<trkpt lat="30.9689700" lon="34.9789000">
<ele>509.000000</ele>
<time>2021-03-13T18:12:29.997Z</time>
</trkpt>
<trkpt lat="30.9690000" lon="34.9790500">
<ele>509.220001</ele>
<time>2021-03-13T18:12:29.997Z</time>
</trkpt>
<trkpt lat="30.9689900" lon="34.9792500">
<ele>508.440002</ele>
<time>2021-03-13T18:12:29.997Z</time>
</trkpt>
<trkpt lat="30.9687000" lon="34.9797700">
<ele>502.609985</ele>
<time>2021-03-13T18:12:29.997Z</time>
</trkpt>
<trkpt lat="30.9686300" lon="34.9799300">
<ele>503.399994</ele>
<time>2021-03-13T18:12:29.997Z</time>
</trkpt>
<trkpt lat="30.9685900" lon="34.9801100">
<ele>501.820007</ele>
<time>2021-03-13T18:12:29.997Z</time>
</trkpt>
<trkpt lat="30.9685800" lon="34.9802700">
<ele>499.430023</ele>
<time>2021-03-13T18:12:29.997Z</time>
</trkpt>
<trkpt lat="30.9686100" lon="34.9803900">
<ele>497.549988</ele>
<time>2021-03-13T18:12:29.997Z</time>
</trkpt>
<trkpt lat="30.9687000" lon="34.9804600">
<ele>497.970001</ele>
<time>2021-03-13T18:12:29.997Z</time>
</trkpt>
<trkpt lat="30.9688000" lon="34.9804700">
<ele>499.980011</ele>
<time>2021-03-13T18:12:29.997Z</time>
</trkpt>
<trkpt lat="30.9688900" lon="34.9804000">
<ele>502.729980</ele>
<time>2021-03-13T18:12:29.997Z</time>
</trkpt>
<trkpt lat="30.9689600" lon="34.9802800">
<ele>506.549988</ele>
<time>2021-03-13T18:12:29.997Z</time>
</trkpt>
<trkpt lat="30.9690000" lon="34.9800800">
<ele>510.279999</ele>
<time>2021-03-13T18:12:29.997Z</time>
</trkpt>
<trkpt lat="30.9690100" lon="34.9799800">
<ele>511.110016</ele>
<time>2021-03-13T18:12:29.997Z</time>
</trkpt>
<trkpt lat="30.9690300" lon="34.9798800">
<ele>510.449982</ele>
<time>2021-03-13T18:12:29.997Z</time>
</trkpt>
<trkpt lat="30.9690900" lon="34.9797500">
<ele>510.529999</ele>
<time>2021-03-13T18:12:29.997Z</time>
</trkpt>
<trkpt lat="30.9693400" lon="34.9793800">
<ele>519.390015</ele>
<time>2021-03-13T18:12:29.997Z</time>
</trkpt>
<trkpt lat="30.9694000" lon="34.9791000">
<ele>524.359985</ele>
<time>2021-03-13T18:12:29.997Z</time>
</trkpt>
<trkpt lat="30.9694000" lon="34.9788700">
<ele>526.019958</ele>
<time>2021-03-13T18:12:29.997Z</time>
</trkpt>
<trkpt lat="30.9693700" lon="34.9786100">
<ele>528.000000</ele>
<time>2021-03-13T18:12:29.998Z</time>
</trkpt>
<trkpt lat="30.9693400" lon="34.9784100">
<ele>529.440002</ele>
<time>2021-03-13T18:12:29.998Z</time>
</trkpt>
<trkpt lat="30.9692600" lon="34.9781900">
<ele>528.630005</ele>
<time>2021-03-13T18:12:29.998Z</time>
</trkpt>
<trkpt lat="30.9691500" lon="34.9780700">
<ele>526.159973</ele>
<time>2021-03-13T18:12:29.998Z</time>
</trkpt>
<trkpt lat="30.9690400" lon="34.9779600">
<ele>525.760010</ele>
<time>2021-03-13T18:12:29.998Z</time>
</trkpt>
<trkpt lat="30.9689100" lon="34.9778200">
<ele>525.540039</ele>
<time>2021-03-13T18:12:29.998Z</time>
</trkpt>
<trkpt lat="30.9688800" lon="34.9777200">
<ele>526.799988</ele>
<time>2021-03-13T18:12:29.998Z</time>
</trkpt>
<trkpt lat="30.9688800" lon="34.9777200">
<ele>526.799988</ele>
<time>2021-03-13T18:12:29.998Z</time>
</trkpt>
<trkpt lat="30.9688800" lon="34.9777200">
<ele>526.799988</ele>
<time>2021-03-13T18:12:29.998Z</time>
</trkpt>
<trkpt lat="30.9688700" lon="34.9776500">
<ele>527.820007</ele>
<time>2021-03-13T18:12:29.998Z</time>
</trkpt>
<trkpt lat="30.9689100" lon="34.9774200">
<ele>532.030029</ele>
<time>2021-03-13T18:12:29.998Z</time>
</trkpt>
<trkpt lat="30.9689700" lon="34.9772900">
<ele>534.459961</ele>
<time>2021-03-13T18:12:29.998Z</time>
</trkpt>
<trkpt lat="30.9690900" lon="34.9771700">
<ele>538.190002</ele>
<time>2021-03-13T18:12:29.998Z</time>
</trkpt>
<trkpt lat="30.9695300" lon="34.9768100">
<ele>554.500000</ele>
<time>2021-03-13T18:12:29.998Z</time>
</trkpt>
<trkpt lat="30.9695800" lon="34.9767400">
<ele>556.849976</ele>
<time>2021-03-13T18:12:29.998Z</time>
</trkpt>
<trkpt lat="30.9696000" lon="34.9766200">
<ele>557.380005</ele>
<time>2021-03-13T18:12:29.998Z</time>
</trkpt>
<trkpt lat="30.9696100" lon="34.9765100">
<ele>557.020020</ele>
<time>2021-03-13T18:12:29.998Z</time>
</trkpt>
<trkpt lat="30.9696000" lon="34.9763800">
<ele>555.549988</ele>
<time>2021-03-13T18:12:29.998Z</time>
</trkpt>
<trkpt lat="30.9695900" lon="34.9762500">
<ele>552.549988</ele>
<time>2021-03-13T18:12:29.998Z</time>
</trkpt>
<trkpt lat="30.9696200" lon="34.9761500">
<ele>551.969971</ele>
<time>2021-03-13T18:12:29.998Z</time>
</trkpt>
<trkpt lat="30.9696700" lon="34.9761100">
<ele>553.530029</ele>
<time>2021-03-13T18:12:29.998Z</time>
</trkpt>
<trkpt lat="30.9697300" lon="34.9760900">
<ele>555.559998</ele>
<time>2021-03-13T18:12:29.999Z</time>
</trkpt>
<trkpt lat="30.9699800" lon="34.9761300">
<ele>559.250000</ele>
<time>2021-03-13T18:12:29.999Z</time>
</trkpt>
<trkpt lat="30.9700400" lon="34.9761500">
<ele>561.670044</ele>
<time>2021-03-13T18:12:29.999Z</time>
</trkpt>
<trkpt lat="30.9701700" lon="34.9761100">
<ele>566.320007</ele>
<time>2021-03-13T18:12:29.999Z</time>
</trkpt>
<trkpt lat="30.9703100" lon="34.9759400">
<ele>569.450012</ele>
<time>2021-03-13T18:12:29.999Z</time>
</trkpt>
<trkpt lat="30.9704600" lon="34.9756200">
<ele>571.850037</ele>
<time>2021-03-13T18:12:29.999Z</time>
</trkpt>
<trkpt lat="30.9706900" lon="34.9747200">
<ele>564.229980</ele>
<time>2021-03-13T18:12:29.999Z</time>
</trkpt>
<trkpt lat="30.9707800" lon="34.9744500">
<ele>562.059998</ele>
<time>2021-03-13T18:12:29.999Z</time>
</trkpt>
<trkpt lat="30.9708900" lon="34.9743600">
<ele>565.590027</ele>
<time>2021-03-13T18:12:29.999Z</time>
</trkpt>
<trkpt lat="30.9717500" lon="34.9738100">
<ele>582.419983</ele>
<time>2021-03-13T18:12:29.999Z</time>
</trkpt>
<trkpt lat="30.9718900" lon="34.9735700">
<ele>585.349976</ele>
<time>2021-03-13T18:12:29.999Z</time>
</trkpt>
<trkpt lat="30.9718900" lon="34.9733500">
<ele>585.989990</ele>
<time>2021-03-13T18:12:29.999Z</time>
</trkpt>
<trkpt lat="30.9718800" lon="34.9728100">
<ele>584.469971</ele>
<time>2021-03-13T18:12:29.999Z</time>
</trkpt>
<trkpt lat="30.9717100" lon="34.9712800">
<ele>579.950012</ele>
<time>2021-03-13T18:12:29.999Z</time>
</trkpt>
<trkpt lat="30.9717400" lon="34.9709600">
<ele>577.500000</ele>
<time>2021-03-13T18:12:29.999Z</time>
</trkpt>
<trkpt lat="30.9716600" lon="34.9705700">
<ele>574.010010</ele>
<time>2021-03-13T18:12:29.999Z</time>
</trkpt>
<trkpt lat="30.9716200" lon="34.9704400">
<ele>573.589966</ele>
<time>2021-03-13T18:12:29.999Z</time>
</trkpt>
<trkpt lat="30.9716000" lon="34.9700900">
<ele>572.280029</ele>
<time>2021-03-13T18:12:29.999Z</time>
</trkpt>
<trkpt lat="30.9715500" lon="34.9699000">
<ele>570.900024</ele>
<time>2021-03-13T18:12:29.999Z</time>
</trkpt>
<trkpt lat="30.9715000" lon="34.9698100">
<ele>570.000000</ele>
<time>2021-03-13T18:12:29.999Z</time>
</trkpt>
<trkpt lat="30.9713900" lon="34.9697000">
<ele>567.859985</ele>
<time>2021-03-13T18:12:29.999Z</time>
</trkpt>
<trkpt lat="30.9712600" lon="34.9696400">
<ele>568.940002</ele>
<time>2021-03-13T18:12:29.999Z</time>
</trkpt>
<trkpt lat="30.9711300" lon="34.9696000">
<ele>570.330017</ele>
<time>2021-03-13T18:12:29.999Z</time>
</trkpt>
<trkpt lat="30.9711300" lon="34.9696000">
<ele>570.330017</ele>
<time>2021-03-13T18:12:30.000Z</time>
</trkpt>
<trkpt lat="30.9711300" lon="34.9696000">
<ele>570.330017</ele>
<time>2021-03-13T18:12:30.000Z</time>
</trkpt>
<trkpt lat="30.9710600" lon="34.9695800">
<ele>571.130005</ele>
<time>2021-03-13T18:12:30.000Z</time>
</trkpt>
<trkpt lat="30.9705900" lon="34.9694900">
<ele>576.829956</ele>
<time>2021-03-13T18:12:30.000Z</time>
</trkpt>
<trkpt lat="30.9701800" lon="34.9694600">
<ele>574.760010</ele>
<time>2021-03-13T18:12:30.000Z</time>
</trkpt>
<trkpt lat="30.9699700" lon="34.9694200">
<ele>576.700012</ele>
<time>2021-03-13T18:12:30.000Z</time>
</trkpt>
<trkpt lat="30.9699000" lon="34.9693900">
<ele>578.080017</ele>
<time>2021-03-13T18:12:30.000Z</time>
</trkpt>
<trkpt lat="30.9693400" lon="34.9690700">
<ele>592.510010</ele>
<time>2021-03-13T18:12:30.000Z</time>
</trkpt>
<trkpt lat="30.9690800" lon="34.9689600">
<ele>597.169983</ele>
<time>2021-03-13T18:12:30.000Z</time>
</trkpt>
<trkpt lat="30.9687700" lon="34.9688500">
<ele>601.230042</ele>
<time>2021-03-13T18:12:30.000Z</time>
</trkpt>
<trkpt lat="30.9686600" lon="34.9688300">
<ele>601.780029</ele>
<time>2021-03-13T18:12:30.000Z</time>
</trkpt>
<trkpt lat="30.9683100" lon="34.9688400">
<ele>600.780029</ele>
<time>2021-03-13T18:12:30.000Z</time>
</trkpt>
<trkpt lat="30.9682100" lon="34.9688000">
<ele>602.290039</ele>
<time>2021-03-13T18:12:30.000Z</time>
</trkpt>
<trkpt lat="30.9681400" lon="34.9687500">
<ele>603.589966</ele>
<time>2021-03-13T18:12:30.000Z</time>
</trkpt>
<trkpt lat="30.9680400" lon="34.9686600">
<ele>605.510010</ele>
<time>2021-03-13T18:12:30.000Z</time>
</trkpt>
<trkpt lat="30.9679900" lon="34.9685800">
<ele>606.090027</ele>
<time>2021-03-13T18:12:30.000Z</time>
</trkpt>
<trkpt lat="30.9679400" lon="34.9684500">
<ele>606.339966</ele>
<time>2021-03-13T18:12:30.000Z</time>
</trkpt>
<trkpt lat="30.9678500" lon="34.9681700">
<ele>608.020020</ele>
<time>2021-03-13T18:12:30.000Z</time>
</trkpt>
<trkpt lat="30.9678100" lon="34.9680900">
<ele>608.739990</ele>
<time>2021-03-13T18:12:30.000Z</time>
</trkpt>
<trkpt lat="30.9677500" lon="34.9680500">
<ele>609.279968</ele>
<time>2021-03-13T18:12:30.000Z</time>
</trkpt>
<trkpt lat="30.9676800" lon="34.9680500">
<ele>609.790039</ele>
<time>2021-03-13T18:12:30.000Z</time>
</trkpt>
<trkpt lat="30.9673800" lon="34.9680900">
<ele>613.000000</ele>
<time>2021-03-13T18:12:30.000Z</time>
</trkpt>
<trkpt lat="30.9672900" lon="34.9680800">
<ele>614.580017</ele>
<time>2021-03-13T18:12:30.000Z</time>
</trkpt>
<trkpt lat="30.9671300" lon="34.9680100">
<ele>617.110046</ele>
<time>2021-03-13T18:12:30.000Z</time>
</trkpt>
<trkpt lat="30.9670300" lon="34.9679200">
<ele>617.700012</ele>
<time>2021-03-13T18:12:30.000Z</time>
</trkpt>
<trkpt lat="30.9669500" lon="34.9678100">
<ele>617.239990</ele>
<time>2021-03-13T18:12:30.001Z</time>
</trkpt>
<trkpt lat="30.9665900" lon="34.9671900">
<ele>620.390015</ele>
<time>2021-03-13T18:12:30.001Z</time>
</trkpt>
<trkpt lat="30.9665500" lon="34.9670800">
<ele>620.929993</ele>
<time>2021-03-13T18:12:30.001Z</time>
</trkpt>
<trkpt lat="30.9665700" lon="34.9668700">
<ele>621.799988</ele>
<time>2021-03-13T18:12:30.001Z</time>
</trkpt>
<trkpt lat="30.9665200" lon="34.9667900">
<ele>622.669983</ele>
<time>2021-03-13T18:12:30.001Z</time>
</trkpt>
<trkpt lat="30.9664400" lon="34.9668400">
<ele>622.809998</ele>
<time>2021-03-13T18:12:30.001Z</time>
</trkpt>
<trkpt lat="30.9662700" lon="34.9668800">
<ele>625.520020</ele>
<time>2021-03-13T18:12:30.001Z</time>
</trkpt>
<trkpt lat="30.9662100" lon="34.9668500">
<ele>626.859985</ele>
<time>2021-03-13T18:12:30.001Z</time>
</trkpt>
<trkpt lat="30.9661700" lon="34.9667000">
<ele>626.779968</ele>
<time>2021-03-13T18:12:30.001Z</time>
</trkpt>
<trkpt lat="30.9660600" lon="34.9659600">
<ele>617.580017</ele>
<time>2021-03-13T18:12:30.001Z</time>
</trkpt>
<trkpt lat="30.9660300" lon="34.9658700">
<ele>616.909973</ele>
<time>2021-03-13T18:12:30.001Z</time>
</trkpt>
<trkpt lat="30.9659700" lon="34.9658100">
<ele>617.080017</ele>
<time>2021-03-13T18:12:30.001Z</time>
</trkpt>
<trkpt lat="30.9659300" lon="34.9658100">
<ele>617.840027</ele>
<time>2021-03-13T18:12:30.001Z</time>
</trkpt>
<trkpt lat="30.9656300" lon="34.9659400">
<ele>622.679993</ele>
<time>2021-03-13T18:12:30.001Z</time>
</trkpt>
<trkpt lat="30.9653200" lon="34.9659800">
<ele>622.229980</ele>
<time>2021-03-13T18:12:30.001Z</time>
</trkpt>
<trkpt lat="30.9651700" lon="34.9659600">
<ele>620.839966</ele>
<time>2021-03-13T18:12:30.001Z</time>
</trkpt>
<trkpt lat="30.9651000" lon="34.9659300">
<ele>620.080017</ele>
<time>2021-03-13T18:12:30.001Z</time>
</trkpt>
<trkpt lat="30.9650400" lon="34.9658600">
<ele>619.429993</ele>
<time>2021-03-13T18:12:30.001Z</time>
</trkpt>
<trkpt lat="30.9650200" lon="34.9657800">
<ele>619.010010</ele>
<time>2021-03-13T18:12:30.001Z</time>
</trkpt>
<trkpt lat="30.9650500" lon="34.9656300">
<ele>618.679993</ele>
<time>2021-03-13T18:12:30.001Z</time>
</trkpt>
<trkpt lat="30.9652000" lon="34.9651700">
<ele>617.729980</ele>
<time>2021-03-13T18:12:30.001Z</time>
</trkpt>
<trkpt lat="30.9652400" lon="34.9649900">
<ele>617.229980</ele>
<time>2021-03-13T18:12:30.001Z</time>
</trkpt>
<trkpt lat="30.9652500" lon="34.9649100">
<ele>616.809998</ele>
<time>2021-03-13T18:12:30.001Z</time>
</trkpt>
<trkpt lat="30.9652500" lon="34.9648300">
<ele>616.470032</ele>
<time>2021-03-13T18:12:30.001Z</time>
</trkpt>
<trkpt lat="30.9652200" lon="34.9647600">
<ele>616.190002</ele>
<time>2021-03-13T18:12:30.001Z</time>
</trkpt>
<trkpt lat="30.9651700" lon="34.9647600">
<ele>616.239990</ele>
<time>2021-03-13T18:12:30.001Z</time>
</trkpt>
<trkpt lat="30.9650000" lon="34.9648200">
<ele>617.059998</ele>
<time>2021-03-13T18:12:30.002Z</time>
</trkpt>
<trkpt lat="30.9649000" lon="34.9648400">
<ele>617.780029</ele>
<time>2021-03-13T18:12:30.002Z</time>
</trkpt>
<trkpt lat="30.9643800" lon="34.9648200">
<ele>625.170044</ele>
<time>2021-03-13T18:12:30.002Z</time>
</trkpt>
<trkpt lat="30.9643100" lon="34.9647800">
<ele>627.459961</ele>
<time>2021-03-13T18:12:30.002Z</time>
</trkpt>
<trkpt lat="30.9642800" lon="34.9647300">
<ele>628.339966</ele>
<time>2021-03-13T18:12:30.002Z</time>
</trkpt>
<trkpt lat="30.9641300" lon="34.9645200">
<ele>631.900024</ele>
<time>2021-03-13T18:12:30.002Z</time>
</trkpt>
<trkpt lat="30.9641000" lon="34.9644800">
<ele>632.299988</ele>
<time>2021-03-13T18:12:30.002Z</time>
</trkpt>
<trkpt lat="30.9640500" lon="34.9642400">
<ele>632.909973</ele>
<time>2021-03-13T18:12:30.002Z</time>
</trkpt>
<trkpt lat="30.9640500" lon="34.9641600">
<ele>632.820007</ele>
<time>2021-03-13T18:12:30.002Z</time>
</trkpt>
<trkpt lat="30.9640900" lon="34.9640600">
<ele>632.169983</ele>
<time>2021-03-13T18:12:30.002Z</time>
</trkpt>
<trkpt lat="30.9641700" lon="34.9638800">
<ele>630.990051</ele>
<time>2021-03-13T18:12:30.002Z</time>
</trkpt>
<trkpt lat="30.9642000" lon="34.9638000">
<ele>631.040039</ele>
<time>2021-03-13T18:12:30.002Z</time>
</trkpt>
<trkpt lat="30.9642000" lon="34.9636500">
<ele>632.309998</ele>
<time>2021-03-13T18:12:30.002Z</time>
</trkpt>
<trkpt lat="30.9641700" lon="34.9633400">
<ele>632.979980</ele>
<time>2021-03-13T18:12:30.002Z</time>
</trkpt>
<trkpt lat="30.9641700" lon="34.9631500">
<ele>636.950012</ele>
<time>2021-03-13T18:12:30.002Z</time>
</trkpt>
<trkpt lat="30.9641800" lon="34.9630700">
<ele>638.679993</ele>
<time>2021-03-13T18:12:30.002Z</time>
</trkpt>
<trkpt lat="30.9643400" lon="34.9628000">
<ele>636.119995</ele>
<time>2021-03-13T18:12:30.002Z</time>
</trkpt>
<trkpt lat="30.9644100" lon="34.9627300">
<ele>634.760010</ele>
<time>2021-03-13T18:12:30.002Z</time>
</trkpt>
<trkpt lat="30.9644700" lon="34.9627100">
<ele>633.919983</ele>
<time>2021-03-13T18:12:30.002Z</time>
</trkpt>
<trkpt lat="30.9647400" lon="34.9627900">
<ele>630.510010</ele>
<time>2021-03-13T18:12:30.002Z</time>
</trkpt>
<trkpt lat="30.9648100" lon="34.9627800">
<ele>628.170044</ele>
<time>2021-03-13T18:12:30.002Z</time>
</trkpt>
<trkpt lat="30.9649000" lon="34.9627200">
<ele>625.070007</ele>
<time>2021-03-13T18:12:30.002Z</time>
</trkpt>
<trkpt lat="30.9651200" lon="34.9624500">
<ele>621.520020</ele>
<time>2021-03-13T18:12:30.002Z</time>
</trkpt>
<trkpt lat="30.9652500" lon="34.9622600">
<ele>619.440002</ele>
<time>2021-03-13T18:12:30.002Z</time>
</trkpt>
<trkpt lat="30.9654000" lon="34.9621900">
<ele>619.869995</ele>
<time>2021-03-13T18:12:30.002Z</time>
</trkpt>
<trkpt lat="30.9654500" lon="34.9621300">
<ele>619.450012</ele>
<time>2021-03-13T18:12:30.003Z</time>
</trkpt>
<trkpt lat="30.9654900" lon="34.9620000">
<ele>617.669983</ele>
<time>2021-03-13T18:12:30.003Z</time>
</trkpt>
<trkpt lat="30.9654200" lon="34.9616600">
<ele>612.489990</ele>
<time>2021-03-13T18:12:30.003Z</time>
</trkpt>
<trkpt lat="30.9654700" lon="34.9612300">
<ele>609.709961</ele>
<time>2021-03-13T18:12:30.003Z</time>
</trkpt>
<trkpt lat="30.9655300" lon="34.9610400">
<ele>608.160034</ele>
<time>2021-03-13T18:12:30.003Z</time>
</trkpt>
<trkpt lat="30.9655600" lon="34.9608400">
<ele>606.250000</ele>
<time>2021-03-13T18:12:30.003Z</time>
</trkpt>
<trkpt lat="30.9655600" lon="34.9607200">
<ele>605.750000</ele>
<time>2021-03-13T18:12:30.003Z</time>
</trkpt>
<trkpt lat="30.9654700" lon="34.9602200">
<ele>602.059998</ele>
<time>2021-03-13T18:12:30.003Z</time>
</trkpt>
<trkpt lat="30.9654700" lon="34.9600800">
<ele>601.090027</ele>
<time>2021-03-13T18:12:30.003Z</time>
</trkpt>
<trkpt lat="30.9655000" lon="34.9598900">
<ele>600.450012</ele>
<time>2021-03-13T18:12:30.003Z</time>
</trkpt>
<trkpt lat="30.9654900" lon="34.9596100">
<ele>596.720032</ele>
<time>2021-03-13T18:12:30.003Z</time>
</trkpt>
<trkpt lat="30.9655200" lon="34.9592600">
<ele>590.279968</ele>
<time>2021-03-13T18:12:30.003Z</time>
</trkpt>
<trkpt lat="30.9655200" lon="34.9590300">
<ele>585.340027</ele>
<time>2021-03-13T18:12:30.003Z</time>
</trkpt>
<trkpt lat="30.9655600" lon="34.9589300">
<ele>583.919983</ele>
<time>2021-03-13T18:12:30.003Z</time>
</trkpt>
<trkpt lat="30.9656600" lon="34.9587600">
<ele>581.429993</ele>
<time>2021-03-13T18:12:30.003Z</time>
</trkpt>
<trkpt lat="30.9657000" lon="34.9587000">
<ele>580.639954</ele>
<time>2021-03-13T18:12:30.003Z</time>
</trkpt>
<trkpt lat="30.9657000" lon="34.9587000">
<ele>580.639954</ele>
<time>2021-03-13T18:12:30.003Z</time>
</trkpt>
<trkpt lat="30.9657000" lon="34.9587000">
<ele>580.639954</ele>
<time>2021-03-13T18:12:30.003Z</time>
</trkpt>
<trkpt lat="30.9657800" lon="34.9586100">
<ele>579.610046</ele>
<time>2021-03-13T18:12:30.003Z</time>
</trkpt>
<trkpt lat="30.9658700" lon="34.9584700">
<ele>578.940002</ele>
<time>2021-03-13T18:12:30.003Z</time>
</trkpt>
<trkpt lat="30.9659000" lon="34.9583500">
<ele>578.130005</ele>
<time>2021-03-13T18:12:30.003Z</time>
</trkpt>
<trkpt lat="30.9659100" lon="34.9581400">
<ele>578.799988</ele>
<time>2021-03-13T18:12:30.003Z</time>
</trkpt>
<trkpt lat="30.9659300" lon="34.9580300">
<ele>579.109985</ele>
<time>2021-03-13T18:12:30.003Z</time>
</trkpt>
<trkpt lat="30.9663200" lon="34.9575600">
<ele>573.369995</ele>
<time>2021-03-13T18:12:30.003Z</time>
</trkpt>
<trkpt lat="30.9665000" lon="34.9574800">
<ele>571.510010</ele>
<time>2021-03-13T18:12:30.003Z</time>
</trkpt>
<trkpt lat="30.9665900" lon="34.9574000">
<ele>570.419983</ele>
<time>2021-03-13T18:12:30.003Z</time>
</trkpt>
<trkpt lat="30.9666600" lon="34.9573000">
<ele>568.000000</ele>
<time>2021-03-13T18:12:30.004Z</time>
</trkpt>
<trkpt lat="30.9668400" lon="34.9569400">
<ele>565.049988</ele>
<time>2021-03-13T18:12:30.004Z</time>
</trkpt>
<trkpt lat="30.9668900" lon="34.9568700">
<ele>565.419983</ele>
<time>2021-03-13T18:12:30.004Z</time>
</trkpt>
<trkpt lat="30.9670200" lon="34.9567700">
<ele>563.730042</ele>
<time>2021-03-13T18:12:30.004Z</time>
</trkpt>
<trkpt lat="30.9674000" lon="34.9565900">
<ele>552.160034</ele>
<time>2021-03-13T18:12:30.004Z</time>
</trkpt>
<trkpt lat="30.9677900" lon="34.9565700">
<ele>545.839966</ele>
<time>2021-03-13T18:12:30.004Z</time>
</trkpt>
<trkpt lat="30.9679400" lon="34.9565900">
<ele>544.580017</ele>
<time>2021-03-13T18:12:30.004Z</time>
</trkpt>
<trkpt lat="30.9681200" lon="34.9565600">
<ele>543.119995</ele>
<time>2021-03-13T18:12:30.004Z</time>
</trkpt>
<trkpt lat="30.9684200" lon="34.9565700">
<ele>542.929993</ele>
<time>2021-03-13T18:12:30.004Z</time>
</trkpt>
<trkpt lat="30.9686400" lon="34.9565200">
<ele>544.460022</ele>
<time>2021-03-13T18:12:30.004Z</time>
</trkpt>
<trkpt lat="30.9688300" lon="34.9565000">
<ele>542.839966</ele>
<time>2021-03-13T18:12:30.004Z</time>
</trkpt>
<trkpt lat="30.9690300" lon="34.9564300">
<ele>544.270020</ele>
<time>2021-03-13T18:12:30.004Z</time>
</trkpt>
<trkpt lat="30.9692200" lon="34.9564000">
<ele>548.350037</ele>
<time>2021-03-13T18:12:30.004Z</time>
</trkpt>
<trkpt lat="30.9693000" lon="34.9563600">
<ele>550.209961</ele>
<time>2021-03-13T18:12:30.004Z</time>
</trkpt>
<trkpt lat="30.9693800" lon="34.9562600">
<ele>551.059998</ele>
<time>2021-03-13T18:12:30.004Z</time>
</trkpt>
<trkpt lat="30.9694800" lon="34.9560500">
<ele>551.489990</ele>
<time>2021-03-13T18:12:30.004Z</time>
</trkpt>
<trkpt lat="30.9696600" lon="34.9558400">
<ele>551.940002</ele>
<time>2021-03-13T18:12:30.004Z</time>
</trkpt>
<trkpt lat="30.9697400" lon="34.9556200">
<ele>552.519958</ele>
<time>2021-03-13T18:12:30.004Z</time>
</trkpt>
<trkpt lat="30.9697700" lon="34.9554900">
<ele>552.429993</ele>
<time>2021-03-13T18:12:30.004Z</time>
</trkpt>
<trkpt lat="30.9698000" lon="34.9553000">
<ele>550.770020</ele>
<time>2021-03-13T18:12:30.004Z</time>
</trkpt>
<trkpt lat="30.9697800" lon="34.9551700">
<ele>550.429993</ele>
<time>2021-03-13T18:12:30.004Z</time>
</trkpt>
<trkpt lat="30.9696900" lon="34.9547600">
<ele>548.149963</ele>
<time>2021-03-13T18:12:30.004Z</time>
</trkpt>
<trkpt lat="30.9696700" lon="34.9544700">
<ele>548.169983</ele>
<time>2021-03-13T18:12:30.004Z</time>
</trkpt>
<trkpt lat="30.9696400" lon="34.9543600">
<ele>549.419983</ele>
<time>2021-03-13T18:12:30.004Z</time>
</trkpt>
<trkpt lat="30.9695600" lon="34.9542100">
<ele>551.559998</ele>
<time>2021-03-13T18:12:30.004Z</time>
</trkpt>
<trkpt lat="30.9694900" lon="34.9540700">
<ele>552.980042</ele>
<time>2021-03-13T18:12:30.005Z</time>
</trkpt>
<trkpt lat="30.9695500" lon="34.9538800">
<ele>552.429993</ele>
<time>2021-03-13T18:12:30.005Z</time>
</trkpt>
<trkpt lat="30.9695400" lon="34.9537200">
<ele>554.399963</ele>
<time>2021-03-13T18:12:30.005Z</time>
</trkpt>
<trkpt lat="30.9695000" lon="34.9536000">
<ele>557.159973</ele>
<time>2021-03-13T18:12:30.005Z</time>
</trkpt>
<trkpt lat="30.9693800" lon="34.9533300">
<ele>563.479980</ele>
<time>2021-03-13T18:12:30.005Z</time>
</trkpt>
<trkpt lat="30.9693600" lon="34.9532400">
<ele>564.150024</ele>
<time>2021-03-13T18:12:30.005Z</time>
</trkpt>
<trkpt lat="30.9693500" lon="34.9527900">
<ele>567.250000</ele>
<time>2021-03-13T18:12:30.005Z</time>
</trkpt>
<trkpt lat="30.9693300" lon="34.9526700">
<ele>567.000000</ele>
<time>2021-03-13T18:12:30.005Z</time>
</trkpt>
<trkpt lat="30.9691900" lon="34.9523700">
<ele>564.690002</ele>
<time>2021-03-13T18:12:30.005Z</time>
</trkpt>
<trkpt lat="30.9690800" lon="34.9522200">
<ele>564.359985</ele>
<time>2021-03-13T18:12:30.005Z</time>
</trkpt>
<trkpt lat="30.9689300" lon="34.9521000">
<ele>563.479980</ele>
<time>2021-03-13T18:12:30.005Z</time>
</trkpt>
<trkpt lat="30.9688200" lon="34.9520600">
<ele>563.690002</ele>
<time>2021-03-13T18:12:30.005Z</time>
</trkpt>
<trkpt lat="30.9688700" lon="34.9518000">
<ele>562.029968</ele>
<time>2021-03-13T18:12:30.005Z</time>
</trkpt>
<trkpt lat="30.9688500" lon="34.9516600">
<ele>560.390015</ele>
<time>2021-03-13T18:12:30.005Z</time>
</trkpt>
<trkpt lat="30.9687100" lon="34.9512500">
<ele>566.010010</ele>
<time>2021-03-13T18:12:30.005Z</time>
</trkpt>
<trkpt lat="30.9686400" lon="34.9508200">
<ele>572.380005</ele>
<time>2021-03-13T18:12:30.005Z</time>
</trkpt>
<trkpt lat="30.9685500" lon="34.9505200">
<ele>574.850037</ele>
<time>2021-03-13T18:12:30.005Z</time>
</trkpt>
<trkpt lat="30.9683900" lon="34.9501600">
<ele>576.780029</ele>
<time>2021-03-13T18:12:30.005Z</time>
</trkpt>
<trkpt lat="30.9682100" lon="34.9498500">
<ele>572.359985</ele>
<time>2021-03-13T18:12:30.005Z</time>
</trkpt>
<trkpt lat="30.9681100" lon="34.9495600">
<ele>569.179993</ele>
<time>2021-03-13T18:12:30.005Z</time>
</trkpt>
<trkpt lat="30.9679200" lon="34.9492300">
<ele>561.869995</ele>
<time>2021-03-13T18:12:30.005Z</time>
</trkpt>
<trkpt lat="30.9679100" lon="34.9492100">
<ele>561.400024</ele>
<time>2021-03-13T18:12:30.005Z</time>
</trkpt>
<trkpt lat="30.9679100" lon="34.9492100">
<ele>561.400024</ele>
<time>2021-03-13T18:12:30.005Z</time>
</trkpt>
<trkpt lat="30.9679100" lon="34.9492100">
<ele>561.400024</ele>
<time>2021-03-13T18:12:30.005Z</time>
</trkpt>
<trkpt lat="30.9677600" lon="34.9487800">
<ele>556.479980</ele>
<time>2021-03-13T18:12:30.005Z</time>
</trkpt>
<trkpt lat="30.9677300" lon="34.9486600">
<ele>555.830017</ele>
<time>2021-03-13T18:12:30.006Z</time>
</trkpt>
<trkpt lat="30.9677300" lon="34.9484900">
<ele>555.000000</ele>
<time>2021-03-13T18:12:30.006Z</time>
</trkpt>
<trkpt lat="30.9677900" lon="34.9483800">
<ele>555.320007</ele>
<time>2021-03-13T18:12:30.006Z</time>
</trkpt>
<trkpt lat="30.9680300" lon="34.9481400">
<ele>555.280029</ele>
<time>2021-03-13T18:12:30.006Z</time>
</trkpt>
<trkpt lat="30.9680900" lon="34.9480300">
<ele>554.130005</ele>
<time>2021-03-13T18:12:30.006Z</time>
</trkpt>
<trkpt lat="30.9681000" lon="34.9477400">
<ele>551.669983</ele>
<time>2021-03-13T18:12:30.006Z</time>
</trkpt>
<trkpt lat="30.9680500" lon="34.9474000">
<ele>548.709961</ele>
<time>2021-03-13T18:12:30.006Z</time>
</trkpt>
<trkpt lat="30.9679600" lon="34.9470600">
<ele>550.140015</ele>
<time>2021-03-13T18:12:30.006Z</time>
</trkpt>
<trkpt lat="30.9679500" lon="34.9468500">
<ele>550.500000</ele>
<time>2021-03-13T18:12:30.006Z</time>
</trkpt>
<trkpt lat="30.9679800" lon="34.9466400">
<ele>549.809998</ele>
<time>2021-03-13T18:12:30.006Z</time>
</trkpt>
<trkpt lat="30.9679900" lon="34.9463000">
<ele>547.599976</ele>
<time>2021-03-13T18:12:30.006Z</time>
</trkpt>
<trkpt lat="30.9681600" lon="34.9452800">
<ele>541.529968</ele>
<time>2021-03-13T18:12:30.006Z</time>
</trkpt>
<trkpt lat="30.9681900" lon="34.9451400">
<ele>540.210022</ele>
<time>2021-03-13T18:12:30.006Z</time>
</trkpt>
<trkpt lat="30.9682400" lon="34.9450200">
<ele>539.260010</ele>
<time>2021-03-13T18:12:30.006Z</time>
</trkpt>
<trkpt lat="30.9684900" lon="34.9446800">
<ele>540.320007</ele>
<time>2021-03-13T18:12:30.006Z</time>
</trkpt>
<trkpt lat="30.9686700" lon="34.9443700">
<ele>542.589966</ele>
<time>2021-03-13T18:12:30.006Z</time>
</trkpt>
<trkpt lat="30.9687100" lon="34.9442600">
<ele>543.489990</ele>
<time>2021-03-13T18:12:30.006Z</time>
</trkpt>
<trkpt lat="30.9687400" lon="34.9440700">
<ele>545.809998</ele>
<time>2021-03-13T18:12:30.006Z</time>
</trkpt>
<trkpt lat="30.9687400" lon="34.9439800">
<ele>547.130005</ele>
<time>2021-03-13T18:12:30.006Z</time>
</trkpt>
<trkpt lat="30.9686900" lon="34.9435900">
<ele>549.389954</ele>
<time>2021-03-13T18:12:30.006Z</time>
</trkpt>
<trkpt lat="30.9686800" lon="34.9432100">
<ele>545.250000</ele>
<time>2021-03-13T18:12:30.006Z</time>
</trkpt>
<trkpt lat="30.9687200" lon="34.9430100">
<ele>541.649963</ele>
<time>2021-03-13T18:12:30.006Z</time>
</trkpt>
<trkpt lat="30.9687700" lon="34.9429100">
<ele>539.660034</ele>
<time>2021-03-13T18:12:30.006Z</time>
</trkpt>
<trkpt lat="30.9689100" lon="34.9427400">
<ele>537.959961</ele>
<time>2021-03-13T18:12:30.006Z</time>
</trkpt>
<trkpt lat="30.9690600" lon="34.9426600">
<ele>538.710022</ele>
<time>2021-03-13T18:12:30.006Z</time>
</trkpt>
<trkpt lat="30.9691700" lon="34.9426300">
<ele>539.479980</ele>
<time>2021-03-13T18:12:30.007Z</time>
</trkpt>
<trkpt lat="30.9695600" lon="34.9425900">
<ele>533.679993</ele>
<time>2021-03-13T18:12:30.007Z</time>
</trkpt>
<trkpt lat="30.9700200" lon="34.9427200">
<ele>524.630005</ele>
<time>2021-03-13T18:12:30.007Z</time>
</trkpt>
<trkpt lat="30.9703500" lon="34.9427100">
<ele>520.630005</ele>
<time>2021-03-13T18:12:30.007Z</time>
</trkpt>
<trkpt lat="30.9706400" lon="34.9426500">
<ele>524.369995</ele>
<time>2021-03-13T18:12:30.007Z</time>
</trkpt>
<trkpt lat="30.9708800" lon="34.9425300">
<ele>525.739990</ele>
<time>2021-03-13T18:12:30.007Z</time>
</trkpt>
<trkpt lat="30.9712200" lon="34.9424300">
<ele>528.459961</ele>
<time>2021-03-13T18:12:30.007Z</time>
</trkpt>
<trkpt lat="30.9714700" lon="34.9423500">
<ele>531.820007</ele>
<time>2021-03-13T18:12:30.007Z</time>
</trkpt>
<trkpt lat="30.9717500" lon="34.9422900">
<ele>534.230042</ele>
<time>2021-03-13T18:12:30.007Z</time>
</trkpt>
<trkpt lat="30.9720100" lon="34.9423400">
<ele>533.899963</ele>
<time>2021-03-13T18:12:30.007Z</time>
</trkpt>
<trkpt lat="30.9724400" lon="34.9425700">
<ele>527.369995</ele>
<time>2021-03-13T18:12:30.007Z</time>
</trkpt>
<trkpt lat="30.9726700" lon="34.9426300">
<ele>524.450012</ele>
<time>2021-03-13T18:12:30.007Z</time>
</trkpt>
<trkpt lat="30.9727600" lon="34.9426200">
<ele>522.989990</ele>
<time>2021-03-13T18:12:30.007Z</time>
</trkpt>
<trkpt lat="30.9730000" lon="34.9425700">
<ele>521.210022</ele>
<time>2021-03-13T18:12:30.007Z</time>
</trkpt>
<trkpt lat="30.9733100" lon="34.9424700">
<ele>522.020020</ele>
<time>2021-03-13T18:12:30.007Z</time>
</trkpt>
<trkpt lat="30.9735400" lon="34.9424300">
<ele>522.690002</ele>
<time>2021-03-13T18:12:30.007Z</time>
</trkpt>
<trkpt lat="30.9737100" lon="34.9424600">
<ele>524.109985</ele>
<time>2021-03-13T18:12:30.007Z</time>
</trkpt>
<trkpt lat="30.9738400" lon="34.9424500">
<ele>526.359985</ele>
<time>2021-03-13T18:12:30.007Z</time>
</trkpt>
<trkpt lat="30.9740400" lon="34.9424000">
<ele>528.489990</ele>
<time>2021-03-13T18:12:30.007Z</time>
</trkpt>
<trkpt lat="30.9741500" lon="34.9423900">
<ele>529.450012</ele>
<time>2021-03-13T18:12:30.007Z</time>
</trkpt>
<trkpt lat="30.9741500" lon="34.9423900">
<ele>529.450012</ele>
<time>2021-03-13T18:12:30.007Z</time>
</trkpt>
<trkpt lat="30.9741500" lon="34.9423900">
<ele>529.450012</ele>
<time>2021-03-13T18:12:30.007Z</time>
</trkpt>
<trkpt lat="30.9741700" lon="34.9423900">
<ele>529.559998</ele>
<time>2021-03-13T18:12:30.007Z</time>
</trkpt>
<trkpt lat="30.9743200" lon="34.9424700">
<ele>527.330017</ele>
<time>2021-03-13T18:12:30.007Z</time>
</trkpt>
<trkpt lat="30.9746000" lon="34.9427000">
<ele>522.880005</ele>
<time>2021-03-13T18:12:30.007Z</time>
</trkpt>
<trkpt lat="30.9748900" lon="34.9428600">
<ele>520.279968</ele>
<time>2021-03-13T18:12:30.007Z</time>
</trkpt>
<trkpt lat="30.9753100" lon="34.9429500">
<ele>514.219971</ele>
<time>2021-03-13T18:12:30.008Z</time>
</trkpt>
<trkpt lat="30.9753800" lon="34.9429900">
<ele>513.750000</ele>
<time>2021-03-13T18:12:30.008Z</time>
</trkpt>
<trkpt lat="30.9754200" lon="34.9430400">
<ele>512.580017</ele>
<time>2021-03-13T18:12:30.008Z</time>
</trkpt>
<trkpt lat="30.9754600" lon="34.9431400">
<ele>512.530029</ele>
<time>2021-03-13T18:12:30.008Z</time>
</trkpt>
<trkpt lat="30.9754700" lon="34.9435300">
<ele>514.020020</ele>
<time>2021-03-13T18:12:30.008Z</time>
</trkpt>
<trkpt lat="30.9755300" lon="34.9438300">
<ele>518.200012</ele>
<time>2021-03-13T18:12:30.008Z</time>
</trkpt>
<trkpt lat="30.9756000" lon="34.9439200">
<ele>519.339966</ele>
<time>2021-03-13T18:12:30.008Z</time>
</trkpt>
<trkpt lat="30.9756800" lon="34.9439300">
<ele>519.440002</ele>
<time>2021-03-13T18:12:30.008Z</time>
</trkpt>
<trkpt lat="30.9757400" lon="34.9439000">
<ele>519.119995</ele>
<time>2021-03-13T18:12:30.008Z</time>
</trkpt>
<trkpt lat="30.9758000" lon="34.9438500">
<ele>519.059998</ele>
<time>2021-03-13T18:12:30.008Z</time>
</trkpt>
<trkpt lat="30.9764500" lon="34.9431400">
<ele>522.429993</ele>
<time>2021-03-13T18:12:30.008Z</time>
</trkpt>
<trkpt lat="30.9766700" lon="34.9429300">
<ele>518.049988</ele>
<time>2021-03-13T18:12:30.008Z</time>
</trkpt>
<trkpt lat="30.9767900" lon="34.9428400">
<ele>515.429993</ele>
<time>2021-03-13T18:12:30.008Z</time>
</trkpt>
<trkpt lat="30.9770900" lon="34.9427400">
<ele>512.659973</ele>
<time>2021-03-13T18:12:30.008Z</time>
</trkpt>
<trkpt lat="30.9771900" lon="34.9426700">
<ele>513.270020</ele>
<time>2021-03-13T18:12:30.008Z</time>
</trkpt>
<trkpt lat="30.9774600" lon="34.9424000">
<ele>511.350006</ele>
<time>2021-03-13T18:12:30.008Z</time>
</trkpt>
<trkpt lat="30.9776200" lon="34.9422700">
<ele>512.450012</ele>
<time>2021-03-13T18:12:30.008Z</time>
</trkpt>
<trkpt lat="30.9774700" lon="34.9420300">
<ele>513.460022</ele>
<time>2021-03-13T18:12:30.008Z</time>
</trkpt>
<trkpt lat="30.9773300" lon="34.9418600">
<ele>518.809998</ele>
<time>2021-03-13T18:12:30.008Z</time>
</trkpt>
<trkpt lat="30.9771900" lon="34.9417200">
<ele>523.679993</ele>
<time>2021-03-13T18:12:30.008Z</time>
</trkpt>
<trkpt lat="30.9769100" lon="34.9415800">
<ele>526.669983</ele>
<time>2021-03-13T18:12:30.008Z</time>
</trkpt>
<trkpt lat="30.9768600" lon="34.9415300">
<ele>526.989990</ele>
<time>2021-03-13T18:12:30.008Z</time>
</trkpt>
<trkpt lat="30.9767900" lon="34.9414300">
<ele>527.309998</ele>
<time>2021-03-13T18:12:30.008Z</time>
</trkpt>
<trkpt lat="30.9767300" lon="34.9412800">
<ele>527.140015</ele>
<time>2021-03-13T18:12:30.009Z</time>
</trkpt>
<trkpt lat="30.9767100" lon="34.9411200">
<ele>527.000000</ele>
<time>2021-03-13T18:12:30.009Z</time>
</trkpt>
<trkpt lat="30.9767100" lon="34.9408200">
<ele>524.609985</ele>
<time>2021-03-13T18:12:30.009Z</time>
</trkpt>
<trkpt lat="30.9766800" lon="34.9406700">
<ele>522.039978</ele>
<time>2021-03-13T18:12:30.009Z</time>
</trkpt>
<trkpt lat="30.9766200" lon="34.9405200">
<ele>519.410034</ele>
<time>2021-03-13T18:12:30.009Z</time>
</trkpt>
<trkpt lat="30.9764400" lon="34.9404700">
<ele>518.959961</ele>
<time>2021-03-13T18:12:30.009Z</time>
</trkpt>
<trkpt lat="30.9763600" lon="34.9403900">
<ele>518.869995</ele>
<time>2021-03-13T18:12:30.009Z</time>
</trkpt>
<trkpt lat="30.9762800" lon="34.9401200">
<ele>519.789978</ele>
<time>2021-03-13T18:12:30.009Z</time>
</trkpt>
<trkpt lat="30.9760800" lon="34.9396800">
<ele>520.459961</ele>
<time>2021-03-13T18:12:30.009Z</time>
</trkpt>
<trkpt lat="30.9760300" lon="34.9395600">
<ele>519.030029</ele>
<time>2021-03-13T18:12:30.009Z</time>
</trkpt>
<trkpt lat="30.9760100" lon="34.9394300">
<ele>517.710022</ele>
<time>2021-03-13T18:12:30.009Z</time>
</trkpt>
<trkpt lat="30.9760100" lon="34.9394100">
<ele>517.559998</ele>
<time>2021-03-13T18:12:30.009Z</time>
</trkpt>
<trkpt lat="30.9760100" lon="34.9392400">
<ele>516.280029</ele>
<time>2021-03-13T18:12:30.009Z</time>
</trkpt>
<trkpt lat="30.9760600" lon="34.9390200">
<ele>515.429993</ele>
<time>2021-03-13T18:12:30.009Z</time>
</trkpt>
<trkpt lat="30.9761300" lon="34.9388200">
<ele>514.090027</ele>
<time>2021-03-13T18:12:30.009Z</time>
</trkpt>
<trkpt lat="30.9764400" lon="34.9382600">
<ele>511.580017</ele>
<time>2021-03-13T18:12:30.010Z</time>
</trkpt>
<trkpt lat="30.9764400" lon="34.9381200">
<ele>507.449982</ele>
<time>2021-03-13T18:12:30.010Z</time>
</trkpt>
<trkpt lat="30.9763800" lon="34.9378500">
<ele>499.949982</ele>
<time>2021-03-13T18:12:30.010Z</time>
</trkpt>
<trkpt lat="30.9764400" lon="34.9376700">
<ele>498.400024</ele>
<time>2021-03-13T18:12:30.010Z</time>
</trkpt>
<trkpt lat="30.9765900" lon="34.9374100">
<ele>497.149994</ele>
<time>2021-03-13T18:12:30.010Z</time>
</trkpt>
<trkpt lat="30.9766900" lon="34.9372700">
<ele>497.089996</ele>
<time>2021-03-13T18:12:30.010Z</time>
</trkpt>
<trkpt lat="30.9770300" lon="34.9368800">
<ele>502.930023</ele>
<time>2021-03-13T18:12:30.010Z</time>
</trkpt>
<trkpt lat="30.9771700" lon="34.9367600">
<ele>505.630005</ele>
<time>2021-03-13T18:12:30.010Z</time>
</trkpt>
<trkpt lat="30.9771100" lon="34.9365700">
<ele>501.779999</ele>
<time>2021-03-13T18:12:30.010Z</time>
</trkpt>
<trkpt lat="30.9770700" lon="34.9363100">
<ele>498.319977</ele>
<time>2021-03-13T18:12:30.010Z</time>
</trkpt>
<trkpt lat="30.9770700" lon="34.9361800">
<ele>498.579987</ele>
<time>2021-03-13T18:12:30.010Z</time>
</trkpt>
<trkpt lat="30.9771800" lon="34.9358700">
<ele>500.820007</ele>
<time>2021-03-13T18:12:30.010Z</time>
</trkpt>
<trkpt lat="30.9773400" lon="34.9355800">
<ele>504.679993</ele>
<time>2021-03-13T18:12:30.010Z</time>
</trkpt>
<trkpt lat="30.9773500" lon="34.9354900">
<ele>504.709991</ele>
<time>2021-03-13T18:12:30.010Z</time>
</trkpt>
<trkpt lat="30.9772900" lon="34.9353600">
<ele>503.440002</ele>
<time>2021-03-13T18:12:30.010Z</time>
</trkpt>
<trkpt lat="30.9772000" lon="34.9352000">
<ele>501.270020</ele>
<time>2021-03-13T18:12:30.010Z</time>
</trkpt>
<trkpt lat="30.9772000" lon="34.9349300">
<ele>500.500031</ele>
<time>2021-03-13T18:12:30.010Z</time>
</trkpt>
<trkpt lat="30.9772100" lon="34.9344900">
<ele>501.199982</ele>
<time>2021-03-13T18:12:30.010Z</time>
</trkpt>
<trkpt lat="30.9771900" lon="34.9343500">
<ele>502.550018</ele>
<time>2021-03-13T18:12:30.010Z</time>
</trkpt>
<trkpt lat="30.9771000" lon="34.9339600">
<ele>509.119995</ele>
<time>2021-03-13T18:12:30.010Z</time>
</trkpt>
<trkpt lat="30.9770800" lon="34.9338000">
<ele>510.589996</ele>
<time>2021-03-13T18:12:30.010Z</time>
</trkpt>
<trkpt lat="30.9770700" lon="34.9333600">
<ele>507.229980</ele>
<time>2021-03-13T18:12:30.010Z</time>
</trkpt>
<trkpt lat="30.9770200" lon="34.9329600">
<ele>505.760010</ele>
<time>2021-03-13T18:12:30.010Z</time>
</trkpt>
<trkpt lat="30.9769400" lon="34.9326700">
<ele>505.210022</ele>
<time>2021-03-13T18:12:30.011Z</time>
</trkpt>
<trkpt lat="30.9768800" lon="34.9325600">
<ele>504.199982</ele>
<time>2021-03-13T18:12:30.011Z</time>
</trkpt>
<trkpt lat="30.9766900" lon="34.9323300">
<ele>503.079987</ele>
<time>2021-03-13T18:12:30.011Z</time>
</trkpt>
<trkpt lat="30.9766500" lon="34.9322100">
<ele>503.000000</ele>
<time>2021-03-13T18:12:30.011Z</time>
</trkpt>
<trkpt lat="30.9766600" lon="34.9320900">
<ele>502.989990</ele>
<time>2021-03-13T18:12:30.011Z</time>
</trkpt>
<trkpt lat="30.9766900" lon="34.9320200">
<ele>503.020020</ele>
<time>2021-03-13T18:12:30.011Z</time>
</trkpt>
<trkpt lat="30.9768700" lon="34.9317500">
<ele>504.540009</ele>
<time>2021-03-13T18:12:30.011Z</time>
</trkpt>
<trkpt lat="30.9769900" lon="34.9316300">
<ele>506.250000</ele>
<time>2021-03-13T18:12:30.011Z</time>
</trkpt>
<trkpt lat="30.9769400" lon="34.9314900">
<ele>507.860016</ele>
<time>2021-03-13T18:12:30.011Z</time>
</trkpt>
<trkpt lat="30.9768900" lon="34.9314100">
<ele>508.179993</ele>
<time>2021-03-13T18:12:30.011Z</time>
</trkpt>
<trkpt lat="30.9766900" lon="34.9312600">
<ele>507.220032</ele>
<time>2021-03-13T18:12:30.011Z</time>
</trkpt>
<trkpt lat="30.9765400" lon="34.9310200">
<ele>507.090027</ele>
<time>2021-03-13T18:12:30.011Z</time>
</trkpt>
<trkpt lat="30.9764000" lon="34.9306900">
<ele>507.130005</ele>
<time>2021-03-13T18:12:30.011Z</time>
</trkpt>
<trkpt lat="30.9762100" lon="34.9302700">
<ele>512.429993</ele>
<time>2021-03-13T18:12:30.011Z</time>
</trkpt>
<trkpt lat="30.9761300" lon="34.9301500">
<ele>512.679993</ele>
<time>2021-03-13T18:12:30.011Z</time>
</trkpt>
<trkpt lat="30.9756800" lon="34.9298200">
<ele>509.520020</ele>
<time>2021-03-13T18:12:30.011Z</time>
</trkpt>
<trkpt lat="30.9754100" lon="34.9295900">
<ele>507.630005</ele>
<time>2021-03-13T18:12:30.011Z</time>
</trkpt>
<trkpt lat="30.9750400" lon="34.9291900">
<ele>501.779999</ele>
<time>2021-03-13T18:12:30.011Z</time>
</trkpt>
<trkpt lat="30.9749700" lon="34.9290500">
<ele>498.709991</ele>
<time>2021-03-13T18:12:30.011Z</time>
</trkpt>
<trkpt lat="30.9748100" lon="34.9284200">
<ele>497.000000</ele>
<time>2021-03-13T18:12:30.011Z</time>
</trkpt>
<trkpt lat="30.9746000" lon="34.9272100">
<ele>494.079987</ele>
<time>2021-03-13T18:12:30.011Z</time>
</trkpt>
<trkpt lat="30.9746000" lon="34.9272100">
<ele>494.079987</ele>
<time>2021-03-13T18:12:30.011Z</time>
</trkpt>
<trkpt lat="30.9746000" lon="34.9272100">
<ele>494.079987</ele>
<time>2021-03-13T18:12:30.011Z</time>
</trkpt>
<trkpt lat="30.9745800" lon="34.9270600">
<ele>493.390015</ele>
<time>2021-03-13T18:12:30.011Z</time>
</trkpt>
<trkpt lat="30.9745600" lon="34.9268400">
<ele>492.610016</ele>
<time>2021-03-13T18:12:30.011Z</time>
</trkpt>
<trkpt lat="30.9745600" lon="34.9265400">
<ele>491.340027</ele>
<time>2021-03-13T18:12:30.012Z</time>
</trkpt>
<trkpt lat="30.9745500" lon="34.9263400">
<ele>489.790009</ele>
<time>2021-03-13T18:12:30.012Z</time>
</trkpt>
<trkpt lat="30.9744000" lon="34.9256900">
<ele>489.379974</ele>
<time>2021-03-13T18:12:30.012Z</time>
</trkpt>
<trkpt lat="30.9743800" lon="34.9254800">
<ele>491.100006</ele>
<time>2021-03-13T18:12:30.012Z</time>
</trkpt>
<trkpt lat="30.9744300" lon="34.9247500">
<ele>486.100006</ele>
<time>2021-03-13T18:12:30.012Z</time>
</trkpt>
<trkpt lat="30.9744200" lon="34.9246400">
<ele>483.149994</ele>
<time>2021-03-13T18:12:30.012Z</time>
</trkpt>
<trkpt lat="30.9743900" lon="34.9243800">
<ele>477.589996</ele>
<time>2021-03-13T18:12:30.012Z</time>
</trkpt>
<trkpt lat="30.9745000" lon="34.9240800">
<ele>478.620026</ele>
<time>2021-03-13T18:12:30.012Z</time>
</trkpt>
<trkpt lat="30.9745800" lon="34.9239900">
<ele>479.799988</ele>
<time>2021-03-13T18:12:30.012Z</time>
</trkpt>
<trkpt lat="30.9746200" lon="34.9239100">
<ele>480.009979</ele>
<time>2021-03-13T18:12:30.012Z</time>
</trkpt>
<trkpt lat="30.9748300" lon="34.9234700">
<ele>480.819977</ele>
<time>2021-03-13T18:12:30.012Z</time>
</trkpt>
<trkpt lat="30.9748900" lon="34.9233400">
<ele>481.649994</ele>
<time>2021-03-13T18:12:30.012Z</time>
</trkpt>
<trkpt lat="30.9751800" lon="34.9228200">
<ele>481.600006</ele>
<time>2021-03-13T18:12:30.012Z</time>
</trkpt>
<trkpt lat="30.9755200" lon="34.9220100">
<ele>479.359985</ele>
<time>2021-03-13T18:12:30.012Z</time>
</trkpt>
<trkpt lat="30.9758400" lon="34.9213900">
<ele>476.070007</ele>
<time>2021-03-13T18:12:30.012Z</time>
</trkpt>
<trkpt lat="30.9760600" lon="34.9208900">
<ele>473.700012</ele>
<time>2021-03-13T18:12:30.012Z</time>
</trkpt>
<trkpt lat="30.9762000" lon="34.9206300">
<ele>471.200012</ele>
<time>2021-03-13T18:12:30.012Z</time>
</trkpt>
<trkpt lat="30.9765300" lon="34.9201600">
<ele>474.980011</ele>
<time>2021-03-13T18:12:30.012Z</time>
</trkpt>
<trkpt lat="30.9766800" lon="34.9199200">
<ele>478.010010</ele>
<time>2021-03-13T18:12:30.012Z</time>
</trkpt>
<trkpt lat="30.9770700" lon="34.9191100">
<ele>477.259979</ele>
<time>2021-03-13T18:12:30.012Z</time>
</trkpt>
<trkpt lat="30.9772900" lon="34.9185700">
<ele>472.619995</ele>
<time>2021-03-13T18:12:30.012Z</time>
</trkpt>
<trkpt lat="30.9772900" lon="34.9185700">
<ele>472.619995</ele>
<time>2021-03-13T18:12:30.012Z</time>
</trkpt>
<trkpt lat="30.9772900" lon="34.9185700">
<ele>472.619995</ele>
<time>2021-03-13T18:12:30.012Z</time>
</trkpt>
<trkpt lat="30.9773300" lon="34.9184800">
<ele>472.979980</ele>
<time>2021-03-13T18:12:30.012Z</time>
</trkpt>
<trkpt lat="30.9774400" lon="34.9181700">
<ele>472.979980</ele>
<time>2021-03-13T18:12:30.012Z</time>
</trkpt>
<trkpt lat="30.9774900" lon="34.9179000">
<ele>471.739990</ele>
<time>2021-03-13T18:12:30.013Z</time>
</trkpt>
<trkpt lat="30.9775400" lon="34.9175000">
<ele>470.720001</ele>
<time>2021-03-13T18:12:30.013Z</time>
</trkpt>
<trkpt lat="30.9774000" lon="34.9172400">
<ele>470.579987</ele>
<time>2021-03-13T18:12:30.013Z</time>
</trkpt>
<trkpt lat="30.9772000" lon="34.9171500">
<ele>470.839996</ele>
<time>2021-03-13T18:12:30.013Z</time>
</trkpt>
<trkpt lat="30.9770500" lon="34.9169900">
<ele>474.149994</ele>
<time>2021-03-13T18:12:30.013Z</time>
</trkpt>
<trkpt lat="30.9769400" lon="34.9167200">
<ele>475.209991</ele>
<time>2021-03-13T18:12:30.013Z</time>
</trkpt>
<trkpt lat="30.9768900" lon="34.9164800">
<ele>472.639984</ele>
<time>2021-03-13T18:12:30.013Z</time>
</trkpt>
<trkpt lat="30.9769400" lon="34.9162500">
<ele>470.530029</ele>
<time>2021-03-13T18:12:30.013Z</time>
</trkpt>
<trkpt lat="30.9770700" lon="34.9159800">
<ele>470.239990</ele>
<time>2021-03-13T18:12:30.013Z</time>
</trkpt>
<trkpt lat="30.9769400" lon="34.9157400">
<ele>469.679993</ele>
<time>2021-03-13T18:12:30.013Z</time>
</trkpt>
<trkpt lat="30.9767300" lon="34.9153600">
<ele>471.339996</ele>
<time>2021-03-13T18:12:30.013Z</time>
</trkpt>
<trkpt lat="30.9768700" lon="34.9152200">
<ele>471.750000</ele>
<time>2021-03-13T18:12:30.013Z</time>
</trkpt>
<trkpt lat="30.9776100" lon="34.9144500">
<ele>464.979980</ele>
<time>2021-03-13T18:12:30.013Z</time>
</trkpt>
<trkpt lat="30.9779800" lon="34.9133100">
<ele>466.859985</ele>
<time>2021-03-13T18:12:30.013Z</time>
</trkpt>
<trkpt lat="30.9781200" lon="34.9129900">
<ele>465.070007</ele>
<time>2021-03-13T18:12:30.013Z</time>
</trkpt>
<trkpt lat="30.9781200" lon="34.9129900">
<ele>465.070007</ele>
<time>2021-03-13T18:12:30.013Z</time>
</trkpt>
<trkpt lat="30.9781200" lon="34.9129900">
<ele>465.070007</ele>
<time>2021-03-13T18:12:30.013Z</time>
</trkpt>
<trkpt lat="30.9781500" lon="34.9129000">
<ele>464.419983</ele>
<time>2021-03-13T18:12:30.013Z</time>
</trkpt>
<trkpt lat="30.9781600" lon="34.9127800">
<ele>463.880005</ele>
<time>2021-03-13T18:12:30.013Z</time>
</trkpt>
<trkpt lat="30.9782100" lon="34.9124000">
<ele>458.930023</ele>
<time>2021-03-13T18:12:30.013Z</time>
</trkpt>
<trkpt lat="30.9782500" lon="34.9123600">
<ele>457.430023</ele>
<time>2021-03-13T18:12:30.013Z</time>
</trkpt>
<trkpt lat="30.9783000" lon="34.9122900">
<ele>454.699982</ele>
<time>2021-03-13T18:12:30.013Z</time>
</trkpt>
<trkpt lat="30.9786200" lon="34.9119000">
<ele>455.690002</ele>
<time>2021-03-13T18:12:30.013Z</time>
</trkpt>
<trkpt lat="30.9788700" lon="34.9113000">
<ele>460.980011</ele>
<time>2021-03-13T18:12:30.013Z</time>
</trkpt>
<trkpt lat="30.9791200" lon="34.9111300">
<ele>461.190002</ele>
<time>2021-03-13T18:12:30.013Z</time>
</trkpt>
<trkpt lat="30.9797100" lon="34.9108600">
<ele>459.669983</ele>
<time>2021-03-13T18:12:30.014Z</time>
</trkpt>
<trkpt lat="30.9801600" lon="34.9108000">
<ele>458.330017</ele>
<time>2021-03-13T18:12:30.014Z</time>
</trkpt>
<trkpt lat="30.9802600" lon="34.9108000">
<ele>458.020020</ele>
<time>2021-03-13T18:12:30.014Z</time>
</trkpt>
<trkpt lat="30.9811300" lon="34.9110400">
<ele>456.490021</ele>
<time>2021-03-13T18:12:30.014Z</time>
</trkpt>
<trkpt lat="30.9812100" lon="34.9110800">
<ele>454.080017</ele>
<time>2021-03-13T18:12:30.014Z</time>
</trkpt>
<trkpt lat="30.9813800" lon="34.9111200">
<ele>449.900024</ele>
<time>2021-03-13T18:12:30.014Z</time>
</trkpt>
<trkpt lat="30.9820600" lon="34.9111400">
<ele>450.360016</ele>
<time>2021-03-13T18:12:30.014Z</time>
</trkpt>
<trkpt lat="30.9822800" lon="34.9111100">
<ele>450.830017</ele>
<time>2021-03-13T18:12:30.014Z</time>
</trkpt>
<trkpt lat="30.9823700" lon="34.9109900">
<ele>450.450012</ele>
<time>2021-03-13T18:12:30.014Z</time>
</trkpt>
<trkpt lat="30.9825300" lon="34.9109500">
<ele>449.000031</ele>
<time>2021-03-13T18:12:30.014Z</time>
</trkpt>
<trkpt lat="30.9826100" lon="34.9109100">
<ele>448.700012</ele>
<time>2021-03-13T18:12:30.014Z</time>
</trkpt>
<trkpt lat="30.9834000" lon="34.9100200">
<ele>451.679993</ele>
<time>2021-03-13T18:12:30.014Z</time>
</trkpt>
<trkpt lat="30.9838400" lon="34.9094200">
<ele>451.690002</ele>
<time>2021-03-13T18:12:30.014Z</time>
</trkpt>
<trkpt lat="30.9839100" lon="34.9093600">
<ele>452.070007</ele>
<time>2021-03-13T18:12:30.014Z</time>
</trkpt>
<trkpt lat="30.9846700" lon="34.9088700">
<ele>450.299988</ele>
<time>2021-03-13T18:12:30.014Z</time>
</trkpt>
<trkpt lat="30.9849800" lon="34.9087400">
<ele>451.149994</ele>
<time>2021-03-13T18:12:30.014Z</time>
</trkpt>
<trkpt lat="30.9852100" lon="34.9086800">
<ele>450.179993</ele>
<time>2021-03-13T18:12:30.014Z</time>
</trkpt>
<trkpt lat="30.9854300" lon="34.9087900">
<ele>449.940002</ele>
<time>2021-03-13T18:12:30.014Z</time>
</trkpt>
<trkpt lat="30.9854300" lon="34.9087900">
<ele>449.940002</ele>
<time>2021-03-13T18:12:30.014Z</time>
</trkpt>
<trkpt lat="30.9854300" lon="34.9087900">
<ele>449.940002</ele>
<time>2021-03-13T18:12:30.014Z</time>
</trkpt>
<trkpt lat="30.9863500" lon="34.9092100">
<ele>464.750000</ele>
<time>2021-03-13T18:12:30.014Z</time>
</trkpt>
<trkpt lat="30.9865500" lon="34.9093000">
<ele>467.790009</ele>
<time>2021-03-13T18:12:30.014Z</time>
</trkpt>
<trkpt lat="30.9867700" lon="34.9092900">
<ele>469.500000</ele>
<time>2021-03-13T18:12:30.014Z</time>
</trkpt>
<trkpt lat="30.9870700" lon="34.9096500">
<ele>474.420013</ele>
<time>2021-03-13T18:12:30.014Z</time>
</trkpt>
<trkpt lat="30.9873500" lon="34.9099200">
<ele>475.279999</ele>
<time>2021-03-13T18:12:30.014Z</time>
</trkpt>
<trkpt lat="30.9874600" lon="34.9100000">
<ele>473.720001</ele>
<time>2021-03-13T18:12:30.014Z</time>
</trkpt>
<trkpt lat="30.9874600" lon="34.9100000">
<ele>473.720001</ele>
<time>2021-03-13T18:12:30.015Z</time>
</trkpt>
<trkpt lat="30.9874600" lon="34.9100000">
<ele>473.720001</ele>
<time>2021-03-13T18:12:30.015Z</time>
</trkpt>
<trkpt lat="30.9877000" lon="34.9101800">
<ele>470.759979</ele>
<time>2021-03-13T18:12:30.015Z</time>
</trkpt>
<trkpt lat="30.9892800" lon="34.9112800">
<ele>460.560028</ele>
<time>2021-03-13T18:12:30.015Z</time>
</trkpt>
<trkpt lat="30.9895200" lon="34.9114900">
<ele>454.449982</ele>
<time>2021-03-13T18:12:30.015Z</time>
</trkpt>
<trkpt lat="30.9895800" lon="34.9115500">
<ele>454.480011</ele>
<time>2021-03-13T18:12:30.015Z</time>
</trkpt>
<trkpt lat="30.9896400" lon="34.9116200">
<ele>454.500000</ele>
<time>2021-03-13T18:12:30.015Z</time>
</trkpt>
<trkpt lat="30.9897300" lon="34.9117200">
<ele>453.989990</ele>
<time>2021-03-13T18:12:30.015Z</time>
</trkpt>
<trkpt lat="30.9897600" lon="34.9117800">
<ele>453.940002</ele>
<time>2021-03-13T18:12:30.015Z</time>
</trkpt>
<trkpt lat="30.9898100" lon="34.9118600">
<ele>453.779999</ele>
<time>2021-03-13T18:12:30.015Z</time>
</trkpt>
<trkpt lat="30.9898500" lon="34.9118900">
<ele>453.629974</ele>
<time>2021-03-13T18:12:30.015Z</time>
</trkpt>
<trkpt lat="30.9898900" lon="34.9119200">
<ele>453.450012</ele>
<time>2021-03-13T18:12:30.015Z</time>
</trkpt>
<trkpt lat="30.9899500" lon="34.9119400">
<ele>453.190002</ele>
<time>2021-03-13T18:12:30.015Z</time>
</trkpt>
<trkpt lat="30.9899800" lon="34.9119400">
<ele>453.089996</ele>
<time>2021-03-13T18:12:30.015Z</time>
</trkpt>
<trkpt lat="30.9900300" lon="34.9119400">
<ele>453.339996</ele>
<time>2021-03-13T18:12:30.015Z</time>
</trkpt>
<trkpt lat="30.9900700" lon="34.9119400">
<ele>453.779999</ele>
<time>2021-03-13T18:12:30.015Z</time>
</trkpt>
<trkpt lat="30.9900095" lon="34.9120652">
<ele>454.589996</ele>
<time>2021-03-13T18:12:30.015Z</time>
</trkpt>
<trkpt lat="30.9899704" lon="34.9122663">
<ele>455.039978</ele>
<time>2021-03-13T18:12:30.015Z</time>
</trkpt>
<trkpt lat="30.9899221" lon="34.9124943">
<ele>455.680023</ele>
<time>2021-03-13T18:12:30.015Z</time>
</trkpt>
<trkpt lat="30.9898831" lon="34.9127170">
<ele>456.369995</ele>
<time>2021-03-13T18:12:30.015Z</time>
</trkpt>
<trkpt lat="30.9896531" lon="34.9126714">
<ele>456.820007</ele>
<time>2021-03-13T18:12:30.015Z</time>
</trkpt>
<trkpt lat="30.9893312" lon="34.9125828">
<ele>457.809998</ele>
<time>2021-03-13T18:12:30.015Z</time>
</trkpt>
</trkseg>
</trk>
</gpx>
